Date StartTime U_cm/s V_cm/s W_cm/s Ustd_cm/s Vstd_cm/s Wstd_cm/s Uvar_(cm/s)^2 Vvar_(cm/s)^2 Wvar_(cm/s)^2 KE_(m/s)^2 TurbulentKE_(m/s)^2 HorizWindSpeed_cm/s FrictionSpeec_cm/s DragCoef SpeedOfSound_m/s SonicTemperature_C Pressure_mb 
06/24/2014  00:00:00     -350.874       46.576      -32.725      146.168      102.074       57.079    21365.188    10419.086     3258.061        8.069        1.752      353.952       50.191        0.020      344.631       21.583      861.325
06/24/2014  00:01:00     -314.386      -62.829      -10.398      187.368      114.242       63.641    35106.676    13051.336     4050.133        7.754        2.610      320.603       69.423        0.047      344.585       21.506      861.335
06/24/2014  00:02:00     -261.934      -42.254       -8.044      145.850       94.594       67.190    21272.299     8947.937     4514.457        5.259        1.737      265.320       79.330        0.089      344.545       21.437      861.346
06/24/2014  00:03:00     -241.535      -37.653      -18.748       92.767      100.315       49.540     8605.777    10063.003     2454.255        4.061        1.056      244.452       40.022        0.027      344.543       21.433      861.330
06/24/2014  00:04:00     -234.010      -14.077      -21.239      178.172      111.903       52.538    31745.438    12522.234     2760.194        5.121        2.351      234.433       63.866        0.074      344.591       21.516      861.318
06/24/2014  00:05:00     -277.171      -54.845      -20.310      110.523       78.152       53.066    12215.298     6107.742     2816.001        5.069        1.057      282.545       37.171        0.017      344.531       21.412      861.311
06/24/2014  00:06:00     -214.548     -117.616        8.360      113.771      124.132       70.204    12943.772    15408.801     4928.646        4.660        1.664      244.672       67.631        0.076      344.523       21.399      861.319
06/24/2014  00:07:00     -115.705      -17.449      -14.173       73.998       89.501       35.835     5475.637     8010.413     1284.139        1.433        0.739      117.013       32.935        0.079      344.495       21.354      861.318
06/24/2014  00:08:00     -147.659        3.432        1.715      121.934      110.032       75.818    14867.820    12107.041     5748.442        2.726        1.636      147.699       82.719        0.314      344.496       21.354      861.307
06/24/2014  00:09:00     -188.213       93.493      -17.283       73.144       74.355       49.108     5349.984     5528.680     2411.622        2.887        0.665      210.155       27.459        0.017      344.474       21.316      861.311
06/24/2014  00:10:00     -127.202       32.850      -14.638       98.858       97.146       66.048     9772.829     9437.351     4362.284        2.052        1.179      131.376       64.715        0.243      344.459       21.291      861.319
06/24/2014  00:11:00     -190.298      -34.153       -3.422       85.383       46.346       38.018     7290.189     2147.947     1445.338        2.414        0.544      193.338       41.543        0.046      344.385       21.163      861.329
06/24/2014  00:12:00     -167.194      -78.607       -8.586       67.877       55.203       39.622     4607.254     3047.361     1569.905        2.171        0.461      184.751       38.586        0.044      344.432       21.244      861.326
06/24/2014  00:13:00     -257.616      -73.942      -22.447      110.490       77.208       53.518    12208.096     5961.117     2864.124        4.668        1.052      268.018       48.116        0.032      344.468       21.306      861.331
06/24/2014  00:14:00     -452.202     -149.615      -23.189      158.135      113.475       69.105    25006.530    12876.607     4775.480       13.503        2.133      476.310       71.988        0.023      344.515       21.385      861.336
06/24/2014  00:15:00     -347.898      -75.436        0.808      166.195      108.274       63.966    27620.760    11723.362     4091.587        8.507        2.172      355.983       63.505        0.032      344.480       21.326      861.335
06/24/2014  00:16:00     -344.078      -88.499      -10.561      162.251      121.492       72.086    26325.480    14760.228     5196.338        8.630        2.314      355.277       69.348        0.038      344.473       21.313      861.322
06/24/2014  00:17:00     -278.838     -118.185       -7.702      171.345      106.661       60.310    29358.977    11376.487     3637.353        6.807        2.219      302.850       62.644        0.043      344.444       21.265      861.319
06/24/2014  00:18:00     -300.342     -122.728       -5.773      144.260      117.537       67.689    20811.013    13814.879     4581.822        7.225        1.960      324.450       67.193        0.043      344.439       21.255      861.333
06/24/2014  00:19:00     -204.755      -73.736      -11.433      119.290       72.966       52.539    14230.007     5323.970     2760.355        3.490        1.116      217.627       55.781        0.066      344.429       21.238      861.353
06/24/2014  00:20:00     -260.786     -112.285        5.778      171.887      114.389       67.518    29545.237    13084.802     4558.712        6.391        2.359      283.931       70.331        0.061      344.441       21.259      861.318
06/24/2014  00:21:00     -221.571     -110.070        4.034      129.153      102.135       53.514    16680.589    10431.616     2863.791        4.559        1.499      247.405       53.019        0.046      344.410       21.206      861.315
06/24/2014  00:22:00     -332.617       -2.274      -12.061      128.862      108.726       65.355    16605.501    11821.368     4271.323        7.173        1.635      332.625       61.857        0.035      344.407       21.200      861.317
06/24/2014  00:23:00     -294.508     -114.760       -8.561      164.178      129.308       70.741    26954.434    16720.627     5004.243        7.432        2.434      316.077       70.978        0.050      344.459       21.289      861.328
06/24/2014  00:24:00     -309.400      -96.189      -13.421      137.648       86.570       50.884    18947.004     7494.363     2589.170        6.709        1.452      324.007       57.025        0.031      344.429       21.237      861.333
06/24/2014  00:25:00     -359.047     -122.053      -19.681      152.933      102.246       62.970    23388.594    10454.229     3965.246        9.100        1.890      379.225       70.979        0.035      344.452       21.278      861.319
06/24/2014  00:26:00     -216.709     -101.743        5.182      137.469       81.812       53.140    18897.674     6693.216     2823.821        4.287        1.421      239.404       60.356        0.064      344.442       21.261      861.325
06/24/2014  00:27:00     -279.814      -32.399        4.410      123.943      144.415       69.283    15361.948    20855.665     4800.080        6.018        2.051      281.683       67.877        0.058      344.466       21.300      861.299
06/24/2014  00:28:00     -111.300      -15.308       29.058      126.562      112.004       71.002    16017.828    12544.841     5041.277        2.353        1.680      112.348       72.603        0.418      344.453       21.282      861.281
06/24/2014  00:29:00     -228.603      -84.043        3.698      150.660      113.170       72.575    22698.413    12807.473     5267.081        5.005        2.039      243.562       79.905        0.108      344.482       21.327      861.282
06/24/2014  00:30:00     -236.780       44.004      -14.578      150.550       92.450       71.223    22665.319     8547.019     5072.692        4.724        1.814      240.834       67.111        0.078      344.545       21.438      861.273
06/24/2014  00:31:00     -177.900      -48.724       -6.021      105.955       88.104       49.376    11226.388     7762.244     2437.981        2.774        1.071      184.452       53.820        0.085      344.469       21.307      861.285
06/24/2014  00:32:00     -270.515      -77.297      -18.943      155.627       93.287       41.210    24219.705     8702.445     1698.267        5.706        1.731      281.341       56.116        0.040      344.509       21.375      861.297
06/24/2014  00:33:00     -319.171     -126.125        4.672      147.966      138.470       70.554    21893.980    19173.975     4977.798        8.191        2.302      343.187       72.441        0.045      344.526       21.403      861.306
06/24/2014  00:34:00     -251.306      -67.746        0.051      148.221      148.871       77.133    21969.453    22162.452     5949.435        5.890        2.504      260.277       84.695        0.106      344.486       21.337      861.307
06/24/2014  00:35:00     -266.364      -59.192      -16.578      101.141       84.949       55.759    10229.431     7216.381     3109.039        4.764        1.028      272.862       50.944        0.035      344.464       21.298      861.309
06/24/2014  00:36:00     -216.020      -93.231        0.258      128.914       89.717       54.354    16618.868     8049.078     2954.390        4.148        1.381      235.280       65.975        0.079      344.447       21.269      861.308
06/24/2014  00:37:00     -410.334      -40.370      -28.797      143.626       78.785       61.557    20628.303     6207.008     3789.209       10.072        1.531      412.315       66.099        0.026      344.506       21.370      861.297
06/24/2014  00:38:00     -224.702      -31.085      -11.260      111.124       74.385       40.372    12348.465     5533.093     1629.923        3.554        0.976      226.842       49.306        0.047      344.441       21.258      861.292
06/24/2014  00:39:00     -219.148      -39.921      -17.063      106.084       69.093       54.069    11253.742     4773.815     2923.478        3.443        0.948      222.754       56.173        0.064      344.443       21.263      861.271
06/24/2014  00:40:00     -174.436      -43.795       -2.853       90.793       61.934       36.265     8243.326     3835.789     1315.165        2.287        0.670      179.850       37.993        0.045      344.416       21.218      861.264
06/24/2014  00:41:00     -234.675      -67.348       -9.762      138.680       91.468       43.795    19232.043     8366.468     1918.026        4.460        1.476      244.147       39.386        0.026      344.373       21.141      861.251
06/24/2014  00:42:00     -320.995     -133.295      -18.526      104.921       82.787       47.167    11008.412     6853.611     2224.717        7.061        1.004      347.570       35.435        0.010      344.396       21.183      861.229
06/24/2014  00:43:00     -126.504      -54.892        9.896       96.854       70.951       41.386     9380.769     5034.105     1712.774        1.762        0.806      137.900       42.000        0.093      344.366       21.131      861.224
06/24/2014  00:44:00     -224.131      -50.739      -13.526      138.692       80.879       53.389    19235.435     6541.484     2850.344        4.080        1.431      229.803       52.187        0.052      344.393       21.177      861.216
06/24/2014  00:45:00     -337.923      -45.187      -18.469      135.262      108.346       60.152    18295.734    11738.920     3618.291        7.511        1.683      340.931       55.760        0.027      344.365       21.129      861.220
06/24/2014  00:46:00     -246.112     -125.925       -7.901       87.186       83.580       50.065     7601.483     6985.606     2506.474        4.679        0.855      276.456       40.595        0.022      344.399       21.186      861.236
06/24/2014  00:47:00      -60.417      -36.986       15.694      111.101       72.805       68.777    12343.422     5300.575     4730.229        1.381        1.119       70.840       65.079        0.844      344.357       21.118      861.226
06/24/2014  00:48:00     -160.123      -34.668       -6.726      116.741       76.117       51.474    13628.396     5793.751     2649.572        2.447        1.104      163.833       49.590        0.092      344.318       21.050      861.235
06/24/2014  00:49:00     -174.987      -67.678       -2.238       87.088       53.551       37.959     7584.298     2867.696     1440.868        2.355        0.595      187.619       35.940        0.037      344.313       21.041      861.246
06/24/2014  00:50:00     -259.749       17.960      -11.277      105.414       90.851       38.929    11112.031     8253.848     1515.432        4.440        1.044      260.369       43.394        0.028      344.339       21.084      861.237
06/24/2014  00:51:00     -183.713       -5.112        1.485       84.331       79.702       48.752     7111.675     6352.406     2376.767        2.481        0.792      183.784       47.386        0.066      344.287       20.997      861.244
06/24/2014  00:52:00     -264.030      -15.177       -5.754      115.847      104.882       51.271    13420.637    11000.308     2628.702        4.851        1.352      264.466       52.837        0.040      344.366       21.131      861.248
06/24/2014  00:53:00     -390.485      -62.954      -35.462      109.910       85.156       62.519    12080.242     7251.533     3908.685        9.047        1.162      395.527       55.916        0.020      344.429       21.237      861.252
06/24/2014  00:54:00     -277.015      -21.222      -22.197       73.669       92.469       44.742     5427.164     8550.537     2001.853        4.683        0.799      277.826       32.506        0.014      344.408       21.202      861.249
06/24/2014  00:55:00     -224.717      -10.861      -20.624       64.428       45.763       35.939     4151.030     2094.246     1291.622        2.929        0.377      224.979       32.076        0.020      344.361       21.122      861.243
06/24/2014  00:56:00     -191.841      -63.847      -14.092       49.094       47.928       27.278     2410.240     2297.106      744.106        2.326        0.273      202.186       24.518        0.015      344.314       21.043      861.239
06/24/2014  00:57:00     -203.600      -30.724      -15.264       88.331       70.481       39.418     7802.285     4967.617     1553.784        2.847        0.716      205.905       46.780        0.052      344.297       21.013      861.252
06/24/2014  00:58:00     -186.830      -34.513      -14.715       67.633       61.861       34.225     4574.255     3826.731     1171.354        2.294        0.479      189.991       21.648        0.013      344.257       20.945      861.249
06/24/2014  00:59:00     -213.008      -50.382      -17.195       69.713       58.445       40.496     4859.853     3415.765     1639.953        2.906        0.496      218.885       30.899        0.020      344.226       20.890      861.230
06/24/2014  01:00:00     -240.814      -38.526      -24.140       93.655       73.396       38.143     8771.188     5386.979     1454.858        3.783        0.781      243.877       36.830        0.023      344.367       21.132      861.227
06/24/2014  01:01:00     -210.135      -44.853      -12.735       86.724       69.200       43.285     7521.058     4788.605     1873.568        3.025        0.709      214.869       39.107        0.033      344.246       20.927      861.225
06/24/2014  01:02:00     -274.389        0.175      -22.116      111.618       99.348       47.668    12458.642     9870.076     2272.271        5.018        1.230      274.389       50.233        0.034      344.366       21.131      861.231
06/24/2014  01:03:00     -258.193      -36.125      -20.610       64.264       68.635       36.925     4129.925     4710.823     1363.482        3.930        0.510      260.708       32.802        0.016      344.344       21.092      861.214
06/24/2014  01:04:00     -313.918      -81.313      -26.555       82.613       77.433       37.509     6824.856     5995.804     1406.917        6.004        0.711      324.278       38.989        0.014      344.463       21.296      861.208
06/24/2014  01:05:00     -211.250      -42.137      -26.494       54.174       56.114       33.969     2934.777     3148.825     1153.862        2.717        0.362      215.411       16.954        0.006      344.503       21.365      861.214
06/24/2014  01:06:00     -199.210      -35.872      -24.955       39.303       63.423       33.413     1544.727     4022.511     1116.410        2.414        0.334      202.414       25.230        0.016      344.367       21.131      861.238
06/24/2014  01:07:00     -182.249      -39.998      -14.957       49.751       52.082       40.385     2475.198     2712.496     1630.988        2.093        0.341      186.586       27.062        0.021      344.335       21.079      861.264
06/24/2014  01:08:00     -268.025      -31.348      -23.207       93.322       79.494       47.338     8709.023     6319.288     2240.872        4.531        0.863      269.852       45.971        0.029      344.360       21.119      861.282
06/24/2014  01:09:00     -201.520      -81.213       -7.746      100.561       58.894       39.361    10112.461     3468.497     1549.296        3.119        0.757      217.269       41.398        0.036      344.378       21.151      861.276
06/24/2014  01:10:00     -179.898      -38.677       -5.492      115.251       68.167       53.401    13282.855     4646.766     2851.706        2.733        1.039      184.009       51.508        0.078      344.311       21.039      861.269
06/24/2014  01:11:00     -245.116      -85.265       -7.650      134.048       92.993       46.458    17968.849     8647.678     2158.390        4.809        1.439      259.523       52.140        0.040      344.330       21.068      861.252
06/24/2014  01:12:00     -194.058      -32.332       -0.336       82.951       92.850       46.406     6880.816     8621.171     2153.532        2.818        0.883      196.733       37.723        0.037      344.341       21.088      861.248
06/24/2014  01:13:00     -146.161      -88.717        2.170       73.151       62.317       41.040     5351.078     3883.391     1684.298        2.008        0.546      170.978       32.853        0.037      344.284       20.991      861.238
06/24/2014  01:14:00     -134.678     -122.966       -1.717       75.627       49.737       43.401     5719.414     2473.722     1883.621        2.167        0.504      182.370       43.272        0.056      344.270       20.966      861.243
06/24/2014  01:15:00      -70.322      -14.395        6.567       75.412       73.170       36.392     5686.987     5353.835     1324.351        0.878        0.618       71.780       26.158        0.133      344.287       20.997      861.230
06/24/2014  01:16:00     -322.422       -9.346      -24.948       99.667       99.347       51.909     9933.506     9869.780     2694.587        6.358        1.125      322.557       47.458        0.022      344.442       21.259      861.235
06/24/2014  01:17:00     -310.273      -88.608      -19.173      125.927      106.173       59.538    15857.637    11272.717     3544.787        6.758        1.534      322.677       56.870        0.031      344.408       21.200      861.274
06/24/2014  01:18:00     -217.158      -24.991        1.646      135.891      103.816       50.415    18466.460    10777.835     2541.644        3.978        1.589      218.592       69.321        0.101      344.348       21.099      861.291
06/24/2014  01:19:00     -123.872        0.077       12.013       95.350       68.250       49.108     9091.566     4658.048     2411.626        1.582        0.808      123.872       47.328        0.146      344.332       21.075      861.297
06/24/2014  01:20:00     -295.630      -92.378      -17.131      102.128       81.828       47.626    10430.206     6695.763     2268.236        5.781        0.970      309.727       45.017        0.021      344.492       21.346      861.296
06/24/2014  01:21:00     -221.029     -153.469      -19.491      107.670       92.903       51.266    11592.794     8630.903     2628.252        4.781        1.143      269.085       45.288        0.028      344.450       21.275      861.302
06/24/2014  01:22:00     -287.721     -209.699        5.548      155.281      129.043       82.044    24112.256    16652.072     6731.198        8.713        2.375      356.030       81.803        0.053      344.515       21.384      861.292
06/24/2014  01:23:00     -312.817      -74.731      -16.870      125.626       91.390       57.152    15781.820     8352.072     3266.304        6.556        1.370      321.620       54.808        0.029      344.511       21.377      861.286
06/24/2014  01:24:00     -301.780      -27.346      -24.863      135.107      107.424       61.935    18253.798    11539.862     3835.947        6.303        1.681      303.017       74.897        0.061      344.499       21.358      861.302
06/24/2014  01:25:00     -257.758      -94.739       -1.681      160.760      186.598       73.357    25843.799    34818.977     5381.254        7.072        3.302      274.617       74.227        0.073      344.510       21.377      861.298
06/24/2014  01:26:00     -280.997      -70.657      -21.404      140.140      121.466       64.286    19639.214    14754.099     4132.686        6.146        1.926      289.744       68.059        0.055      344.470       21.308      861.314
06/24/2014  01:27:00     -216.473       -3.022        1.160      106.338       88.202       48.656    11307.819     7779.655     2367.448        3.416        1.073      216.494       51.781        0.057      344.399       21.187      861.334
06/24/2014  01:28:00     -274.243      -77.067       -7.170      136.689      101.345       60.655    18683.964    10270.817     3679.054        5.691        1.632      284.866       59.144        0.043      344.432       21.242      861.348
06/24/2014  01:29:00     -365.866      -18.358      -18.187      139.342      123.007       54.737    19416.212    15130.685     2996.146        8.603        1.877      366.326       63.808        0.030      344.499       21.358      861.343
06/24/2014  01:30:00     -241.814      -52.343       -7.120      107.310      105.431       51.692    11515.417    11115.790     2672.088        4.328        1.265      247.415       47.648        0.037      344.413       21.210      861.354
06/24/2014  01:31:00     -235.275      -63.952       -9.782      100.204       86.326       50.078    10040.818     7452.171     2507.800        3.977        1.000      243.812       55.270        0.051      344.384       21.158      861.360
06/24/2014  01:32:00     -166.074      -90.020        8.104      114.643       96.180       49.208    13143.037     9250.539     2421.474        3.028        1.241      188.902       60.674        0.103      344.303       21.024      861.372
06/24/2014  01:33:00     -226.630      -55.590       -4.423      147.826       82.365       51.189    21852.667     6783.990     2620.264        4.286        1.563      233.348       63.876        0.075      344.319       21.051      861.372
06/24/2014  01:34:00     -193.174      -13.709        1.533      106.546       62.596       48.405    11352.142     3918.292     2343.029        2.756        0.881      193.660       47.442        0.060      344.298       21.016      861.365
06/24/2014  01:35:00     -167.892      -71.079       11.861      142.285       97.774       58.821    20244.977     9559.749     3459.890        3.332        1.663      182.318       71.925        0.156      344.297       21.013      861.369
06/24/2014  01:36:00     -190.813      -61.775        2.312       98.202       91.392       44.496     9643.573     8352.416     1979.930        3.010        0.999      200.563       40.537        0.041      344.306       21.028      861.378
06/24/2014  01:37:00     -241.310       -8.141      -15.796       97.174      102.585       52.003     9442.856    10523.748     2704.359        4.060        1.134      241.448       43.057        0.032      344.284       20.990      861.390
06/24/2014  01:38:00     -328.089       16.606      -31.247      107.032       88.552       63.176    11455.854     7841.416     3991.251        6.609        1.164      328.509       57.562        0.031      344.337       21.080      861.390
06/24/2014  01:39:00     -217.849      -13.639       -2.811      119.237       93.945       55.351    14217.409     8825.658     3063.732        3.687        1.305      218.276       58.603        0.072      344.259       20.950      861.385
06/24/2014  01:40:00     -327.379     -125.178      -21.455      109.690       97.328       61.125    12031.973     9472.718     3736.209        7.427        1.262      350.495       62.093        0.031      344.345       21.093      861.379
06/24/2014  01:41:00     -377.764      -62.447      -12.745      158.844      109.247       72.183    25231.556    11934.861     5210.415        9.456        2.119      382.890       75.365        0.039      344.393       21.177      861.350
06/24/2014  01:42:00     -285.183      -32.948       -7.269      101.944       96.471       54.534    10392.555     9306.650     2973.961        5.257        1.134      287.080       52.347        0.033      344.328       21.064      861.365
06/24/2014  01:43:00     -265.929       25.299      -25.890       81.473       75.327       43.714     6637.871     5674.148     1910.896        4.312        0.711      267.130       34.567        0.017      344.318       21.048      861.353
06/24/2014  01:44:00      -89.589      -35.190       25.670      108.280       79.542       53.089    11724.583     6326.979     2818.416        1.539        1.043       96.252       57.181        0.353      344.232       20.903      861.351
06/24/2014  01:45:00      -88.823       -7.976       10.307       83.917       82.554       44.162     7042.036     6815.122     1950.279        1.193        0.790       89.181       45.702        0.263      344.219       20.882      861.348
06/24/2014  01:46:00     -123.967      -28.921        7.777      108.884       90.359       54.664    11855.703     8164.756     2988.152        1.963        1.150      127.296       48.594        0.146      344.290       21.003      861.322
06/24/2014  01:47:00     -182.330      -30.077        2.236      116.304       70.961       52.463    13526.700     5035.515     2752.371        2.773        1.066      184.794       57.615        0.097      344.237       20.910      861.324
06/24/2014  01:48:00     -287.178      -60.655      -26.700      109.848      115.083       55.953    12066.616    13243.991     3130.745        5.765        1.422      293.513       46.803        0.025      344.317       21.047      861.330
06/24/2014  01:49:00     -262.052      -42.886       -7.025      175.771       91.499       55.727    30895.327     8372.069     3105.452        5.646        2.119      265.538       72.417        0.074      344.305       21.026      861.337
06/24/2014  01:50:00     -241.877     -152.953      -15.995      131.481       91.151       57.872    17287.369     8308.485     3349.132        5.554        1.447      286.180       56.518        0.039      344.369       21.135      861.325
06/24/2014  01:51:00     -379.519      -67.265       -8.046      215.001      128.439       84.565    46225.329    16496.584     7151.268       10.923        3.494      385.434      109.725        0.081      344.365       21.128      861.338
06/24/2014  01:52:00     -181.461       44.297        2.016      120.562       78.498       50.922    14535.223     6161.865     2593.054        2.909        1.165      186.790       49.540        0.070      344.271       20.970      861.358
06/24/2014  01:53:00      -84.827      -31.516       12.108       80.620       68.109       41.812     6499.554     4638.859     1748.222        1.061        0.644       90.493       30.991        0.117      344.210       20.866      861.355
06/24/2014  01:54:00      -46.745       -0.573       15.744       83.161       69.152       53.336     6915.832     4781.975     2844.755        0.849        0.727       46.748       53.731        1.321      344.190       20.834      861.359
06/24/2014  01:55:00     -128.904        7.306       -2.568       70.825       64.168       30.162     5016.248     4117.554      909.772        1.336        0.502      129.111       29.556        0.052      344.272       20.972      861.353
06/24/2014  01:56:00     -267.376        2.979       -6.182      175.110      113.773       53.492    30663.573    12944.188     2861.367        5.899        2.323      267.393       66.043        0.061      344.283       20.989      861.365
06/24/2014  01:57:00     -178.248       -4.553       -5.550      160.132       83.265       43.698    25642.282     6933.040     1909.480        3.315        1.724      178.307       44.641        0.063      344.290       21.002      861.341
06/24/2014  01:58:00     -252.355      -25.982      -13.281       87.004       57.079       40.509     7569.753     3257.992     1641.019        3.850        0.623      253.689       44.980        0.031      344.336       21.079      861.339
06/24/2014  01:59:00      -85.316      -40.787        2.939      109.410       70.514       46.812    11970.575     4972.160     2191.374        1.404        0.957       94.564       52.824        0.312      344.165       20.789      861.369
06/24/2014  02:00:00     -200.978      -18.505      -12.609      110.292       94.541       40.684    12164.313     8938.048     1655.158        3.182        1.138      201.828       45.736        0.051      344.256       20.943      861.365
06/24/2014  02:01:00      -82.105      -17.925        9.489      123.655       83.381       48.180    15290.622     6952.351     2321.345        1.585        1.228       84.039       62.969        0.561      344.224       20.891      861.342
06/24/2014  02:02:00      -45.190       38.749       13.301       68.894       58.381       34.193     4746.387     3408.365     1169.129        0.652        0.466       59.529       31.910        0.287      344.171       20.800      861.303
06/24/2014  02:03:00     -195.605      -60.954       -9.852       88.180       85.291       37.298     7775.657     7274.475     1391.155        2.925        0.822      204.882       34.169        0.028      344.206       20.858      861.327
06/24/2014  02:04:00      -39.460      -41.562       27.150       94.486       77.849       48.283     8927.522     6060.528     2331.265        1.067        0.866       57.310       61.519        1.152      344.199       20.846      861.332
06/24/2014  02:05:00     -136.622        4.291      -11.729       65.315      107.938       37.452     4266.056    11650.611     1402.659        1.807        0.866      136.690       33.347        0.060      344.227       20.895      861.322
06/24/2014  02:06:00     -116.143      -46.680      -12.086      128.672       50.495       45.849    16556.574     2549.768     2102.124        1.851        1.060      125.172       56.420        0.203      344.215       20.874      861.316
06/24/2014  02:07:00     -141.612      -64.885        0.460       78.795       55.432       33.551     6208.605     3072.732     1125.675        1.733        0.520      155.769       34.243        0.048      344.142       20.750      861.331
06/24/2014  02:08:00      -69.367      -43.355       -4.544       60.294       53.019       40.181     3635.399     2811.022     1614.526        0.738        0.403       81.801       30.821        0.142      344.224       20.890      861.309
06/24/2014  02:09:00      -84.642       14.694       -3.590       59.210       39.347       26.017     3505.792     1548.222      676.901        0.656        0.287       85.908       25.529        0.088      344.195       20.844      861.295
06/24/2014  02:10:00     -404.086       -6.459      -43.248      140.083      123.977       53.889    19623.172    15370.316     2904.068       10.154        1.895      404.137       58.883        0.021      344.254       20.938      861.317
06/24/2014  02:11:00     -193.446      -39.775        3.180       98.005       71.745       48.394     9604.935     5147.378     2341.958        2.805        0.855      197.493       43.891        0.049      344.108       20.690      861.350
06/24/2014  02:12:00     -125.803      -60.689       20.859      106.305       91.854       57.021    11300.663     8437.209     3251.434        2.146        1.149      139.677       59.418        0.181      344.145       20.754      861.345
06/24/2014  02:13:00     -164.262      -39.681      -12.611      109.815       89.303       45.671    12059.319     7975.027     2085.809        2.541        1.106      168.987       53.630        0.101      344.133       20.732      861.356
06/24/2014  02:14:00     -262.389      -72.359      -18.617       84.803       88.712       40.647     7191.522     7869.810     1652.147        4.557        0.836      272.183       42.578        0.024      344.164       20.786      861.366
06/24/2014  02:15:00     -118.039        2.886        8.149       81.620       57.265       34.659     6661.851     3279.228     1201.250        1.257        0.557      118.074       39.301        0.111      344.067       20.622      861.386
06/24/2014  02:16:00     -128.454      -11.956       -9.018       63.990       67.664       45.264     4094.728     4578.369     2048.815        1.372        0.536      129.009       35.710        0.077      344.108       20.693      861.392
06/24/2014  02:17:00     -208.271      -66.283        2.926       94.521       77.977       40.889     8934.160     6080.366     1671.893        3.223        0.834      218.564       28.691        0.017      344.108       20.691      861.391
06/24/2014  02:18:00      -90.505       18.563       10.346       77.728       73.472       44.970     6041.713     5398.089     2022.299        1.105        0.673       92.390       38.242        0.171      344.053       20.599      861.367
06/24/2014  02:19:00     -180.226      -14.015       -8.783      112.752       84.454       61.667    12712.985     7132.466     3802.816        2.820        1.182      180.770       61.781        0.117      344.076       20.637      861.360
06/24/2014  02:20:00     -234.210      -47.272       13.641      164.637      104.382       70.351    27105.311    10895.512     4949.256        5.010        2.148      238.933       89.609        0.141      344.076       20.635      861.381
06/24/2014  02:21:00     -213.945      -40.911       -1.433      115.278       95.040       59.200    13288.965     9032.523     3504.679        3.663        1.291      217.821       57.944        0.071      344.128       20.723      861.394
06/24/2014  02:22:00     -231.265      -65.751      -14.614      107.626      106.515       48.594    11583.287    11345.450     2361.403        4.165        1.265      240.430       41.602        0.030      344.186       20.824      861.367
06/24/2014  02:23:00     -284.876      -71.577      -11.077      101.823       97.383       62.777    10368.022     9483.380     3940.955        5.509        1.190      293.731       57.965        0.039      344.126       20.719      861.378
06/24/2014  02:24:00     -222.950     -113.465        2.029      145.068       73.704       50.912    21044.690     5432.339     2591.982        4.582        1.453      250.162       48.398        0.037      344.112       20.698      861.396
06/24/2014  02:25:00     -289.367      -98.596      -11.649      152.033       93.559       62.272    23113.953     8753.236     3877.787        6.466        1.787      305.703       70.659        0.053      344.169       20.795      861.389
06/24/2014  02:26:00     -242.089      -78.526      -12.817      145.546      104.937       51.214    21183.552    11011.879     2622.885        4.987        1.741      254.506       50.901        0.040      344.155       20.771      861.383
06/24/2014  02:27:00     -263.640      -35.903      -15.717      132.997      105.346       47.913    17688.267    11097.822     2295.662        5.106        1.554      266.074       46.338        0.030      344.179       20.812      861.383
06/24/2014  02:28:00     -350.170       -9.172      -27.793      192.169      121.228       55.841    36928.786    14696.261     3118.230        8.910        2.737      350.290       62.686        0.032      344.172       20.799      861.375
06/24/2014  02:29:00     -315.416      -41.506      -14.116      146.513       71.654       54.256    21466.093     5134.316     2943.743        6.547        1.477      318.136       73.974        0.054      344.154       20.768      861.385
06/24/2014  02:30:00     -199.664      -86.534       -2.867       68.320       71.660       38.931     4667.690     5135.109     1515.612        2.934        0.566      217.609       29.012        0.018      344.090       20.658      861.394
06/24/2014  02:31:00     -114.841      -17.367        7.010       52.478       44.279       26.837     2753.901     1960.657      720.225        0.949        0.272      116.147       27.396        0.056      344.030       20.561      861.397
06/24/2014  02:32:00     -165.573      -12.538      -18.952       68.534       70.236       37.076     4696.937     4933.079     1374.611        1.947        0.550      166.048       34.518        0.043      344.106       20.688      861.384
06/24/2014  02:33:00     -101.944      -72.667       12.437       85.308       67.567       40.172     7277.534     4565.310     1613.821        1.464        0.673      125.192       49.059        0.154      344.058       20.607      861.365
06/24/2014  02:34:00      -86.931      -52.648        4.040       63.106       57.549       37.720     3982.386     3311.842     1422.782        0.953        0.436      101.631       30.295        0.089      344.048       20.592      861.364
06/24/2014  02:35:00     -160.263      -84.704        5.574      102.941       77.689       51.256    10596.765     6035.641     2627.138        2.607        0.963      181.270       57.833        0.102      344.079       20.640      861.385
06/24/2014  02:36:00     -124.356       12.636       -7.984       96.903       59.432       34.292     9390.250     3532.170     1175.952        1.489        0.705      124.996       32.882        0.069      344.073       20.631      861.394
06/24/2014  02:37:00     -212.447      -95.198       -9.340       55.706       58.427       33.556     3103.146     3413.758     1125.999        3.096        0.382      232.801       28.656        0.015      344.220       20.879      861.397
06/24/2014  02:38:00      -77.685      -73.830        6.825       76.773       67.911       31.160     5894.054     4611.856      970.946        1.150        0.574      107.172       41.051        0.147      344.166       20.792      861.380
06/24/2014  02:39:00      -91.474      -31.270      -14.393       38.893       45.711       21.367     1512.676     2089.463      456.549        0.680        0.203       96.671       18.373        0.036      344.164       20.788      861.382
06/24/2014  02:40:00      -62.113      -62.730       -7.811       29.018       47.778       28.340      842.024     2282.723      803.156        0.589        0.196       88.278       17.967        0.041      344.206       20.860      861.381
06/24/2014  02:41:00      -49.461      -40.274        0.016       28.113       22.405       15.434      790.368      501.982      238.205        0.280        0.077       63.784       13.352        0.044      344.208       20.864      861.366
06/24/2014  02:42:00      -69.190      -27.362        1.603       93.398       57.251       24.626     8723.104     3277.728      606.432        0.907        0.630       74.404       37.858        0.259      344.223       20.890      861.366
06/24/2014  02:43:00     -121.457      -13.491      -10.412       70.084       34.302       33.763     4911.811     1176.618     1139.911        1.113        0.361      122.204       38.586        0.100      344.204       20.855      861.371
06/24/2014  02:44:00     -156.835      -22.285       -8.863       97.976       77.726       40.926     9599.356     6041.363     1674.914        2.124        0.866      158.411       55.006        0.121      344.119       20.710      861.382
06/24/2014  02:45:00     -221.884       -2.925      -18.468       79.028       81.123       29.329     6245.431     6580.937      860.187        3.163        0.684      221.903       30.239        0.019      344.166       20.790      861.399
06/24/2014  02:46:00     -259.144      -30.441      -25.412       87.826       75.381       35.982     7713.350     5682.339     1294.731        4.171        0.735      260.925       39.877        0.023      344.127       20.722      861.419
06/24/2014  02:47:00     -164.378      -39.389       -8.223       61.385       54.793       37.535     3768.120     3002.251     1408.871        1.841        0.409      169.032       31.949        0.036      344.114       20.701      861.418
06/24/2014  02:48:00     -144.807       26.352       -6.970       66.249       57.139       33.963     4388.869     3264.877     1153.499        1.526        0.440      147.185       21.916        0.022      344.132       20.732      861.420
06/24/2014  02:49:00     -135.235      -26.109       -5.036       59.039       36.523       26.693     3485.619     1333.899      712.535        1.226        0.277      137.732       20.713        0.023      344.155       20.773      861.420
06/24/2014  02:50:00     -165.598       -6.539       -4.273       60.380       59.359       29.883     3645.743     3523.447      892.978        1.777        0.403      165.727       25.730        0.024      344.079       20.641      861.446
06/24/2014  02:51:00     -136.595      -32.589       -9.429      123.150       47.681       39.151    15165.862     2273.458     1532.793        1.939        0.949      140.429       54.306        0.150      344.051       20.595      861.443
06/24/2014  02:52:00      -32.782      -24.944       -0.796       41.665       50.987       23.709     1735.952     2599.632      562.124        0.330        0.245       41.193       15.857        0.148      344.027       20.555      861.425
06/24/2014  02:53:00     -161.313      -36.107       -4.005       73.838       46.043       35.068     5451.978     2119.944     1229.742        1.807        0.440      165.305       33.645        0.041      344.062       20.613      861.427
06/24/2014  02:54:00     -114.048      -34.253        8.471       85.146       63.439       34.724     7249.910     4024.507     1205.776        1.336        0.624      119.081       39.653        0.111      343.934       20.395      861.420
06/24/2014  02:55:00     -249.381      -16.353      -15.252       51.895       76.394       44.403     2693.081     5836.052     1971.597        3.659        0.525      249.917       25.933        0.011      344.024       20.543      861.420
06/24/2014  02:56:00     -249.880       13.470       -6.133      115.860       89.858       37.181    13423.476     8074.447     1382.452        4.277        1.144      250.243       42.939        0.029      344.069       20.623      861.417
06/24/2014  02:57:00     -158.947      -10.315       -7.356       60.356       54.078       26.825     3642.887     2924.455      719.565        1.635        0.364      159.282       26.039        0.027      344.023       20.546      861.417
06/24/2014  02:58:00     -180.761      -34.489      -15.307       59.796       63.379       33.898     3575.595     4016.843     1149.103        2.142        0.437      184.022       24.346        0.018      344.039       20.573      861.425
06/24/2014  02:59:00     -225.657      -14.852      -17.149       73.655       57.368       34.976     5425.052     3291.104     1223.335        3.069        0.497      226.145       40.422        0.032      344.064       20.614      861.442
06/24/2014  03:00:00     -120.400      -12.032       -7.215       43.570       39.345       24.728     1898.349     1547.992      611.488        0.937        0.203      121.000       23.734        0.038      343.916       20.365      861.439
06/24/2014  03:01:00      -99.182      -26.106       -3.718       68.430       39.069       27.352     4682.621     1526.349      748.149        0.874        0.348      102.560       35.361        0.119      343.881       20.306      861.434
06/24/2014  03:02:00     -122.975      -31.440       -7.809       44.112       30.498       22.896     1945.909      930.152      524.224        0.979        0.170      126.931       21.793        0.029      343.958       20.436      861.422
06/24/2014  03:03:00     -161.032      -24.806       -4.749       64.371       45.609       28.613     4143.580     2080.137      818.724        1.680        0.352      162.931       30.547        0.035      343.927       20.384      861.413
06/24/2014  03:04:00     -209.940      -59.838      -17.295       68.343       57.622       34.954     4670.809     3320.285     1221.768        2.858        0.461      218.301       32.756        0.023      343.967       20.448      861.400
06/24/2014  03:05:00     -144.129      -47.146       -5.055       76.144       48.439       31.864     5797.902     2346.304     1015.286        1.609        0.458      151.644       33.600        0.049      343.881       20.303      861.384
06/24/2014  03:06:00      -53.759      -44.645       12.929       53.662       53.438       31.115     2879.607     2855.572      968.150        0.588        0.335       69.880       31.643        0.205      343.867       20.282      861.373
06/24/2014  03:07:00     -175.081      -17.269       -4.120       89.204       73.403       45.095     7957.416     5387.977     2033.518        2.317        0.769      175.930       45.040        0.066      343.878       20.299      861.362
06/24/2014  03:08:00     -120.687      -13.003       -4.927      109.898       76.925       34.611    12077.484     5917.464     1197.934        1.697        0.960      121.386       51.251        0.178      343.859       20.266      861.348
06/24/2014  03:09:00     -150.552      -88.598       -6.814       58.221       54.657       32.243     3389.647     2987.397     1039.612        1.899        0.371      174.687       31.765        0.033      343.938       20.401      861.349
06/24/2014  03:10:00     -112.715      -64.163        0.694       56.598       47.213       25.973     3203.376     2229.108      674.587        1.146        0.305      129.698       26.893        0.043      343.864       20.276      861.354
06/24/2014  03:11:00      -92.431      -48.194       -0.729       41.793       27.627       18.403     1746.669      763.243      338.676        0.686        0.142      104.241       20.958        0.040      343.837       20.230      861.370
06/24/2014  03:12:00      -47.135     -101.038       -1.927       67.729       39.095       23.194     4587.265     1528.428      537.975        0.954        0.333      111.492       16.157        0.021      343.939       20.405      861.393
06/24/2014  03:13:00      -30.343     -118.152        5.609       22.407       25.524       12.614      502.069      651.479      159.123        0.811        0.066      121.987       10.238        0.007      344.007       20.519      861.397
06/24/2014  03:14:00       33.936      -38.325       17.892       47.270       31.629       22.476     2234.475     1000.395      505.182        0.334        0.187       51.190       21.438        0.175      343.441       19.555      861.404
06/24/2014  03:15:00       56.124      -22.893        2.873       37.766       37.091       27.294     1426.296     1375.745      744.970        0.361        0.177       60.614       26.261        0.188      342.860       18.566      861.406
06/24/2014  03:16:00       58.250        3.422       20.639       51.193       34.348       28.367     2620.722     1179.808      804.692        0.422        0.230       58.351       28.988        0.247      342.751       18.379      861.398
06/24/2014  03:17:00       25.682       13.877       31.349       39.026       36.608       29.316     1523.063     1340.181      859.426        0.278        0.186       29.192       29.777        1.040      342.790       18.447      861.393
06/24/2014  03:18:00       67.700      -15.117        3.198       45.286       38.949       31.498     2050.848     1517.050      992.144        0.469        0.228       69.368       26.269        0.143      342.895       18.624      861.403
06/24/2014  03:19:00       49.873      -10.825       16.473       56.214       39.244       34.572     3160.000     1540.110     1195.201        0.438        0.295       51.035       30.393        0.355      342.817       18.493      861.412
06/24/2014  03:20:00       40.880      -34.179       10.420       46.131       54.108       30.005     2128.074     2927.629      900.277        0.445        0.298       53.286       30.154        0.320      342.908       18.647      861.432
06/24/2014  03:21:00       52.477       15.976       33.502       51.792       55.130       37.878     2682.442     3039.272     1434.728        0.564        0.358       54.855       31.743        0.335      342.845       18.539      861.423
06/24/2014  03:22:00       54.566       73.646       65.693       52.561       68.503       44.198     2762.688     4692.626     1953.494        1.106        0.470       91.658       29.180        0.101      342.999       18.803      861.408
06/24/2014  03:23:00       17.219       65.104       99.878       49.712       51.042       26.153     2471.327     2605.261      683.990        1.013        0.288       67.342       23.108        0.118      342.872       18.586      861.411
06/24/2014  03:24:00       35.176      -25.787       33.292       53.698       44.998       37.996     2883.486     2024.865     1443.705        0.468        0.318       43.616       36.731        0.709      342.601       18.124      861.434
06/24/2014  03:25:00       93.871      -86.957        6.517       53.100       35.392       31.158     2819.566     1252.588      970.832        1.073        0.252      127.958       30.308        0.056      342.900       18.634      861.476
06/24/2014  03:26:00       88.982      -55.175       17.223       38.115       36.213       27.517     1452.790     1311.389      757.197        0.739        0.176      104.700       22.698        0.047      342.989       18.785      861.501
06/24/2014  03:27:00       54.420      -21.558       27.252       33.273       35.884       26.309     1107.125     1287.645      692.165        0.363        0.154       58.534       23.810        0.165      342.701       18.294      861.494
06/24/2014  03:28:00       51.969       26.909       46.841       38.939       41.309       35.667     1516.229     1706.439     1272.105        0.506        0.225       58.523       28.571        0.238      342.460       17.884      861.467
06/24/2014  03:29:00       15.692       46.749       55.009       49.407       45.005       40.875     2441.011     2025.489     1670.796        0.580        0.307       49.313       36.496        0.548      342.613       18.145      861.458
06/24/2014  03:30:00       27.379       39.523       47.665       50.857       45.145       32.564     2586.435     2038.097     1060.440        0.513        0.284       48.079       27.109        0.318      342.846       18.542      861.463
06/24/2014  03:31:00       19.073      -26.565       -1.630       31.964       34.488       27.006     1021.685     1189.444      729.330        0.201        0.147       32.702       12.185        0.139      342.742       18.364      861.495
06/24/2014  03:32:00      -43.365        0.705        2.048       25.018       29.592       13.964      625.887      875.699      194.992        0.179        0.085       43.371       13.462        0.096      342.693       18.281      861.516
06/24/2014  03:33:00      -79.263       29.213        5.803       16.199       14.515       13.774      262.409      210.678      189.712        0.392        0.033       84.474        5.296        0.004      342.756       18.389      861.512
06/24/2014  03:34:00      -85.512        4.707       -2.125       20.605       16.337       11.830      424.560      266.908      139.946        0.409        0.042       85.642       11.433        0.018      342.897       18.629      861.516
06/24/2014  03:35:00      -98.703      -14.127       -8.650       24.960       14.262       13.521      623.001      203.396      182.816        0.551        0.050       99.709       12.294        0.015      342.961       18.739      861.508
06/24/2014  03:36:00      -31.395       20.972       -7.961       25.756       21.719        8.904      663.384      471.704       79.284        0.135        0.061       37.755       13.027        0.119      343.090       18.957      861.487
06/24/2014  03:37:00       30.424       18.562        3.543       40.445       19.269       16.338     1635.810      371.284      266.924        0.178        0.114       35.640       20.591        0.334      343.109       18.990      861.450
06/24/2014  03:38:00       -6.084      -52.410        3.726       68.122       44.869       26.661     4640.633     2013.261      710.823        0.508        0.368       52.762       24.200        0.210      342.803       18.469      861.447
06/24/2014  03:39:00     -186.650     -154.062       -8.217       62.899       47.587       36.505     3956.246     2264.487     1332.620        3.310        0.378      242.019       29.483        0.015      343.127       19.015      861.454
06/24/2014  03:40:00     -185.055     -125.208       -5.520       99.063       56.909       37.149     9813.420     3238.678     1380.030        3.219        0.722      223.433       37.550        0.028      343.132       19.024      861.471
06/24/2014  03:41:00      -64.442      -44.716        6.923       48.391       34.561       29.626     2341.680     1194.428      877.727        0.531        0.221       78.437       29.836        0.145      343.099       18.973      861.447
06/24/2014  03:42:00      -17.218     -133.749       18.445       46.274       74.528       37.867     2141.251     5554.417     1433.902        1.383        0.456      134.853       30.138        0.050      343.675       19.953      861.421
06/24/2014  03:43:00      -68.473      -21.259       19.624       69.059       64.854       42.250     4769.211     4206.080     1785.069        0.814        0.538       71.697       37.325        0.271      343.742       20.071      861.407
06/24/2014  03:44:00      -95.460      -61.615       -4.150       49.349       41.939       28.313     2435.358     1758.879      801.650        0.896        0.250      113.618       26.867        0.056      343.017       18.833      861.445
06/24/2014  03:45:00     -107.644      -59.022       -3.875       52.284       43.202       27.811     2733.586     1866.404      773.437        1.023        0.269      122.763       27.170        0.049      343.140       19.042      861.447
06/24/2014  03:46:00      -92.360      -42.077        6.711       54.709       43.936       24.950     2993.036     1930.331      622.484        0.794        0.277      101.493       28.466        0.079      343.021       18.839      861.458
06/24/2014  03:47:00      -60.773      -18.144        2.654       50.214       40.383       24.255     2521.467     1630.795      588.305        0.438        0.237       63.424       23.870        0.142      342.865       18.574      861.467
06/24/2014  03:48:00      -63.063       -0.616      -13.380       18.896       26.385       10.797      357.054      696.192      116.573        0.266        0.058       63.066        9.403        0.022      342.972       18.755      861.452
06/24/2014  03:49:00      -90.386      -37.858       -7.387       40.925       23.347       16.340     1674.816      545.102      267.007        0.607        0.124       97.994        8.103        0.007      342.912       18.652      861.465
06/24/2014  03:50:00      -76.251      -41.721       -6.735       20.080       15.499        8.931      403.196      240.208       79.771        0.416        0.036       86.919        7.702        0.008      342.854       18.557      861.473
06/24/2014  03:51:00      -52.628       24.560       -0.761       28.900       19.903       16.608      835.185      396.119      275.815        0.244        0.075       58.077        6.922        0.014      342.805       18.473      861.469
06/24/2014  03:52:00       -4.911       10.251       11.089       20.525       25.202       12.605      421.268      635.161      158.896        0.073        0.061       11.367       12.484        1.206      342.751       18.380      861.457
06/24/2014  03:53:00      -74.436      -42.715       -3.764       35.250       26.757       17.248     1242.529      715.939      297.486        0.482        0.113       85.822       11.938        0.019      342.897       18.627      861.470
06/24/2014  03:54:00        0.584       15.703        5.345       16.504       12.433       12.210      272.376      154.571      149.095        0.043        0.029       15.714        6.113        0.151      342.712       18.313      861.462
06/24/2014  03:55:00      -38.624       33.845       -2.552       38.416       23.573       20.767     1475.819      555.690      431.272        0.255        0.123       51.355       18.945        0.136      342.759       18.394      861.461
06/24/2014  03:56:00      -64.012       26.872       -6.240       23.391       13.610       12.690      547.156      185.229      161.026        0.288        0.045       69.424        8.905        0.016      342.913       18.656      861.464
06/24/2014  03:57:00      -23.351        2.819       -4.820       10.644        7.299       10.716      113.303       53.280      114.839        0.043        0.014       23.521        7.691        0.107      342.834       18.524      861.456
06/24/2014  03:58:00       -1.847       -8.827        4.338       11.569       11.026       12.684      133.846      121.574      160.879        0.026        0.021        9.018        9.223        1.046      342.724       18.332      861.455
06/24/2014  03:59:00      -35.585        2.686       -2.761       37.616       16.510       12.912     1414.948      272.565      166.711        0.157        0.093       35.686       12.435        0.121      342.539       18.021      861.462
06/24/2014  04:00:00     -136.302        8.146      -16.928       35.538       22.634       13.903     1262.914      512.318      193.293        1.045        0.098      136.545       15.604        0.013      342.571       18.071      861.476
06/24/2014  04:01:00     -145.052      -13.674      -16.458       38.921       28.202       18.691     1514.832      795.360      349.363        1.208        0.133      145.696       19.170        0.017      342.534       18.011      861.478
06/24/2014  04:02:00      -70.129      -17.361       -8.922       38.997       23.716       16.209     1520.727      562.450      262.741        0.382        0.117       72.246       18.427        0.065      342.532       18.007      861.466
06/24/2014  04:03:00      -38.484       -3.690        2.832       17.252       14.574       13.925      297.638      212.389      193.908        0.110        0.035       38.661       14.157        0.134      342.601       18.124      861.448
06/24/2014  04:04:00      -80.510       -3.527      -11.563       29.971       22.409       10.363      898.249      502.158      107.385        0.407        0.075       80.587       10.572        0.017      342.679       18.257      861.453
06/24/2014  04:05:00      -88.405      -10.710       -7.691       22.384       19.397       13.691      501.046      376.248      187.431        0.453        0.053       89.051       11.241        0.016      342.606       18.133      861.453
06/24/2014  04:06:00        1.217      -22.552        0.266       57.651       20.318       15.230     3323.655      412.820      231.946        0.224        0.198       22.585       14.907        0.436      342.408       17.798      861.450
06/24/2014  04:07:00      -21.993       -0.297       -0.133       44.907       19.837       12.901     2016.618      393.494      166.424        0.153        0.129       21.995        5.140        0.055      342.357       17.710      861.448
06/24/2014  04:08:00      -62.184       -4.088       -3.076       23.763       25.388       14.320      564.700      644.552      205.060        0.265        0.071       62.319       12.410        0.040      342.495       17.944      861.447
06/24/2014  04:09:00      -82.187      -11.719       -4.653       37.198       29.588       20.127     1383.712      875.423      405.091        0.479        0.133       83.018       15.071        0.033      342.487       17.931      861.454
06/24/2014  04:10:00     -128.735      -14.767      -10.249       26.355       23.808       17.348      694.569      566.819      300.937        0.923        0.078      129.579       13.307        0.011      342.500       17.952      861.461
06/24/2014  04:11:00      -83.248       -8.983       -6.705       31.474       26.719       15.994      990.606      713.910      255.798        0.451        0.098       83.732       18.047        0.046      342.490       17.936      861.460
06/24/2014  04:12:00     -102.503       17.683       -7.867       37.694       20.039       20.288     1420.818      401.549      411.606        0.656        0.112      104.017       17.921        0.030      342.592       18.110      861.463
06/24/2014  04:13:00      -85.718       18.952      -13.287       24.326       23.982       12.771      591.750      575.146      163.106        0.461        0.067       87.788       14.047        0.026      342.546       18.031      861.465
06/24/2014  04:14:00      -68.527        7.952       -3.870       22.464       15.268       11.215      504.612      233.111      125.782        0.282        0.043       68.987        8.309        0.015      342.730       18.344      861.466
06/24/2014  04:15:00      -19.364       15.465        1.930       24.750       19.966       14.291      612.542      398.652      204.244        0.092        0.061       24.781       15.358        0.384      342.566       18.066      861.478
06/24/2014  04:16:00      -38.893       87.364      -12.046       28.430       40.566       19.318      808.289     1645.564      373.179        0.606        0.141       95.630       23.948        0.063      342.722       18.330      861.486
06/24/2014  04:17:00        5.067       39.891       -0.591       21.148       25.602       11.718      447.258      655.468      137.307        0.143        0.062       40.211       10.685        0.071      342.699       18.292      861.500
06/24/2014  04:18:00        5.261        1.790       -7.114       26.673       30.758       14.648      711.460      946.081      214.554        0.098        0.094        5.557       10.827        3.796      342.377       17.744      861.511
06/24/2014  04:19:00        2.262      -13.281        1.170       18.425       13.101       11.625      339.473      171.634      135.135        0.041        0.032       13.472       11.102        0.679      342.347       17.693      861.532
06/24/2014  04:20:00       41.950      -20.536        0.777       25.039       28.980       20.816      626.929      839.815      433.297        0.204        0.095       46.707       11.306        0.059      342.311       17.632      861.539
06/24/2014  04:21:00       14.102      -27.509       -6.336       21.541       18.725       17.534      464.014      350.615      307.425        0.106        0.056       30.913       11.501        0.138      342.206       17.455      861.547
06/24/2014  04:22:00       -3.196       -4.441        0.513       11.938        8.007       11.516      142.515       64.109      132.619        0.018        0.017        5.472        8.674        2.513      342.376       17.742      861.567
06/24/2014  04:23:00       -1.908       -6.257        7.548       19.209        7.456       10.982      368.998       55.589      120.609        0.032        0.027        6.541       11.840        3.276      342.415       17.809      861.572
06/24/2014  04:24:00        8.603       -6.530       10.030       35.612       23.361       21.962     1268.199      545.727      482.336        0.126        0.115       10.800       17.235        2.547      342.078       17.236      861.566
06/24/2014  04:25:00       81.451       69.162       31.971       36.500       21.624       37.073     1332.216      467.584     1374.440        0.781        0.159      106.854       24.064        0.051      342.035       17.164      861.579
06/24/2014  04:26:00       26.765       17.017       27.544       26.064       41.431       31.794      679.325     1716.502     1010.843        0.258        0.170       31.716       33.558        1.120      341.818       16.796      861.603
06/24/2014  04:27:00       -3.468      -24.641       -1.655        8.601       15.804       12.224       73.984      249.770      149.422        0.055        0.024       24.883       10.330        0.172      341.835       16.824      861.613
06/24/2014  04:28:00       40.367      -23.300       -0.551       32.326       15.326       13.733     1044.944      234.874      188.592        0.182        0.073       46.609       12.794        0.075      341.967       17.047      861.614
06/24/2014  04:29:00       59.319      -27.322        4.100       21.905       18.475       20.996      479.845      341.338      440.831        0.277        0.063       65.308       12.964        0.039      341.875       16.892      861.600
06/24/2014  04:30:00       49.929      -12.570        6.591       26.859       21.935       20.545      721.389      481.147      422.092        0.216        0.081       51.487        8.451        0.027      341.805       16.772      861.602
06/24/2014  04:31:00       13.518      -17.216      -14.912       23.548       23.702       21.959      554.528      561.776      482.180        0.115        0.080       21.889       11.541        0.278      341.918       16.964      861.604
06/24/2014  04:32:00       20.171       -3.108      -11.566       24.380       17.383       15.880      594.399      302.154      252.172        0.085        0.057       20.409       11.484        0.317      341.913       16.957      861.593
06/24/2014  04:33:00       26.996       -5.117       -2.381       16.408       18.446       18.486      269.211      340.249      341.734        0.086        0.048       27.476       15.436        0.316      341.865       16.875      861.587
06/24/2014  04:34:00       19.689       31.883       10.038       16.826       16.518       19.876      283.100      272.854      395.052        0.123        0.048       37.472        6.379        0.029      342.066       17.216      861.588
06/24/2014  04:35:00       22.908       -5.990       14.217       22.831       22.331       16.175      521.242      498.660      261.642        0.102        0.064       23.678       11.685        0.244      341.875       16.891      861.591
06/24/2014  04:36:00       15.907      -11.366        0.717       19.477       19.102       15.681      379.361      364.890      245.893        0.069        0.050       19.550       11.876        0.369      341.878       16.895      861.584
06/24/2014  04:37:00        2.465        9.191       -1.078       10.782       12.302        9.539      116.252      151.336       90.997        0.023        0.018        9.516        5.721        0.361      342.261       17.546      861.580
06/24/2014  04:38:00      -10.306      -14.546        9.353       12.475        8.935        9.138      155.628       79.829       83.510        0.036        0.016       17.826        3.112        0.030      342.104       17.280      861.585
06/24/2014  04:39:00       29.538      -24.429      -10.082       16.351       20.692       16.060      267.341      428.165      257.932        0.126        0.048       38.331       11.681        0.093      341.801       16.767      861.607
06/24/2014  04:40:00       20.689      -12.134        9.189       14.235       11.190       15.178      202.635      125.227      230.357        0.061        0.028       23.985       10.776        0.202      341.918       16.964      861.612
06/24/2014  04:41:00       -5.036      -12.113       -1.507       13.680        7.822        9.730      187.135       61.183       94.666        0.026        0.017       13.118        8.021        0.374      342.282       17.583      861.621
06/24/2014  04:42:00       11.027        6.303       13.698       24.217       30.174       12.521      586.460      910.499      156.775        0.100        0.083       12.701       16.990        1.789      342.005       17.112      861.655
06/24/2014  04:43:00       99.926       79.293       52.855       77.150       42.399       49.112     5952.113     1797.634     2411.993        1.461        0.508      127.564       39.348        0.095      341.593       16.411      861.682
06/24/2014  04:44:00       65.004       50.514       33.731       19.819       20.569       20.776      392.785      423.102      431.653        0.458        0.062       82.324        7.237        0.008      341.814       16.787      861.686
06/24/2014  04:45:00      105.000       69.493       18.069       13.835       18.865       17.080      191.417      355.903      291.726        0.851        0.042      125.914       10.975        0.008      341.923       16.973      861.688
06/24/2014  04:46:00       44.552       52.224        9.552       32.065       28.216       17.910     1028.184      796.143      320.781        0.347        0.107       68.645       14.126        0.042      341.812       16.785      861.689
06/24/2014  04:47:00       42.848       47.276       -0.404       37.575       30.689       20.516     1411.856      941.842      420.899        0.342        0.139       63.804       15.798        0.061      342.094       17.263      861.683
06/24/2014  04:48:00       30.487       50.641       -0.414       29.824       23.344       17.938      889.480      544.963      321.786        0.262        0.088       59.110       14.538        0.060      342.241       17.513      861.690
06/24/2014  04:49:00      -12.220       53.148      -10.435       25.408       21.581       10.407      645.580      465.756      108.311        0.215        0.061       54.535        7.117        0.017      342.186       17.418      861.693
06/24/2014  04:50:00       13.417       26.250       10.193       32.708       17.555       13.583     1069.845      308.173      184.509        0.127        0.078       29.480       12.466        0.179      342.023       17.143      861.695
06/24/2014  04:51:00       99.767       68.604       25.747       25.992       21.970       17.192      675.602      482.677      295.567        0.839        0.073      121.078        9.605        0.006      342.235       17.502      861.671
06/24/2014  04:52:00      123.611       70.788       16.000       36.492       26.930       28.517     1331.661      725.220      813.202        1.171        0.144      142.446       16.623        0.014      342.054       17.196      861.657
06/24/2014  04:53:00       83.269       41.157       -0.510       31.248       29.612       23.345      976.423      876.847      545.003        0.551        0.120       92.885       18.040        0.038      341.934       16.991      861.671
06/24/2014  04:54:00       60.130       49.602        7.148       30.850       21.336       20.492      951.722      455.230      419.906        0.398        0.091       77.948       12.862        0.027      341.896       16.928      861.676
06/24/2014  04:55:00       16.544       21.550       25.093       22.976       26.884       20.782      527.875      722.728      431.907        0.152        0.084       27.169       14.386        0.280      341.771       16.716      861.670
06/24/2014  04:56:00        1.819       27.879       16.980       27.949       30.719       34.551      781.122      943.677     1193.762        0.199        0.146       27.939       17.786        0.405      341.836       16.824      861.667
06/24/2014  04:57:00       27.920       37.419        7.705       27.663       28.136       25.838      765.223      791.645      667.583        0.223        0.111       46.688       10.345        0.049      341.798       16.762      861.689
06/24/2014  04:58:00       36.741       65.288       -2.124       31.883       35.284       24.332     1016.508     1244.985      592.045        0.423        0.143       74.916       24.216        0.104      342.140       17.343      861.686
06/24/2014  04:59:00      133.801       75.049       26.703       47.478       29.330       30.441     2254.143      860.268      926.651        1.414        0.202      153.412       15.992        0.011      342.182       17.411      861.651
06/24/2014  05:00:00       85.079       60.906       41.378       37.623       33.151       34.393     1415.508     1099.017     1182.909        0.818        0.185      104.633       17.346        0.027      342.033       17.159      861.639
06/24/2014  05:01:00       56.265       43.792       44.066       35.883       33.239       21.216     1287.616     1104.833      450.117        0.493        0.142       71.299       15.765        0.049      341.921       16.968      861.651
06/24/2014  05:02:00       26.852       13.075       25.743       30.232       26.720       27.691      913.975      713.971      766.778        0.197        0.120       29.866       21.019        0.495      341.921       16.969      861.657
06/24/2014  05:03:00        4.163      -19.192       19.305       29.790       28.743       19.155      887.472      826.139      366.924        0.142        0.104       19.638       20.363        1.075      341.769       16.711      861.666
06/24/2014  05:04:00      -17.616      -10.603        1.975       13.891       18.186       13.487      192.966      330.731      181.891        0.057        0.035       20.560       11.124        0.293      341.698       16.591      861.674
06/24/2014  05:05:00       27.845       -9.356       11.670       43.395       21.328       17.651     1883.135      454.901      311.551        0.182        0.132       29.375       11.723        0.159      341.509       16.270      861.681
06/24/2014  05:06:00       53.159      -24.473       17.105       20.996       24.960       24.191      440.833      623.020      585.220        0.268        0.082       58.522       18.551        0.100      341.469       16.203      861.677
06/24/2014  05:07:00       45.046       -9.683       11.240       28.418       20.519       22.930      807.572      421.047      525.799        0.200        0.088       46.075        9.070        0.039      341.600       16.424      861.682
06/24/2014  05:08:00       24.256      -16.238        8.553       31.991       18.878       14.969     1023.450      356.378      224.067        0.126        0.080       29.189       12.970        0.197      341.483       16.227      861.699
06/24/2014  05:09:00       19.448       19.208       12.584       20.714       15.825       12.654      429.054      250.421      160.126        0.087        0.042       27.334        7.909        0.084      341.624       16.466      861.710
06/24/2014  05:10:00       46.916       49.961       40.102       22.212       21.903       24.063      493.352      479.756      579.049        0.393        0.078       68.536       15.604        0.052      341.563       16.363      861.710
06/24/2014  05:11:00       47.082       41.160       33.286       35.153       34.171       23.861     1235.701     1167.647      569.331        0.400        0.149       62.537       17.161        0.075      341.906       16.943      861.722
06/24/2014  05:12:00        9.622        3.627       17.467       36.762       28.072       20.970     1351.481      788.025      439.761        0.149        0.129       10.283       16.034        2.431      341.679       16.559      861.736
06/24/2014  05:13:00        7.630      -10.614       -2.537       17.568       24.134       12.375      308.625      582.429      153.145        0.061        0.052       13.072        6.904        0.279      341.591       16.410      861.742
06/24/2014  05:14:00       30.071      -19.486       -2.368       16.791       22.725       23.415      281.936      516.443      548.279        0.132        0.067       35.833       17.177        0.230      341.401       16.088      861.745
06/24/2014  05:15:00       28.090       -0.789        5.426       23.366       19.404       16.453      545.953      376.525      270.707        0.101        0.060       28.101       16.520        0.346      341.361       16.020      861.742
06/24/2014  05:16:00      -28.868      -12.290       -5.386       14.302       12.545        8.733      204.551      157.388       76.267        0.073        0.022       31.375        5.981        0.036      341.846       16.842      861.742
06/24/2014  05:17:00      -33.470       -6.163       -2.547       27.350        8.616        6.781      748.048       74.229       45.986        0.102        0.043       34.033        8.983        0.070      341.799       16.764      861.731
06/24/2014  05:18:00       -0.543      -33.668       -6.213       11.231       17.837        8.233      126.143      318.158       67.788        0.084        0.026       33.673        8.642        0.066      341.858       16.861      861.730
06/24/2014  05:19:00      -30.506        4.093       -7.346        8.706       15.970        6.525       75.800      255.025       42.577        0.069        0.019       30.779        8.148        0.070      341.916       16.962      861.752
06/24/2014  05:20:00      -71.505       31.444       -5.792       22.846       12.034       10.963      521.928      144.815      120.177        0.346        0.039       78.113        6.433        0.007      341.946       17.012      861.785
06/24/2014  05:21:00     -102.559       14.542       -8.734       15.467       14.351        9.470      239.213      205.957       89.675        0.567        0.027      103.585        7.584        0.005      342.096       17.266      861.802
06/24/2014  05:22:00      -70.555      -34.486       -0.613       24.307       21.764       11.846      590.807      473.669      140.337        0.369        0.060       78.532       11.192        0.020      342.019       17.136      861.802
06/24/2014  05:23:00     -137.863      -51.407       -5.137       17.524       20.903       12.713      307.103      436.935      161.631        1.129        0.045      147.136        9.886        0.005      342.052       17.189      861.801
06/24/2014  05:24:00     -116.442      -29.417       -2.508       50.387       26.314       20.363     2538.809      692.426      414.653        0.904        0.182      120.100       19.777        0.027      341.897       16.928      861.813
06/24/2014  05:25:00      -26.390      -40.466        5.342       22.004       24.332       16.551      484.187      592.035      273.921        0.186        0.068       48.311       12.667        0.069      341.817       16.793      861.813
06/24/2014  05:26:00      -25.770      -50.841        4.392       28.652       22.714       16.152      820.956      515.917      260.894        0.243        0.080       56.999       14.205        0.062      342.049       17.187      861.806
06/24/2014  05:27:00      -41.088      -34.212       10.434       38.528       26.906       15.112     1484.381      723.925      228.382        0.270        0.122       53.467       15.931        0.089      342.038       17.167      861.800
06/24/2014  05:28:00      -30.172      -47.923        3.264       40.672       30.848       25.098     1654.230      951.606      629.917        0.323        0.162       56.631       19.800        0.122      342.059       17.204      861.797
06/24/2014  05:29:00     -119.428      -76.568        0.424       52.356       35.155       26.254     2741.185     1235.859      689.279        1.240        0.233      141.865       16.866        0.014      341.884       16.907      861.813
06/24/2014  05:30:00      -87.492      -53.476        3.261       43.659       33.585       19.120     1906.103     1127.963      365.588        0.696        0.170      102.541       17.390        0.029      341.834       16.822      861.841
06/24/2014  05:31:00      -91.192      -65.050       -8.126       49.181       42.007       28.847     2418.817     1764.625      832.158        0.881        0.251      112.016       27.639        0.061      341.834       16.821      861.851
06/24/2014  05:32:00      -90.121      -58.321        6.350       39.136       34.859       25.056     1531.628     1215.178      627.806        0.747        0.169      107.345       24.612        0.053      341.774       16.721      861.864
06/24/2014  05:33:00      -70.966      -48.084       -5.788       28.784       19.758       14.200      828.496      390.398      201.638        0.440        0.071       85.722       12.839        0.022      341.842       16.835      861.866
06/24/2014  05:34:00      -44.944      -53.756       -4.960       19.702       15.216       11.179      388.162      231.530      124.972        0.284        0.037       70.069        9.529        0.018      341.961       17.038      861.863
06/24/2014  05:35:00      -62.144      -85.141       -4.762       20.270       28.746       14.537      410.872      826.333      211.337        0.629        0.072      105.408        4.854        0.002      342.015       17.129      861.864
06/24/2014  05:36:00      -42.020      -58.839        8.327       40.184       39.422       18.600     1614.783     1554.132      345.964        0.441        0.176       72.302       15.101        0.044      341.973       17.057      861.881
06/24/2014  05:37:00      -26.151       -7.259        0.531       16.198       20.233        8.635      262.388      409.364       74.571        0.074        0.037       27.139        4.770        0.031      341.949       17.017      861.896
06/24/2014  05:38:00      -40.667       -6.224        1.913       23.925       18.318       11.141      572.421      335.538      124.119        0.136        0.052       41.140       10.840        0.069      341.817       16.794      861.902
06/24/2014  05:39:00      -60.222      -10.640       -1.940       23.304       26.203       11.848      543.068      686.603      140.387        0.256        0.069       61.154        8.404        0.019      341.604       16.432      861.912
06/24/2014  05:40:00      -49.511      -29.840        1.090       20.222       21.084       13.057      408.917      444.528      170.480        0.218        0.051       57.808       13.419        0.054      341.637       16.488      861.919
06/24/2014  05:41:00       -3.238      -22.432        9.352       18.265       18.667       11.826      333.617      348.463      139.857        0.071        0.041       22.665       11.045        0.237      341.580       16.390      861.919
06/24/2014  05:42:00        2.290      -29.530        2.677       10.865       17.740       11.986      118.047      314.709      143.656        0.073        0.029       29.618       12.061        0.166      341.702       16.600      861.936
06/24/2014  05:43:00      -21.143        4.040       10.339       23.749       15.577       10.999      563.999      242.652      120.987        0.075        0.046       21.525        8.906        0.171      341.491       16.241      861.956
06/24/2014  05:44:00      -22.672       -3.985       -3.806       19.844       18.165       12.135      393.782      329.982      147.262        0.071        0.044       23.020        9.816        0.182      341.470       16.204      861.970
06/24/2014  05:45:00       -8.328        3.691        0.284        8.172        8.392        6.608       66.788       70.424       43.660        0.013        0.009        9.109        3.666        0.162      341.489       16.237      861.978
06/24/2014  05:46:00       -4.959        5.066        9.005       14.563       10.013        4.737      212.074      100.253       22.435        0.023        0.017        7.089        2.472        0.122      341.569       16.373      861.983
06/24/2014  05:47:00       17.414      -17.876        0.311       13.949       12.871       13.032      194.584      165.657      169.831        0.058        0.027       24.956        8.164        0.107      341.384       16.059      861.985
06/24/2014  05:48:00      -10.521      -25.277       -0.523       44.614       24.605       21.364     1990.368      605.384      456.435        0.190        0.153       27.379       19.236        0.494      341.216       15.774      862.004
06/24/2014  05:49:00     -114.618      -41.986       -5.255       22.447       19.541        8.222      503.850      381.847       67.597        0.794        0.048      122.066        6.096        0.002      341.602       16.427      862.008
06/24/2014  05:50:00     -105.272      -26.357       -3.580       32.057       29.387       15.127     1027.625      863.581      228.813        0.695        0.106      108.521       16.777        0.024      341.526       16.299      862.022
06/24/2014  05:51:00     -122.227       -6.517       -8.574       30.219       19.610       13.732      913.199      384.554      188.571        0.827        0.074      122.400        9.807        0.006      341.307       15.930      862.028
06/24/2014  05:52:00      -91.381       10.985       -9.729       32.202       28.956       19.020     1036.939      838.444      361.779        0.540        0.112       92.039       18.518        0.040      341.174       15.704      862.024
06/24/2014  05:53:00     -101.303        7.170       -5.085       40.616       29.489       20.532     1649.646      869.598      421.553        0.664        0.147      101.556       20.048        0.039      341.140       15.646      862.020
06/24/2014  05:54:00     -115.844       -3.947       -6.268       29.449       22.044       18.679      867.241      485.941      348.897        0.759        0.085      115.911       17.425        0.023      341.170       15.698      862.006
06/24/2014  05:55:00      -85.536      -11.610       -0.879       40.326       24.362       16.327     1626.219      593.483      266.576        0.497        0.124       86.320       15.838        0.034      341.131       15.630      862.002
06/24/2014  05:56:00      -95.828       -8.817       -6.143       28.555       18.608        9.573      815.398      346.249       91.634        0.528        0.063       96.233       11.244        0.014      341.204       15.753      862.007
06/24/2014  05:57:00      -17.592      -14.127       10.213       28.124       17.568        8.480      790.963      308.640       71.918        0.089        0.059       22.562       12.680        0.316      341.283       15.890      861.998
06/24/2014  05:58:00      -50.631      -11.361       -3.380       25.484       18.103       12.208      649.432      327.736      149.042        0.191        0.056       51.890        9.803        0.036      341.303       15.923      862.007
06/24/2014  05:59:00       -8.373       -9.601        6.561       12.380       11.487        7.138      153.266      131.955       50.948        0.027        0.017       12.739        5.012        0.155      341.313       15.939      862.015
06/24/2014  06:00:00       14.053      -24.531        1.839       17.264       12.765       11.800      298.040      162.958      139.230        0.070        0.030       28.271        8.219        0.085      341.405       16.093      862.023
06/24/2014  06:01:00       13.528      -28.090      -13.357       21.634       19.430       16.474      468.026      377.512      271.378        0.113        0.056       31.177        8.137        0.068      341.084       15.551      862.031
06/24/2014  06:02:00      -20.878      -18.867       -5.183       25.962       19.616       16.022      674.024      384.785      256.716        0.107        0.066       28.140        8.054        0.082      341.283       15.887      862.037
06/24/2014  06:03:00      -35.609      -18.505       -4.893       22.206        8.685        9.760      493.121       75.423       95.265        0.115        0.033       40.131        8.514        0.045      341.454       16.176      862.034
06/24/2014  06:04:00       14.179      -24.053        2.057       14.662       13.208       18.814      214.970      174.464      353.979        0.076        0.037       27.921       12.196        0.191      341.463       16.194      862.028
06/24/2014  06:05:00       33.591      -19.400       13.413       23.256       25.281       28.508      540.836      639.109      812.706        0.184        0.100       38.790       21.853        0.317      341.225       15.790      862.025
06/24/2014  06:06:00       52.308      -18.224        7.392       34.235       26.680       23.189     1172.026      711.809      537.751        0.277        0.121       55.391       23.219        0.176      341.178       15.711      862.026
06/24/2014  06:07:00      -15.385       20.702        6.820       32.425       18.574       20.794     1051.360      344.997      432.391        0.127        0.091       25.793       21.922        0.722      341.315       15.943      862.033
06/24/2014  06:08:00      -61.219       74.803      -20.139       11.815       15.086        9.303      139.593      227.586       86.548        0.510        0.023       96.661        4.037        0.002      341.719       16.626      862.035
06/24/2014  06:09:00      -41.069       57.958      -16.668       11.393       15.008       10.592      129.801      225.240      112.190        0.290        0.023       71.034        5.804        0.007      341.949       17.015      862.027
06/24/2014  06:10:00        1.683       -2.346        6.109       16.965       27.834       21.148      287.827      774.725      447.246        0.078        0.075        2.887       15.820       30.023      341.950       17.020      862.022
06/24/2014  06:11:00       31.066       -4.464        3.830       24.414       16.486       16.788      596.034      271.798      281.849        0.107        0.057       31.385        9.337        0.088      341.339       15.983      862.035
06/24/2014  06:12:00      -15.393      -13.446       11.778       32.836       14.344       14.191     1078.193      205.748      201.388        0.102        0.074       20.439       15.657        0.587      341.642       16.496      862.043
06/24/2014  06:13:00      -88.144      -24.388       -3.158       17.588        7.032        7.420      309.339       49.444       55.061        0.439        0.021       91.455        6.189        0.005      341.625       16.467      862.055
06/24/2014  06:14:00      -56.807      -39.532        0.606       33.270       17.845       13.416     1106.860      318.436      179.998        0.320        0.080       69.209       16.194        0.055      341.699       16.593      862.059
06/24/2014  06:15:00      -24.035      -34.893        9.276       22.414       24.326       18.401      502.401      591.745      338.605        0.166        0.072       42.370       13.084        0.095      341.710       16.613      862.064
06/24/2014  06:16:00      -71.861      -38.262       -7.762       18.243       14.313       11.905      332.817      204.859      141.732        0.368        0.034       81.412       10.627        0.017      341.729       16.644      862.048
06/24/2014  06:17:00      -41.991      -34.957       -1.228       14.492       11.026       10.318      210.011      121.562      106.467        0.171        0.022       54.637        9.345        0.029      341.667       16.540      862.057
06/24/2014  06:18:00      -30.758      -28.329        2.991       15.767        9.082        9.552      248.586       82.475       91.238        0.109        0.021       41.816        9.710        0.054      341.706       16.606      862.072
06/24/2014  06:19:00      -39.742      -25.017      -10.190       23.945       11.357       15.796      573.376      128.980      249.509        0.163        0.048       46.961       14.662        0.097      341.646       16.502      862.074
06/24/2014  06:20:00       14.821      -34.990       -7.458       39.281       17.272       22.517     1542.972      298.306      507.008        0.192        0.117       37.999       10.724        0.080      341.438       16.150      862.075
06/24/2014  06:21:00       -0.377       -8.690       10.686        9.914        8.016       10.242       98.279       64.259      104.894        0.023        0.013        8.698        7.418        0.727      341.827       16.811      862.062
06/24/2014  06:22:00      -17.588      -15.589       10.568       25.770       17.566       13.445      664.072      308.551      180.777        0.091        0.058       23.502       12.670        0.291      341.851       16.851      862.059
06/24/2014  06:23:00      -17.442      -22.141        7.798       27.065       24.017       15.396      732.496      576.803      237.042        0.120        0.077       28.186       13.390        0.226      341.743       16.667      862.070
06/24/2014  06:24:00      -37.612      -61.089        6.268       38.168       36.693       22.163     1456.768     1346.362      491.204        0.424        0.165       71.740       22.013        0.094      341.605       16.432      862.059
06/24/2014  06:25:00      -66.430      -40.289        0.574       33.988       24.119       13.785     1155.180      581.743      190.023        0.398        0.096       77.693       15.371        0.039      341.571       16.377      862.054
06/24/2014  06:26:00      -57.042      -24.207       -1.218       26.086       15.953       13.250      680.480      254.510      175.559        0.248        0.056       61.966        7.833        0.016      341.561       16.358      862.060
06/24/2014  06:27:00      -15.131      -19.004        6.414       20.369       13.022       15.205      414.899      169.585      231.177        0.072        0.041       24.292       12.200        0.252      341.719       16.626      862.067
06/24/2014  06:28:00      -45.753      -50.787        6.049       46.077       34.640       22.792     2123.122     1199.904      519.489        0.428        0.192       68.356       25.567        0.140      341.643       16.499      862.066
06/24/2014  06:29:00      -94.482      -88.729        0.060       39.242       38.280       25.072     1539.967     1465.358      628.623        1.022        0.182      129.614       23.662        0.033      341.491       16.241      862.073
06/24/2014  06:30:00     -114.643      -92.689       -4.499       29.630       31.455       25.452      877.957      989.388      647.783        1.213        0.126      147.426       22.261        0.023      341.472       16.209      862.091
06/24/2014  06:31:00      -77.345      -62.478       -0.881       29.299       35.286       17.346      858.415     1245.076      300.879        0.615        0.120       99.428       17.592        0.031      341.536       16.316      862.100
06/24/2014  06:32:00      -71.199      -20.122       -5.253       26.052       13.874        8.351      678.730      192.478       69.732        0.322        0.047       73.988        8.307        0.013      341.601       16.429      862.103
06/24/2014  06:33:00      -35.134      -23.057        0.919       20.050       16.766       12.693      401.984      281.111      161.111        0.131        0.042       42.024       10.255        0.060      341.779       16.729      862.095
06/24/2014  06:34:00      -29.344      -38.104       11.013       19.948       18.699       14.530      397.929      349.659      211.125        0.170        0.048       48.093       10.649        0.049      341.679       16.558      862.103
06/24/2014  06:35:00      -73.260      -40.607       -2.440       16.907        8.809        8.475      285.852       77.600       71.831        0.373        0.022       83.762        2.097        0.001      341.696       16.587      862.095
06/24/2014  06:36:00      -77.835      -31.525       -3.426       27.585       14.731       17.160      760.926      217.003      294.477        0.417        0.064       83.977       17.451        0.043      341.725       16.637      862.109
06/24/2014  06:37:00     -110.694      -25.071       -9.543       11.453       11.989        9.939      131.162      143.743       98.790        0.667        0.019      113.497        5.183        0.002      341.788       16.746      862.109
06/24/2014  06:38:00     -100.092      -27.266       -7.995       16.769       14.401       10.528      281.187      207.390      110.844        0.571        0.030      103.740        8.832        0.007      341.823       16.803      862.108
06/24/2014  06:39:00      -60.052      -56.055       -1.195       22.410       19.262       16.934      502.219      371.040      286.754        0.395        0.058       82.149       13.555        0.027      341.865       16.874      862.111
06/24/2014  06:40:00      -42.929      -47.246        6.120       29.013       20.745       15.567      841.776      430.368      242.337        0.281        0.076       63.836       16.446        0.066      341.856       16.859      862.111
06/24/2014  06:41:00      -52.459      -51.062        6.621       16.232       27.193       13.669      263.470      739.448      186.848        0.330        0.059       73.207        4.942        0.005      341.835       16.823      862.121
06/24/2014  06:42:00      -22.625      -24.754        8.537       18.001       25.995       11.101      324.047      675.748      123.242        0.116        0.056       33.536       10.759        0.103      341.963       17.042      862.122
06/24/2014  06:43:00      -18.919      -56.252      -10.446       38.410       18.626       20.445     1475.329      346.910      417.998        0.294        0.112       59.348       13.917        0.055      341.756       16.691      862.124
06/24/2014  06:44:00       36.852      -29.128       16.060       25.476       19.605       19.430      649.025      384.349      377.532        0.194        0.071       46.973       13.159        0.078      341.547       16.335      862.118
06/24/2014  06:45:00       16.511      -17.930        0.850       26.916       21.635       21.681      724.473      468.056      470.051        0.113        0.083       24.374       11.439        0.220      341.652       16.512      862.121
06/24/2014  06:46:00       18.893       -9.900        3.552       14.830       18.753       22.900      219.932      351.658      524.421        0.078        0.055       21.329       16.196        0.577      341.799       16.764      862.119
06/24/2014  06:47:00       10.807        5.705       25.625       21.855       14.897       15.804      477.652      221.934      249.764        0.088        0.047       12.220       13.976        1.308      342.249       17.527      862.116
06/24/2014  06:48:00       30.121      -18.032       13.521       18.268       20.350       21.166      333.713      414.131      447.993        0.131        0.060       35.106       12.116        0.119      341.717       16.622      862.110
06/24/2014  06:49:00       12.205      -10.107       11.555       13.942       10.962       17.397      194.367      120.176      302.653        0.050        0.031       15.847       10.200        0.414      342.153       17.365      862.114
06/24/2014  06:50:00       11.839       -8.273       10.535       18.864       21.256       20.891      355.844      451.832      436.445        0.078        0.062       14.444       13.862        0.921      342.091       17.259      862.101
06/24/2014  06:51:00       36.677      -62.769       -5.824       39.790       28.913       26.042     1583.271      835.962      678.168        0.421        0.155       72.699       18.188        0.063      341.656       16.521      862.113
06/24/2014  06:52:00       39.053      -19.870       -6.171       30.770       28.846       25.441      946.802      832.089      647.233        0.219        0.121       43.817       19.223        0.192      341.736       16.655      862.120
06/24/2014  06:53:00        9.038      -20.169        8.010       39.711       23.832       24.068     1576.936      567.963      579.291        0.164        0.136       22.102       18.190        0.677      342.156       17.368      862.124
06/24/2014  06:54:00       -5.663      -34.219        9.311       29.212       23.052       18.884      853.324      531.416      356.589        0.152        0.087       34.685       19.723        0.323      342.122       17.313      862.132
06/24/2014  06:55:00      -13.321      -11.911       20.071       23.358       20.150       17.319      545.578      406.023      299.931        0.099        0.063       17.869       15.123        0.716      342.424       17.825      862.143
06/24/2014  06:56:00      -63.266      -51.234        2.808       35.254       38.834       15.799     1242.863     1508.103      249.595        0.482        0.150       81.409       19.028        0.055      342.032       17.160      862.137
06/24/2014  06:57:00      -68.108      -50.602        6.514       42.571       36.549       23.405     1812.249     1335.804      547.794        0.547        0.185       84.848       24.020        0.080      342.015       17.129      862.133
06/24/2014  06:58:00      -72.701      -57.718       11.174       33.780       45.825       25.292     1141.118     2099.947      639.686        0.631        0.194       92.827       14.597        0.025      342.007       17.114      862.124
06/24/2014  06:59:00      -84.979      -61.411       -7.285       24.510       35.158       16.005      600.726     1236.067      256.145        0.657        0.105      104.846        3.834        0.001      341.988       17.084      862.113
06/24/2014  07:00:00      -90.804      -78.305       -0.224       26.045       27.750       17.689      678.321      770.078      312.900        0.807        0.088      119.905       14.319        0.014      341.948       17.015      862.104
06/24/2014  07:01:00      -88.808      -86.035       -3.045       24.365       21.625       16.692      593.666      467.636      278.631        0.832        0.067      123.648       11.572        0.009      341.972       17.056      862.106
06/24/2014  07:02:00      -64.191      -70.846        5.049       37.743       42.821       21.977     1424.526     1833.633      483.004        0.645        0.187       95.601       24.840        0.068      342.060       17.205      862.110
06/24/2014  07:03:00      -75.245      -77.901        3.209       31.577       31.608       18.618      997.117      999.045      346.618        0.704        0.117      108.307       16.901        0.024      342.026       17.147      862.111
06/24/2014  07:04:00      -49.089      -65.032       -1.376       22.213       25.306       13.368      493.435      640.417      178.698        0.398        0.066       81.479        8.456        0.011      342.074       17.230      862.121
06/24/2014  07:05:00      -43.187      -41.893        4.357       18.370       31.983       13.901      337.451     1022.932      193.238        0.260        0.078       60.168       12.130        0.041      342.286       17.588      862.117
06/24/2014  07:06:00      -33.546      -21.663        5.409       10.978       27.513       10.327      120.514      756.978      106.641        0.130        0.049       39.932       11.253        0.079      342.179       17.407      862.143
06/24/2014  07:07:00      -37.730      -27.303        4.603       11.463       22.470       11.991      131.395      504.913      143.796        0.149        0.039       46.573       13.474        0.084      342.270       17.562      862.163
06/24/2014  07:08:00      -28.293      -53.330       -2.116       16.629       16.934       11.241      276.512      286.753      126.364        0.217        0.034       60.371        6.006        0.010      342.214       17.466      862.191
06/24/2014  07:09:00      -26.449      -55.165       -2.330       20.246       17.780       11.665      409.896      316.140      136.082        0.230        0.043       61.178        8.557        0.020      342.295       17.604      862.210
06/24/2014  07:10:00      -49.889      -76.306       -1.026       28.046       15.404       13.296      786.595      237.284      176.772        0.476        0.060       91.168        6.933        0.006      342.307       17.624      862.231
06/24/2014  07:11:00       -8.464      -54.962        9.584        9.811       23.124       11.624       96.247      534.728      135.115        0.198        0.038       55.609       11.154        0.040      342.420       17.818      862.234
06/24/2014  07:12:00      -46.382      -38.878        3.792       23.754       24.641       15.376      564.258      607.175      236.431        0.254        0.070       60.521       13.003        0.046      342.413       17.805      862.233
06/24/2014  07:13:00      -46.560      -58.549        7.446       46.411       36.555       31.313     2154.001     1336.303      980.501        0.506        0.224       74.806       32.186        0.185      342.474       17.909      862.218
06/24/2014  07:14:00      -34.832      -70.823        1.840       17.950       22.552       15.517      322.204      508.606      240.766        0.365        0.054       78.925       12.404        0.025      342.438       17.848      862.211
06/24/2014  07:15:00      -31.541      -47.352        4.798       32.244       22.189       13.988     1039.644      492.335      195.657        0.249        0.086       56.895       13.310        0.055      342.581       18.091      862.195
06/24/2014  07:16:00      -51.594      -20.792        6.528       39.124       21.739       15.418     1530.650      472.595      237.725        0.269        0.112       55.626       16.376        0.087      342.558       18.053      862.199
06/24/2014  07:17:00      -38.582      -80.534        0.644       23.168       27.773       16.744      536.746      771.341      280.357        0.478        0.079       89.299       18.203        0.042      342.530       18.003      862.193
06/24/2014  07:18:00      -59.732      -63.120        6.190       27.273       33.073       20.759      743.823     1093.852      430.934        0.493        0.113       86.903       17.869        0.042      342.618       18.154      862.186
06/24/2014  07:19:00      -85.495      -93.429        1.731       34.198       31.110       20.654     1169.490      967.818      426.593        0.930        0.128      126.642       17.936        0.020      342.631       18.176      862.181
06/24/2014  07:20:00      -53.247      -74.800       -0.389       38.181       36.261       15.936     1457.825     1314.828      253.971        0.573        0.151       91.817       13.842        0.023      342.640       18.191      862.177
06/24/2014  07:21:00     -110.923     -118.219        4.864       59.908       49.398       31.777     3588.948     2440.131     1009.776        1.667        0.352      162.110       32.888        0.041      342.683       18.263      862.179
06/24/2014  07:22:00      -37.890      -38.129       17.579       48.573       34.101       29.881     2359.359     1162.893      892.884        0.381        0.221       53.754       25.824        0.231      342.947       18.713      862.181
06/24/2014  07:23:00      -80.007      -68.624        8.536       63.763       37.921       25.261     4065.748     1437.977      638.129        0.866        0.307      105.406       30.949        0.086      342.869       18.579      862.196
06/24/2014  07:24:00      -35.699      -44.474       -0.899       40.937       22.992       17.277     1675.835      528.616      298.512        0.288        0.125       57.029       14.050        0.061      342.821       18.499      862.195
06/24/2014  07:25:00      -22.799      -60.527        6.647       27.957       40.339       22.863      781.602     1627.236      522.738        0.358        0.147       64.679       23.809        0.136      343.079       18.940      862.210
06/24/2014  07:26:00      -50.508      -68.664       -3.374       33.067       39.046       18.801     1093.403     1524.625      353.462        0.512        0.149       85.240       21.137        0.061      342.821       18.500      862.212
06/24/2014  07:27:00      -51.737      -90.332       -3.768       21.568       25.061       14.747      465.178      628.040      217.482        0.608        0.066      104.099       12.142        0.014      342.773       18.418      862.219
06/24/2014  07:28:00       -4.594      -37.843       17.709       23.452       21.686       18.424      550.010      470.266      339.458        0.156        0.068       38.120       16.615        0.190      342.975       18.762      862.213
06/24/2014  07:29:00      -17.746      -78.941        3.697       22.188       25.337       16.962      492.328      641.957      287.711        0.399        0.071       80.911       10.145        0.016      342.872       18.587      862.222
06/24/2014  07:30:00      -30.837      -71.229        4.098       37.029       36.307       22.483     1371.134     1318.173      505.502        0.462        0.160       77.618       21.633        0.078      342.944       18.707      862.214
06/24/2014  07:31:00      -28.644      -98.124       -5.495       14.380       13.937       10.623      206.783      194.244      112.855        0.550        0.026      102.220        5.675        0.003      342.815       18.489      862.220
06/24/2014  07:32:00      -69.250      -79.389       -2.039       38.979       45.621       26.347     1519.385     2081.277      694.150        0.770        0.215      105.348       31.715        0.091      342.998       18.802      862.211
06/24/2014  07:33:00     -104.107      -75.000        1.684       38.896       32.466       24.017     1512.917     1054.027      576.812        0.980        0.157      128.309       20.159        0.025      342.897       18.627      862.204
06/24/2014  07:34:00      -90.164      -65.057       -6.621       60.258       40.817       24.405     3631.008     1666.056      595.621        0.915        0.295      111.185       27.134        0.060      343.008       18.816      862.200
06/24/2014  07:35:00     -105.311      -68.666        0.442       45.997       48.896       28.646     2115.757     2390.794      820.613        1.057        0.266      125.720       25.702        0.042      343.012       18.825      862.192
06/24/2014  07:36:00      -35.597      -44.423       14.029       48.468       35.718       23.936     2349.101     1275.805      572.912        0.382        0.210       56.926       29.048        0.260      343.212       19.166      862.199
06/24/2014  07:37:00     -102.731      -46.567        4.586       34.874       35.777       21.486     1216.186     1279.961      461.642        0.785        0.148      112.793       11.647        0.011      343.042       18.877      862.195
06/24/2014  07:38:00      -67.838      -56.907       -5.336       29.829       31.782       23.385      889.759     1010.108      546.873        0.516        0.122       88.546       22.620        0.065      343.128       19.021      862.206
06/24/2014  07:39:00      -79.309      -51.299       -0.630       46.253       35.326       24.829     2139.375     1247.905      616.484        0.646        0.200       94.454       22.731        0.058      343.164       19.082      862.207
06/24/2014  07:40:00      -23.784      -58.369       19.786       32.097       41.178       25.709     1030.194     1695.590      660.943        0.387        0.169       63.029       26.509        0.177      343.397       19.480      862.207
06/24/2014  07:41:00      -11.969      -68.707        1.081       17.649       25.395       17.345      311.471      644.914      300.834        0.306        0.063       69.742        6.243        0.008      343.138       19.039      862.215
06/24/2014  07:42:00       -6.130      -73.265        6.008       27.445       36.130       23.713      753.227     1305.367      562.320        0.403        0.131       73.521       18.021        0.060      343.284       19.288      862.212
06/24/2014  07:43:00      -83.958      -82.222        2.528       49.969       42.845       25.457     2496.867     1835.676      648.038        0.940        0.249      117.513       25.998        0.049      343.199       19.142      862.220
06/24/2014  07:44:00     -115.689      -82.743       -0.615       39.064       44.926       23.158     1526.016     2018.377      536.296        1.215        0.204      142.233       19.233        0.018      343.145       19.049      862.211
06/24/2014  07:45:00      -58.836     -100.972       -3.649       44.394       47.986       27.966     1970.827     2302.637      782.098        0.936        0.253      116.863       18.231        0.024      343.150       19.060      862.220
06/24/2014  07:46:00      -99.585      -72.291        6.075       57.527       37.904       28.630     3309.397     1436.693      819.680        1.037        0.278      123.058       26.721        0.047      343.287       19.291      862.211
06/24/2014  07:47:00      -82.166      -43.770       11.838       50.110       40.136       28.401     2510.987     1610.900      806.640        0.687        0.246       93.097       24.653        0.070      343.431       19.538      862.217
06/24/2014  07:48:00     -123.193      -45.822        4.282       36.858       55.848       23.752     1358.491     3119.009      564.143        1.117        0.252      131.439       20.652        0.025      343.296       19.308      862.224
06/24/2014  07:49:00     -132.629      -51.107       -0.542       47.376       42.285       32.880     2244.452     1788.036     1081.105        1.266        0.256      142.135       33.673        0.056      343.225       19.187      862.230
06/24/2014  07:50:00      -99.382      -60.342        2.922       54.836       37.313       23.793     3006.977     1392.249      566.099        0.924        0.248      116.267       30.665        0.070      343.298       19.311      862.237
06/24/2014  07:51:00      -72.095      -58.724        8.486       50.874       42.392       26.914     2588.203     1797.120      724.368        0.691        0.255       92.985       26.868        0.083      343.309       19.329      862.239
06/24/2014  07:52:00      -64.852      -93.501        1.906       46.609       45.447       25.912     2172.353     2065.471      671.433        0.893        0.245      113.791       16.309        0.021      343.313       19.336      862.235
06/24/2014  07:53:00     -119.116      -88.021       -4.113       29.683       31.041       18.407      881.059      963.549      338.818        1.207        0.109      148.109       12.930        0.008      343.303       19.321      862.232
06/24/2014  07:54:00      -76.793      -56.537        1.489       51.256       28.990       27.324     2627.174      840.412      746.621        0.665        0.211       95.360       30.063        0.099      343.450       19.571      862.235
06/24/2014  07:55:00      -46.140      -45.003        0.616       36.503       24.365       23.203     1332.484      593.637      538.383        0.331        0.123       64.453       21.062        0.107      343.397       19.480      862.249
06/24/2014  07:56:00      -86.473      -86.172        4.383       69.102       46.954       32.134     4775.077     2204.686     1032.620        1.147        0.401      122.078       32.046        0.069      343.397       19.480      862.252
06/24/2014  07:57:00     -114.694     -115.140      -12.199       44.337       33.217       24.688     1965.807     1103.375      609.485        1.512        0.184      162.518       23.350        0.021      343.313       19.337      862.275
06/24/2014  07:58:00      -43.642      -92.561        8.584       73.138       37.899       31.210     5349.181     1436.315      974.061        0.915        0.388      102.334       36.649        0.128      343.457       19.582      862.286
06/24/2014  07:59:00     -142.645      -95.367       -1.505       58.491       38.974       22.505     3421.205     1518.992      506.492        1.744        0.272      171.588       28.135        0.027      343.347       19.393      862.298
06/24/2014  08:00:00      -96.334       13.777       -0.852       54.414       38.573       22.002     2960.918     1487.892      484.095        0.720        0.247       97.314       17.071        0.031      343.564       19.765      862.316
06/24/2014  08:01:00     -131.870      -32.134       -3.006       43.764       36.151       24.836     1915.312     1306.872      616.837        1.113        0.192      135.729       25.968        0.037      343.342       19.386      862.317
06/24/2014  08:02:00      -59.390        3.187        4.993       53.137       26.394       15.927     2823.493      696.652      253.684        0.367        0.189       59.476       19.231        0.105      343.495       19.647      862.317
06/24/2014  08:03:00      -12.146      -90.482        6.872       33.636       44.574       29.038     1131.396     1986.846      843.178        0.617        0.198       91.293       27.092        0.088      343.713       20.018      862.300
06/24/2014  08:04:00      -62.181      -78.901        1.055       37.822       29.021       24.261     1430.538      842.200      588.606        0.648        0.143      100.458       23.751        0.056      343.474       19.610      862.289
06/24/2014  08:05:00      -60.463     -108.438       -2.804       23.392       35.792       14.771      547.166     1281.084      218.173        0.873        0.102      124.155       12.261        0.010      343.400       19.485      862.278
06/24/2014  08:06:00      -53.048     -127.428        5.430       44.674       55.391       36.126     1995.765     3068.171     1305.065        1.272        0.318      138.029       29.440        0.045      343.544       19.731      862.270
06/24/2014  08:07:00      -18.303     -144.701        7.326       25.343       32.000       15.619      642.286     1024.001      243.960        1.162        0.096      145.854        3.639        0.001      343.440       19.553      862.285
06/24/2014  08:08:00      -59.756     -161.875       -6.553       53.115       41.531       22.483     2821.161     1724.820      505.468        1.743        0.253      172.552       23.323        0.018      343.584       19.798      862.284
06/24/2014  08:09:00      -44.529     -106.451        2.752       42.089       53.482       21.878     1771.447     2860.335      478.651        0.922        0.256      115.390       14.587        0.016      343.542       19.728      862.296
06/24/2014  08:10:00      -60.845     -111.211       -6.673       28.506       53.034       22.291      812.573     2812.613      496.888        1.012        0.206      126.768       25.092        0.039      343.555       19.748      862.300
06/24/2014  08:11:00      -70.786     -138.310        5.493       41.036       56.782       19.715     1683.946     3224.212      388.695        1.473        0.265      155.372       12.057        0.006      343.621       19.861      862.305
06/24/2014  08:12:00      -95.236      -74.112       -0.855       52.825       37.595       30.738     2790.477     1413.379      944.842        0.985        0.257      120.676       29.817        0.061      343.660       19.927      862.298
06/24/2014  08:13:00     -143.012      -81.107       -3.858       42.151       34.015       22.375     1776.741     1157.018      500.631        1.524        0.172      164.410       19.827        0.015      343.587       19.803      862.287
06/24/2014  08:14:00     -158.308       -8.849      -11.219       53.167       42.383       24.291     2826.760     1796.318      590.045        1.524        0.261      158.555       24.511        0.024      343.684       19.968      862.277
06/24/2014  08:15:00      -99.698      -39.062        5.564       74.182       43.139       30.791     5503.020     1860.937      948.058        0.990        0.416      107.077       39.470        0.136      343.960       20.440      862.274
06/24/2014  08:16:00      -89.368      -56.307        9.531       68.402       48.476       36.200     4678.770     2349.934     1310.432        0.979        0.417      105.628       34.002        0.104      343.822       20.203      862.259
06/24/2014  08:17:00      -10.922      -23.474       22.530       28.862       34.845       25.722      832.988     1214.175      661.611        0.194        0.135       25.890       23.483        0.823      344.268       20.966      862.237
06/24/2014  08:18:00        3.495       17.538       25.194       23.820       23.601       21.431      567.376      557.000      459.276        0.127        0.079       17.883       12.645        0.500      344.603       21.540      862.217
06/24/2014  08:19:00       15.056       22.985       38.857       35.915       26.564       26.097     1289.857      705.645      681.060        0.247        0.134       27.477       23.261        0.717      344.226       20.895      862.192
06/24/2014  08:20:00       -7.864      -18.920       14.896       41.546       40.310       30.714     1726.071     1624.929      943.324        0.247        0.215       20.489       22.782        1.236      343.956       20.432      862.177
06/24/2014  08:21:00      -32.946       -2.833        0.377       17.964       17.380       18.176      322.719      302.080      330.381        0.102        0.048       33.067        8.674        0.069      343.937       20.399      862.159
06/24/2014  08:22:00       -9.570        1.404       13.002       21.171       25.082       28.198      448.230      629.085      795.106        0.107        0.094        9.672        7.628        0.622      344.520       21.399      862.148
06/24/2014  08:23:00      -11.244      -10.195        8.698       20.484       19.740       21.439      419.585      389.665      459.629        0.079        0.063       15.178       14.667        0.934      344.593       21.524      862.142
06/24/2014  08:24:00      -25.395      -10.402       -1.187       26.195       20.696       30.005      686.194      428.338      900.279        0.138        0.101       27.443       17.158        0.391      344.320       21.056      862.139
06/24/2014  08:25:00       26.557       15.732       16.796       27.758       32.073       32.355      770.510     1028.659     1046.874        0.204        0.142       30.867       19.208        0.387      344.020       20.542      862.140
06/24/2014  08:26:00       31.657       -5.057       21.204       33.992       38.067       24.195     1155.442     1449.101      585.387        0.233        0.159       32.058        6.795        0.045      343.849       20.252      862.151
06/24/2014  08:27:00       35.123       -9.442        4.213       33.766       32.349       30.374     1140.161     1046.436      922.610        0.222        0.155       36.370       22.400        0.379      343.787       20.147      862.163
06/24/2014  08:28:00       49.458      -10.337       13.841       36.679       28.069       28.311     1345.383      787.844      801.492        0.284        0.147       50.527       24.003        0.226      343.872       20.292      862.165
06/24/2014  08:29:00       -1.421       26.219       47.649       17.568       26.587       27.102      308.633      706.855      734.509        0.235        0.087       26.258       12.999        0.245      344.641       21.604      862.181
06/24/2014  08:30:00       14.026       10.410       44.380       26.723       30.934       27.373      714.102      956.882      749.264        0.235        0.121       17.468       14.498        0.689      344.933       22.105      862.189
06/24/2014  08:31:00        8.724       13.335       36.275       31.698       26.392       27.638     1004.769      696.517      763.833        0.202        0.123       15.935       20.731        1.693      345.151       22.479      862.191
06/24/2014  08:32:00      -20.928       -7.870       20.374       26.260       24.499       23.465      689.597      600.225      550.587        0.138        0.092       22.359       11.173        0.250      344.324       21.063      862.194
06/24/2014  08:33:00       -8.289      -11.355       28.501       25.840       27.416       20.938      667.687      751.648      438.405        0.143        0.093       14.059       11.534        0.673      344.243       20.925      862.189
06/24/2014  08:34:00       32.075        9.979       19.083       34.815       42.060       32.259     1212.097     1769.039     1040.638        0.276        0.201       33.591       28.144        0.702      344.491       21.349      862.193
06/24/2014  08:35:00       25.686      -57.694       21.856       42.523       74.804       35.414     1808.231     5595.651     1254.121        0.656        0.433       63.154       36.979        0.343      344.668       21.650      862.182
06/24/2014  08:36:00      -25.648      -23.660       11.334       32.592       35.992       30.072     1062.208     1295.395      904.318        0.230        0.163       34.895       19.746        0.320      344.348       21.104      862.187
06/24/2014  08:37:00      -40.085      -76.107       -1.552       23.780       38.303       19.207      565.507     1467.153      368.920        0.490        0.120       86.018       16.558        0.037      344.096       20.673      862.182
06/24/2014  08:38:00      -42.748      -29.405        3.122       16.641       28.672       12.703      276.937      822.101      161.359        0.198        0.063       51.885        4.960        0.009      344.006       20.519      862.173
06/24/2014  08:39:00        1.037       16.394       39.818       25.764       19.897       18.286      663.805      395.901      334.376        0.162        0.070       16.426        8.712        0.281      344.978       22.182      862.154
06/24/2014  08:40:00      -18.413       -5.669       -8.473       42.142       19.594       21.733     1775.937      383.930      472.336        0.154        0.132       19.266       18.191        0.891      344.238       20.917      862.150
06/24/2014  08:41:00      -27.874      -14.976        0.260       32.206       33.630       17.335     1037.242     1130.966      300.489        0.173        0.123       31.643       22.891        0.523      344.291       21.007      862.145
06/24/2014  08:42:00      -56.149      -76.600        1.535       37.582       37.482       24.789     1412.433     1404.922      614.474        0.623        0.172       94.975       22.144        0.054      344.297       21.016      862.152
06/24/2014  08:43:00      -43.825      -33.594        4.548       50.247       57.628       30.164     2524.793     3321.001      909.866        0.491        0.338       55.219       11.758        0.045      344.409       21.208      862.153
06/24/2014  08:44:00      -41.674      -20.624       15.228       29.577       28.114       30.910      874.797      790.418      955.451        0.251        0.131       46.498       27.173        0.342      344.840       21.944      862.151
06/24/2014  08:45:00      -90.244      -54.957       -3.736       45.735       29.775       19.775     2091.691      886.536      391.051        0.727        0.168      105.661       19.376        0.034      344.299       21.020      862.165
06/24/2014  08:46:00      -50.321      -22.942        1.264       32.513       34.609       21.298     1057.114     1197.803      453.584        0.288        0.135       55.304       20.912        0.143      344.479       21.327      862.158
06/24/2014  08:47:00      -25.419      -34.051       -5.444       38.288       18.488       15.839     1465.990      341.821      250.887        0.195        0.103       42.492       18.878        0.197      344.368       21.138      862.165
06/24/2014  08:48:00        1.961     -105.787       -7.616       50.092       54.150       32.683     2509.158     2932.177     1068.148        0.888        0.325      105.805       14.801        0.020      344.414       21.216      862.160
06/24/2014  08:49:00      -14.550       20.474       54.300       20.130       46.737       37.131      405.211     2184.308     1378.698        0.377        0.198       25.118       34.892        1.930      344.968       22.164      862.161
06/24/2014  08:50:00       15.163       -5.918       48.893       36.689       36.025       24.631     1346.094     1297.801      606.682        0.295        0.163       16.277       10.182        0.391      345.033       22.275      862.154
06/24/2014  08:51:00       -0.451      -15.724       47.298       23.977       25.783       18.901      574.909      664.741      357.251        0.204        0.080       15.731        5.498        0.122      345.153       22.481      862.149
06/24/2014  08:52:00       -6.839       -4.914       46.503       21.569       32.571       16.967      465.209     1060.872      287.869        0.202        0.091        8.421       15.862        3.548      345.283       22.704      862.144
06/24/2014  08:53:00       -3.183      -12.322       38.812       21.070       32.375       23.766      443.934     1048.134      564.845        0.186        0.103       12.727       24.025        3.564      345.416       22.932      862.133
06/24/2014  08:54:00       16.619       25.329       24.301       32.695       23.436       26.673     1068.954      549.266      711.442        0.192        0.116       30.295       15.202        0.252      344.716       21.734      862.122
06/24/2014  08:55:00      -33.394       -1.824       17.038       32.172       23.295       22.693     1035.065      542.670      514.975        0.175        0.105       33.444       20.789        0.386      345.148       22.473      862.109
06/24/2014  08:56:00        5.097       21.912       28.065       29.716       17.702       28.853      883.051      313.375      832.473        0.166        0.101       22.497       16.557        0.542      345.152       22.480      862.105
06/24/2014  08:57:00      -28.325        1.378       15.512       50.715       49.271       26.564     2572.043     2427.588      705.670        0.337        0.285       28.358       28.137        0.984      344.888       22.028      862.088
06/24/2014  08:58:00      -19.081      -20.042       25.161       43.233       31.880       27.662     1869.075     1016.360      765.188        0.252        0.183       27.672       26.095        0.889      345.376       22.863      862.087
06/24/2014  08:59:00      -81.147      -19.460       13.545       56.672       32.933       22.846     3211.740     1084.584      521.929        0.598        0.241       83.448       27.050        0.105      344.841       21.949      862.069
06/24/2014  09:00:00      -15.499       -1.020        2.540       25.281       16.864       16.687      639.122      284.387      278.443        0.072        0.060       15.533       10.086        0.422      345.065       22.330      862.053
06/24/2014  09:01:00      -23.356       15.598       25.032       39.720       28.903       24.758     1577.668      835.408      612.941        0.222        0.151       28.085       20.552        0.536      345.368       22.848      862.050
06/24/2014  09:02:00      -33.370      -31.331        8.927       31.164       44.784       27.324      971.180     2005.603      746.596        0.295        0.186       45.773       25.356        0.307      345.158       22.489      862.030
06/24/2014  09:03:00      -50.797      -45.038       -0.194       46.834       38.181       33.818     2193.425     1457.752     1143.635        0.470        0.240       67.887       28.211        0.173      344.938       22.114      862.011
06/24/2014  09:04:00      -62.230      -48.635       11.205       36.699       40.954       19.295     1346.795     1677.195      372.307        0.488        0.170       78.980       20.129        0.065      344.725       21.748      861.986
06/24/2014  09:05:00      -77.678      -58.202       -2.105       37.681       44.196       28.383     1419.878     1953.288      805.568        0.680        0.209       97.064       21.918        0.051      344.714       21.730      861.969
06/24/2014  09:06:00      -37.889      -32.992        4.664       40.210       31.689       28.891     1616.821     1004.224      834.682        0.300        0.173       50.240       27.761        0.305      344.992       22.205      861.965
06/24/2014  09:07:00       18.765       -2.382       38.266       49.536       53.818       37.582     2453.839     2896.414     1412.440        0.429        0.338       18.916       37.943        4.023      345.772       23.544      861.954
06/24/2014  09:08:00       35.681       29.060       54.012       49.127       44.410       35.112     2413.448     1972.273     1232.873        0.533        0.281       46.017       28.735        0.390      345.313       22.753      861.948
06/24/2014  09:09:00      -14.637        5.645       72.965       33.039       69.612       48.579     1091.587     4845.832     2359.939        0.693        0.415       15.688       47.667        9.232      345.505       23.083      861.937
06/24/2014  09:10:00       81.228      -66.814       27.317       58.993       80.580       45.690     3480.213     6493.193     2087.570        1.193        0.603      105.177       47.482        0.204      345.156       22.485      861.940
06/24/2014  09:11:00       47.056      -10.777       25.096       40.753       37.170       33.295     1660.798     1381.602     1108.553        0.355        0.208       48.274       28.279        0.343      344.959       22.149      861.935
06/24/2014  09:12:00       82.350       -6.553       48.349       75.893       43.785       43.101     5759.706     1917.125     1857.656        0.935        0.477       82.611       30.062        0.132      345.307       22.744      861.917
06/24/2014  09:13:00       34.868       64.064       12.238       49.980       48.859       36.580     2498.018     2387.179     1338.084        0.585        0.311       72.938       22.162        0.092      345.126       22.434      861.906
06/24/2014  09:14:00       34.381      125.787       -4.303       58.435       62.808       51.157     3414.651     3944.813     2617.033        1.350        0.499      130.401       49.016        0.141      345.134       22.446      861.895
06/24/2014  09:15:00       52.977       39.589       24.376       47.844       40.543       33.673     2289.071     1643.716     1133.893        0.502        0.253       66.135       16.590        0.063      345.451       22.991      861.905
06/24/2014  09:16:00       27.684       -8.451        6.270       40.200       39.358       32.275     1616.065     1549.083     1041.670        0.254        0.210       28.945       22.622        0.611      345.507       23.088      861.909
06/24/2014  09:17:00       -7.431        1.069       17.140       19.955       18.653       21.537      398.187      347.946      463.830        0.078        0.060        7.508       14.849        3.912      345.714       23.443      861.926
06/24/2014  09:18:00      -73.807      -71.899       -3.269       57.620      105.142       27.265     3320.062    11054.760      743.362        1.287        0.756      103.038       39.497        0.147      345.103       22.395      861.925
06/24/2014  09:19:00      -56.829      -30.109       -3.101       45.294       28.721       25.793     2051.529      824.901      665.270        0.384        0.177       64.312       22.040        0.117      344.980       22.184      861.920
06/24/2014  09:20:00      -71.447      -28.556        4.350       38.012       40.203       19.099     1444.919     1616.302      364.757        0.468        0.171       76.943       16.279        0.045      344.864       21.986      861.896
06/24/2014  09:21:00      -12.125      -14.875       19.733       38.458       34.439       31.044     1479.002     1186.060      963.758        0.219        0.181       19.190       29.612        2.381      345.690       23.402      861.890
06/24/2014  09:22:00      -66.045      -27.517       12.437       58.609       45.567       26.574     3435.013     2076.328      706.188        0.574        0.311       71.548       26.188        0.134      345.296       22.728      861.868
06/24/2014  09:23:00      -48.178      -16.442       19.967       52.037       46.407       34.384     2707.809     2153.573     1182.273        0.452        0.302       50.906       31.424        0.381      345.285       22.706      861.851
06/24/2014  09:24:00       24.365        5.731       19.935       43.581       38.573       41.350     1899.289     1487.879     1709.840        0.306        0.255       25.030       19.665        0.617      345.640       23.315      861.837
06/24/2014  09:25:00      -38.055       44.164       16.741       58.104       39.386       27.770     3376.068     1551.255      771.186        0.469        0.285       58.298       16.911        0.084      345.340       22.803      861.811
06/24/2014  09:26:00      -13.758       -4.643        4.860       31.080       17.355       14.271      965.950      301.207      203.654        0.085        0.074       14.521       13.279        0.836      345.305       22.741      861.780
06/24/2014  09:27:00       26.625       15.417       23.757       26.671       21.749       19.506      711.362      473.000      380.480        0.154        0.078       30.766       10.820        0.124      345.910       23.779      861.752
06/24/2014  09:28:00       35.500        9.392       44.136       56.359       60.996       44.359     3176.335     3720.509     1967.741        0.608        0.443       36.721       41.559        1.281      346.132       24.160      861.723
06/24/2014  09:29:00       36.419      -16.042       46.124       40.593      108.404       52.911     1647.798    11751.441     2799.573        0.995        0.810       39.796       68.151        2.933      345.357       22.830      861.703
06/24/2014  09:30:00       65.023       58.785       85.115       76.929       72.476       52.874     5918.055     5252.761     2795.701        1.444        0.698       87.656       51.754        0.349      345.487       23.053      861.694
06/24/2014  09:31:00       95.791      -33.044       37.554       63.962       87.536       49.857     4091.141     7662.621     2485.744        1.296        0.712      101.331       58.893        0.338      345.309       22.748      861.694
06/24/2014  09:32:00       83.713        7.358       52.741       56.557       63.512       45.014     3198.648     4033.734     2026.279        0.955        0.463       84.036       51.060        0.369      345.469       23.021      861.686
06/24/2014  09:33:00       30.060      -17.232       38.766       45.159       55.134       42.098     2039.367     3039.751     1772.256        0.478        0.343       34.649       25.162        0.527      346.082       24.073      861.670
06/24/2014  09:34:00       79.732       76.081       66.340       54.156       52.299       43.465     2932.852     2735.168     1889.232        1.205        0.378      110.207       20.489        0.035      345.604       23.253      861.677
06/24/2014  09:35:00      118.399       92.263       40.541       55.931       49.230       54.796     3128.311     2423.630     3002.610        1.636        0.428      150.103       27.801        0.034      345.340       22.800      861.672
06/24/2014  09:36:00        3.411        3.745        7.312       36.799       70.825       38.682     1354.155     5016.152     1496.332        0.397        0.393        5.065       20.434       16.273      345.664       23.357      861.674
06/24/2014  09:37:00       46.536      -35.384       32.146       62.422       66.136       51.405     3896.454     4373.976     2642.455        0.768        0.546       58.461       23.001        0.155      345.959       23.863      861.671
06/24/2014  09:38:00       51.265       -6.949       26.394       38.752       80.589       39.973     1501.712     6494.573     1597.846        0.648        0.480       51.734       21.681        0.176      346.029       23.983      861.670
06/24/2014  09:39:00       59.826       59.466       47.477       55.471       52.793       45.129     3077.056     2787.140     2036.627        0.863        0.395       84.353       34.961        0.172      346.172       24.229      861.672
06/24/2014  09:40:00      179.019      112.747       41.174       93.248       66.989       63.952     8695.152     4487.536     4089.890        3.186        0.864      211.565       60.818        0.083      345.499       23.070      861.660
06/24/2014  09:41:00      177.233      119.546       32.957       62.083       57.366       48.606     3854.275     3290.850     2362.564        2.815        0.475      213.782       29.890        0.020      345.298       22.726      861.648
06/24/2014  09:42:00       82.971      126.915       14.282       54.377       47.869       49.770     2956.864     2291.430     2477.079        1.546        0.386      151.630       35.906        0.056      345.120       22.423      861.654
06/24/2014  09:43:00       73.022       91.102        0.925       63.336       56.117       50.124     4011.457     3149.097     2512.401        1.165        0.484      116.755       21.490        0.034      345.507       23.088      861.633
06/24/2014  09:44:00       59.691      110.306       -7.504       53.787       73.831       38.963     2892.997     5451.034     1518.143        1.282        0.493      125.421       35.468        0.080      345.427       22.948      861.627
06/24/2014  09:45:00       -2.200       59.763        2.436       41.532       59.200       37.785     1724.939     3504.665     1427.701        0.512        0.333       59.804       32.286        0.291      345.721       23.455      861.614
06/24/2014  09:46:00       87.385       18.862       32.990       74.115       99.616       60.532     5493.098     9923.438     3664.153        1.408        0.954       89.397       52.082        0.339      345.739       23.484      861.586
06/24/2014  09:47:00       58.821      -64.797       28.614       82.615      119.161       68.155     6825.307    14199.228     4645.097        1.707        1.283       87.513       82.119        0.881      345.836       23.651      861.567
06/24/2014  09:48:00      111.931     -122.140      -14.161       98.095      100.946       74.264     9622.559    10190.172     5515.198        2.648        1.266      165.671       76.530        0.213      345.547       23.154      861.559
06/24/2014  09:49:00      102.837     -105.744      -11.828       92.767       98.475       81.257     8605.772     9697.323     6602.638        2.340        1.245      147.504       77.174        0.274      345.564       23.183      861.542
06/24/2014  09:50:00       28.555      -47.638       23.244       52.602       65.908       39.187     2766.952     4343.820     1535.582        0.613        0.432       55.540       40.783        0.539      345.846       23.668      861.560
06/24/2014  09:51:00       -5.650       19.222       38.510       22.662       22.227       16.792      513.565      494.019      281.976        0.159        0.064       20.035        7.061        0.124      346.516       24.821      861.543
06/24/2014  09:52:00      122.038       75.514       31.427       88.604       44.972       44.083     7850.693     2022.498     1943.315        1.670        0.591      143.511       19.834        0.019      345.563       23.183      861.532
06/24/2014  09:53:00       56.129       41.387       31.378       58.508       70.503       58.032     3423.199     4970.693     3367.744        0.880        0.588       69.738       43.315        0.386      345.692       23.402      861.515
06/24/2014  09:54:00      119.756       97.218       82.542      122.496       80.756       69.546    15005.196     6521.565     4836.667        2.848        1.318      154.249       59.298        0.148      345.717       23.444      861.494
06/24/2014  09:55:00       23.159       72.094      144.969       67.296      124.083       66.148     4528.692    15396.471     4375.606        2.552        1.215       75.722       72.388        0.914      346.030       23.982      861.498
06/24/2014  09:56:00        2.718       91.198      130.856       40.573       60.246       33.645     1646.130     3629.533     1132.006        1.593        0.320       91.238       37.182        0.166      345.743       23.491      861.514
06/24/2014  09:57:00       20.404      119.034      150.947       59.806       74.045       41.769     3576.789     5482.599     1744.623        2.409        0.540      120.770       48.366        0.160      345.641       23.316      861.500
06/24/2014  09:58:00       54.078       57.305       67.191       73.607       60.255       51.756     5417.994     3630.704     2678.723        1.122        0.586       78.793       50.132        0.405      345.857       23.687      861.491
06/24/2014  09:59:00       69.478     -136.341      -10.179       70.304       60.203       58.223     4942.615     3624.407     3389.959        1.774        0.598      153.023       40.832        0.071      345.704       23.425      861.489
06/24/2014  10:00:00       79.623     -123.512      -25.572       57.936       57.130       43.335     3356.589     3263.815     1877.912        1.537        0.425      146.952       37.485        0.065      345.432       22.956      861.494
06/24/2014  10:01:00       51.909       54.088       49.012       27.193       40.171       44.934      739.456     1613.726     2019.020        0.620        0.219       74.967       19.882        0.070      345.646       23.324      861.499
06/24/2014  10:02:00       -7.959       13.641        9.430       26.153       26.931       25.520      683.964      725.287      651.268        0.120        0.103       15.793       18.283        1.340      345.924       23.803      861.494
06/24/2014  10:03:00      -66.375       22.722       -2.224       19.242       34.215       16.917      370.264     1170.653      286.173        0.338        0.091       70.156       12.603        0.032      345.226       22.605      861.509
06/24/2014  10:04:00      -49.330       18.953       -3.242       27.851       18.624       15.974      775.692      346.851      255.170        0.209        0.069       52.846       13.509        0.065      345.177       22.521      861.515
06/24/2014  10:05:00      -12.626        7.463       50.644       33.185       54.381       45.386     1101.267     2957.339     2059.853        0.445        0.306       14.667       36.656        6.246      346.378       24.584      861.525
06/24/2014  10:06:00       22.338        5.687       68.506       59.069       89.667       54.526     3489.201     8040.222     2973.048        0.986        0.725       23.051       56.517        6.012      346.150       24.190      861.527
06/24/2014  10:07:00       56.067      -85.934        2.273       65.599       74.213       45.854     4303.170     5507.601     2102.574        1.122        0.596      102.607       43.293        0.178      345.857       23.686      861.522
06/24/2014  10:08:00      -15.056       14.724       45.798       29.438       48.943       32.131      866.622     2395.456     1032.421        0.342        0.215       21.059       33.661        2.555      346.232       24.332      861.532
06/24/2014  10:09:00      -26.666       16.357       38.998       21.923       29.952       23.411      480.636      897.148      548.080        0.221        0.096       31.283       16.908        0.292      346.437       24.685      861.540
06/24/2014  10:10:00        3.702      -22.162       14.191       41.875       48.441       37.111     1753.544     2346.541     1377.254        0.309        0.274       22.469       24.966        1.235      346.283       24.420      861.554
06/24/2014  10:11:00       37.743     -119.696       -3.813       67.883       44.078       40.630     4608.092     1942.865     1650.793        1.198        0.410      125.506       34.002        0.073      345.864       23.700      861.568
06/24/2014  10:12:00       -0.868      -91.035       -9.972       50.969       57.392       40.480     2597.843     3293.821     1638.611        0.796        0.377       91.039       17.068        0.035      346.054       24.026      861.588
06/24/2014  10:13:00       52.660     -116.577      -20.145       32.502       46.538       31.916     1056.369     2165.742     1018.628        1.050        0.212      127.919       20.961        0.027      345.573       23.201      861.617
06/24/2014  10:14:00       34.177      -83.281       -8.683       33.311       63.520       40.308     1109.602     4034.778     1624.773        0.747        0.338       90.021       37.473        0.173      346.171       24.226      861.624
06/24/2014  10:15:00       27.150     -127.752      -10.832       52.303       62.706       38.524     2735.568     3932.058     1484.083        1.266        0.408      130.605       32.269        0.061      346.293       24.435      861.609
06/24/2014  10:16:00        3.680        1.242       73.868       42.161       57.287       50.966     1777.584     3281.779     2597.540        0.656        0.383        3.884       38.367       97.600      346.552       24.882      861.597
06/24/2014  10:17:00       29.465       71.123       79.001       48.012       42.972       37.862     2305.136     1846.589     1433.558        0.888        0.279       76.985       24.965        0.105      346.031       23.987      861.596
06/24/2014  10:18:00       31.059       50.758       29.239       33.227       28.421       29.050     1104.056      807.763      843.913        0.358        0.138       59.506       24.689        0.172      346.248       24.360      861.580
06/24/2014  10:19:00       18.786       13.597       26.902       30.763       24.987       18.656      946.345      624.367      348.064        0.159        0.096       23.190       11.576        0.249      346.431       24.675      861.565
06/24/2014  10:20:00       43.938       12.455       63.516       46.891       46.407       36.760     2198.813     2153.623     1351.318        0.591        0.285       45.669       15.283        0.112      346.541       24.863      861.547
06/24/2014  10:21:00       29.323       69.063       80.542       54.981       64.325       61.077     3022.926     4137.718     3730.397        1.150        0.545       75.030       37.796        0.254      346.143       24.178      861.526
06/24/2014  10:22:00       72.445       58.932       28.031       44.909       33.231       31.835     2016.804     1104.294     1013.437        0.682        0.207       93.387       19.890        0.045      345.708       23.431      861.508
06/24/2014  10:23:00      115.576       71.189       60.344       72.733       54.988       46.027     5290.055     3023.687     2118.453        1.625        0.522      135.741       38.133        0.079      346.126       24.149      861.484
06/24/2014  10:24:00       56.399       38.788       71.988       48.718       53.495       43.812     2373.465     2861.755     1919.518        0.851        0.358       68.450       39.467        0.332      346.406       24.631      861.467
06/24/2014  10:25:00       30.806       56.464       61.356       68.498       41.900       32.690     4691.925     1755.611     1068.638        0.771        0.376       64.321       19.440        0.091      347.008       25.666      861.460
06/24/2014  10:26:00        6.062       54.730       61.734       55.835       71.357       74.664     3117.566     5091.851     5574.763        1.031        0.689       55.064       61.354        1.241      346.655       25.058      861.455
06/24/2014  10:27:00      191.849      133.474       53.179       93.997       43.896       58.421     8835.349     1926.876     3413.036        3.581        0.709      233.712       57.546        0.061      345.723       23.452      861.431
06/24/2014  10:28:00       86.596       95.862       -6.212       78.454       61.395       40.716     6155.033     3769.333     1657.787        1.415        0.579      129.184       31.133        0.058      345.906       23.772      861.417
06/24/2014  10:29:00       34.666       23.991       30.119       49.449       60.333       44.582     2445.251     3640.019     1987.597        0.538        0.404       42.158       33.175        0.619      346.439       24.688      861.421
06/24/2014  10:30:00       40.613        6.020       41.536       61.287       62.660       54.179     3756.099     3926.287     2935.393        0.701        0.531       41.057       38.305        0.870      346.557       24.891      861.409
06/24/2014  10:31:00      115.779      108.025       74.628       82.332       80.246       80.138     6778.543     6439.400     6422.035        2.514        0.982      158.348       57.941        0.134      346.410       24.637      861.415
06/24/2014  10:32:00      131.821      115.705      138.258      100.077      101.429       71.453    10015.310    10287.843     5105.503        3.764        1.270      175.398       78.536        0.200      345.985       23.905      861.407
06/24/2014  10:33:00       45.120       73.586       90.026       69.608       58.532       48.090     4845.241     3425.980     2312.678        1.307        0.529       86.318       40.567        0.221      346.541       24.863      861.402
06/24/2014  10:34:00      127.261      112.958       83.742       82.703       57.861       59.320     6839.716     3347.855     3518.904        2.483        0.685      170.162       45.105        0.070      346.273       24.400      861.399
06/24/2014  10:35:00       66.535       62.812       88.988       71.512       73.256       58.025     5114.020     5366.459     3366.902        1.507        0.692       91.501       50.025        0.299      346.231       24.329      861.356
06/24/2014  10:36:00      131.527       96.044       50.855      106.866       72.763       66.736    11420.257     5294.512     4453.653        2.513        1.058      162.861       54.137        0.110      346.369       24.565      861.342
06/24/2014  10:37:00       73.053       95.790       17.736       82.518       82.299       61.142     6809.302     6773.102     3738.313        1.607        0.866      120.468       43.012        0.127      346.439       24.686      861.353
06/24/2014  10:38:00       64.274       94.430        9.879       56.516       68.384       45.300     3194.029     4676.309     2052.055        1.153        0.496      114.229       42.793        0.140      346.167       24.219      861.345
06/24/2014  10:39:00      127.528       92.528       15.547       77.100       61.647       44.501     5944.397     3800.320     1980.326        1.839        0.586      157.558       42.442        0.073      346.313       24.470      861.342
06/24/2014  10:40:00      137.999       61.615       10.161       74.374       39.110       39.511     5531.532     1529.603     1561.149        1.578        0.431      151.129       35.077        0.054      346.179       24.240      861.349
06/24/2014  10:41:00      119.873       72.472        3.910       61.406       36.916       32.678     3770.688     1362.807     1067.875        1.292        0.310      140.077       17.431        0.015      346.138       24.171      861.349
06/24/2014  10:42:00       65.861      -14.373       14.455       83.016       58.926       40.468     6891.733     3472.264     1637.629        0.838        0.600       67.411       31.026        0.212      346.516       24.820      861.347
06/24/2014  10:43:00       44.003      -12.835       13.238       44.094       49.104       25.545     1944.244     2411.241      652.547        0.364        0.250       45.837       20.001        0.190      346.735       25.199      861.344
06/24/2014  10:44:00       92.833      -96.910       18.195       63.814      100.375       52.797     4072.236    10075.120     2787.494        1.763        0.847      134.200       63.551        0.224      346.459       24.721      861.320
06/24/2014  10:45:00       11.217     -128.141      -18.034      104.485       86.881       37.490    10917.031     7548.330     1405.508        1.837        0.994      128.631       33.603        0.068      346.019       23.964      861.316
06/24/2014  10:46:00      -12.014      -15.952       27.675       53.295       44.140       29.522     2840.401     1948.335      871.520        0.341        0.283       19.970       27.867        1.947      347.117       25.857      861.294
06/24/2014  10:47:00       20.873     -129.692       -9.521       78.382       87.114       53.495     6143.811     7588.834     2861.767        1.697        0.830      131.361       44.090        0.113      346.429       24.670      861.311
06/24/2014  10:48:00       17.892      -39.128       25.964       38.242       67.223       47.765     1462.444     4518.987     2281.501        0.539        0.413       43.025       40.755        0.897      346.558       24.893      861.316
06/24/2014  10:49:00       47.160       79.970       28.483       35.823       38.450       39.410     1283.296     1478.416     1553.175        0.687        0.216       92.840       21.441        0.053      346.401       24.621      861.299
06/24/2014  10:50:00      116.712       66.277       80.064       76.025       58.163       47.101     5779.837     3382.954     2218.461        1.790        0.569      134.217       30.947        0.053      346.399       24.617      861.286
06/24/2014  10:51:00       92.813       50.228       54.072       78.460       54.860       65.616     6155.921     3009.640     4305.469        1.376        0.674      105.533       60.691        0.331      346.191       24.260      861.294
06/24/2014  10:52:00       33.294       51.162       65.733       57.156       66.130       48.285     3266.786     4373.236     2331.467        0.901        0.499       61.041       44.877        0.541      346.333       24.506      861.303
06/24/2014  10:53:00       45.031      -83.915       18.526       38.726       77.791       51.376     1499.695     6051.481     2639.464        0.980        0.510       95.234       56.233        0.349      346.295       24.440      861.312
06/24/2014  10:54:00       -4.939      -90.680        3.653       50.421       62.556       43.972     2542.243     3913.229     1933.528        0.832        0.419       90.814       34.567        0.145      346.503       24.799      861.298
06/24/2014  10:55:00       11.459      -17.763       58.146       58.465      113.831       71.060     3418.180    12957.441     5049.473        1.262        1.071       21.138       76.325       13.037      346.593       24.951      861.285
06/24/2014  10:56:00       34.995       20.807       71.778       53.213       70.452       56.851     2831.580     4963.485     3232.025        0.892        0.551       40.713       58.152        2.040      346.489       24.774      861.266
06/24/2014  10:57:00       36.793       91.450      125.367       53.601       65.875       39.471     2873.034     4339.552     1557.944        1.710        0.439       98.574       32.514        0.109      346.357       24.545      861.262
06/24/2014  10:58:00       39.030        9.233       63.140       49.228       80.516       55.084     2423.354     6482.861     3034.228        0.877        0.597       40.107       28.147        0.493      346.637       25.028      861.242
06/24/2014  10:59:00       54.411      -33.581       29.248       57.005       86.697       52.427     3249.573     7516.416     2748.637        0.923        0.676       63.939       57.032        0.796      346.721       25.172      861.245
06/24/2014  11:00:00       22.572      -32.549       36.802       53.853       59.416       47.771     2900.115     3530.262     2282.030        0.582        0.436       39.610       32.841        0.687      346.971       25.602      861.221
06/24/2014  11:01:00       -6.374      -87.479       -8.645       58.710       62.585       33.016     3446.849     3916.886     1090.082        0.811        0.423       87.711       15.019        0.029      346.772       25.260      861.207
06/24/2014  11:02:00       61.321      -35.503        6.641       79.218       64.072       48.221     6275.562     4105.187     2325.235        0.888        0.635       70.857       40.295        0.323      346.564       24.902      861.199
06/24/2014  11:03:00        3.915       -9.805       32.887       36.403       53.504       33.793     1325.211     2862.731     1141.934        0.326        0.266       10.558       32.873        9.694      347.074       25.780      861.203
06/24/2014  11:04:00      -82.582      -18.562       10.809       70.019       44.915       33.739     4902.657     2017.392     1138.336        0.767        0.403       84.642       43.223        0.261      347.084       25.800      861.205
06/24/2014  11:05:00      -22.447        4.983       30.174       29.306       47.106       31.347      858.870     2218.972      982.644        0.275        0.203       22.994       30.033        1.706      347.159       25.926      861.203
06/24/2014  11:06:00      -61.981      -59.108       -5.993       61.440       34.384       25.897     3774.886     1182.244      670.633        0.650        0.281       85.647       25.674        0.090      346.392       24.607      861.187
06/24/2014  11:07:00      -71.556      -21.276        4.671       61.604       50.912       23.434     3795.088     2591.997      549.150        0.626        0.347       74.652       26.655        0.127      346.636       25.026      861.176
06/24/2014  11:08:00       12.399       27.529       21.408       26.707       40.470       28.837      713.239     1637.806      831.572        0.228        0.159       30.192       18.714        0.384      347.418       26.374      861.177
06/24/2014  11:09:00       10.476       -9.532        8.807       24.614       45.410       33.212      605.850     2062.097     1103.028        0.202        0.189       14.164       26.749        3.567      347.285       26.143      861.179
06/24/2014  11:10:00      -14.743       10.344       26.670       29.450       45.017       24.249      867.326     2026.506      588.030        0.226        0.174       18.010       11.291        0.393      347.503       26.520      861.170
06/24/2014  11:11:00      -93.957      -37.486        3.791       72.408       48.590       29.554     5242.871     2360.947      873.452        0.936        0.424      101.159       25.956        0.066      346.864       25.418      861.184
06/24/2014  11:12:00      -73.769      -23.993        8.032       78.683       61.544       36.408     6191.052     3787.655     1325.571        0.869        0.565       77.573       35.786        0.213      347.179       25.962      861.197
06/24/2014  11:13:00      -61.286     -124.152        5.004       77.552       87.705       42.225     6014.378     7692.107     1782.915        1.734        0.774      138.455       41.999        0.092      346.691       25.120      861.195
06/24/2014  11:14:00     -123.233     -118.002       -6.452       78.059       76.423       42.195     6093.243     5840.449     1780.412        2.143        0.686      170.619       27.129        0.025      346.561       24.896      861.206
06/24/2014  11:15:00     -147.822     -129.743       -4.948      106.030       92.040       53.931    11242.321     8471.404     2908.595        3.066        1.131      196.684       60.774        0.095      346.447       24.698      861.224
06/24/2014  11:16:00     -118.310      -68.506      -10.184       40.723       65.715       36.825     1658.383     4318.449     1356.093        1.306        0.367      136.713       32.480        0.056      346.224       24.317      861.206
06/24/2014  11:17:00      -94.768     -213.663        1.366       74.594      104.156       41.033     5564.241    10848.442     1683.697        3.636        0.905      233.736       33.167        0.020      346.309       24.459      861.216
06/24/2014  11:18:00     -103.676     -144.583       -0.120       85.862       93.576       41.920     7372.358     8756.525     1757.321        2.477        0.894      177.913       51.639        0.084      346.449       24.702      861.204
06/24/2014  11:19:00      -71.933      -57.271        7.835       53.448       38.514       31.482     2856.687     1483.364      991.100        0.692        0.267       91.947       28.149        0.094      346.643       25.038      861.195
06/24/2014  11:20:00     -124.786      -58.032        5.260       62.060       53.090       35.040     3851.437     2818.511     1227.768        1.343        0.395      137.620       26.647        0.037      346.659       25.065      861.197
06/24/2014  11:21:00        5.193        4.203       31.388       63.949       68.658       42.438     4089.467     4713.920     1800.988        0.581        0.530        6.681       47.225       49.971      347.017       25.683      861.200
06/24/2014  11:22:00        6.650     -114.896      -26.223       41.914       67.637       30.542     1756.809     4574.803      932.804        1.060        0.363      115.089       39.432        0.117      346.585       24.938      861.202
06/24/2014  11:23:00        9.178      -33.423        4.585       76.428       71.913       49.105     5841.264     5171.545     2411.290        0.732        0.671       34.660       35.924        1.074      346.839       25.376      861.197
06/24/2014  11:24:00       12.962       62.777      103.907       44.546       71.245       53.079     1984.367     5075.866     2817.417        1.239        0.494       64.101       43.364        0.458      347.397       26.336      861.185
06/24/2014  11:25:00       51.337       -1.024       70.646       80.363       82.565       50.006     6458.153     6817.005     2500.648        1.170        0.789       51.347       38.137        0.552      347.317       26.198      861.188
06/24/2014  11:26:00      100.120      -73.295       20.680       86.921      116.189       81.349     7555.182    13499.984     6617.724        2.174        1.384      124.082       88.289        0.506      346.943       25.553      861.190
06/24/2014  11:27:00      104.241      -58.767       -3.810       65.747      137.241       63.950     4322.679    18835.061     4089.604        2.079        1.362      119.665       77.553        0.420      346.620       24.998      861.198
06/24/2014  11:28:00     -157.365      -69.949       14.739      144.945       79.327       51.279    21008.965     6292.768     2629.525        2.990        1.497      172.210       77.221        0.201      346.662       25.067      861.181
06/24/2014  11:29:00     -123.934      -51.926       -8.586       97.224       65.187       31.319     9452.503     4249.348      980.876        1.640        0.734      134.372       44.649        0.110      346.605       24.971      861.160
06/24/2014  11:30:00       33.892       13.510       20.239       26.658       26.916       25.993      710.640      724.486      675.611        0.193        0.106       36.485       18.188        0.249      347.123       25.865      861.140
06/24/2014  11:31:00       25.006       84.824       -5.963       37.382       58.968       28.872     1397.438     3477.283      833.600        0.678        0.285       88.433       27.838        0.099      346.906       25.490      861.130
06/24/2014  11:32:00       21.152       91.075       14.856       35.490       51.678       33.208     1259.529     2670.617     1102.756        0.700        0.252       93.499       33.265        0.127      347.496       26.509      861.137
06/24/2014  11:33:00       12.454       32.953       43.842       37.188       36.308       38.986     1382.969     1318.265     1519.876        0.369        0.211       35.228       23.046        0.428      347.594       26.677      861.116
06/24/2014  11:34:00       72.918       31.393       91.688       88.526      105.481       69.590     7836.934    11126.293     4842.792        1.925        1.190       79.389       61.873        0.607      347.619       26.719      861.094
06/24/2014  11:35:00       79.582      128.159      107.135      101.585       77.534       68.042    10319.538     6011.447     4629.752        2.759        1.048      150.858       50.063        0.110      347.416       26.367      861.088
06/24/2014  11:36:00       20.126       24.428       88.893       66.556       82.733       62.067     4429.749     6844.775     3852.278        1.201        0.756       31.651       45.598        2.075      347.691       26.843      861.076
06/24/2014  11:37:00      106.683       -1.572       52.797       88.600      114.856       61.600     7850.018    13191.962     3794.572        1.950        1.242      106.695       61.088        0.328      347.302       26.173      861.078
06/24/2014  11:38:00       64.674     -106.260       30.239       60.763      119.681       54.261     3692.142    14323.610     2944.291        1.867        1.048      124.394       49.299        0.157      347.435       26.402      861.065
06/24/2014  11:39:00      130.379        2.901       88.027      125.315      132.547       84.063    15703.736    17568.669     7066.651        3.254        2.017      130.412       85.690        0.432      347.495       26.504      861.049
06/24/2014  11:40:00      151.294     -135.042       23.776      134.353      154.928       90.339    18050.846    24002.803     8161.088        4.594        2.511      202.796       97.698        0.232      347.340       26.235      861.016
06/24/2014  11:41:00       19.677     -191.858        8.706      134.259      149.898       84.017    18025.512    22469.359     7058.791        4.240        2.378      192.865       97.594        0.256      347.257       26.093      861.028
06/24/2014  11:42:00       46.083     -159.602       -0.245      121.251      107.532       85.495    14701.836    11563.131     7309.472        3.058        1.679      166.121       75.151        0.205      347.134       25.880      861.022
06/24/2014  11:43:00       -4.198     -189.355      -15.636       96.552      126.386       78.313     9322.249    15973.411     6132.921        3.377        1.571      189.401       68.373        0.130      347.146       25.902      861.008
06/24/2014  11:44:00      -53.179     -152.725       -5.368       71.995       88.113       54.994     5183.346     7763.961     3024.393        2.107        0.799      161.718       43.075        0.071      347.052       25.741      861.022
06/24/2014  11:45:00      -24.414      -97.738       13.541       77.089       77.676       55.051     5942.688     6033.519     3030.591        1.267        0.750      100.741       56.462        0.314      347.361       26.274      861.034
06/24/2014  11:46:00       72.628     -160.599       -3.384       77.314      108.117       54.204     5977.451    11689.364     2938.029        2.584        1.030      176.258       59.286        0.113      347.275       26.125      861.054
06/24/2014  11:47:00      -30.962     -203.241       -8.821      111.905       94.416       49.692    12522.716     8914.383     2469.248        3.312        1.195      205.586       39.124        0.036      347.122       25.859      861.061
06/24/2014  11:48:00       16.068      -82.070       -5.927       86.005       66.410       36.025     7396.901     4410.247     1297.808        1.006        0.655       83.628       37.707        0.203      347.190       25.980      861.072
06/24/2014  11:49:00      -63.774      -68.151        9.170       64.910       54.247       33.632     4213.290     2942.722     1131.130        0.854        0.414       93.336       28.956        0.096      347.398       26.339      861.054
06/24/2014  11:50:00       -5.961        8.388       23.285       34.270       73.632       38.802     1174.441     5421.665     1505.629        0.437        0.405       10.290       25.608        6.193      347.889       27.187      861.032
06/24/2014  11:51:00      -61.975       22.382        2.607       69.876       67.875       39.445     4882.617     4607.060     1555.902        0.769        0.552       65.893       43.065        0.427      347.314       26.193      860.992
06/24/2014  11:52:00      -36.289        2.512       10.330       41.950       38.415       28.063     1759.788     1475.749      787.521        0.273        0.201       36.376       23.630        0.422      347.746       26.940      860.981
06/24/2014  11:53:00      -76.109      -12.023        8.971       55.698       69.717       30.316     3102.218     4860.474      919.033        0.745        0.444       77.053       27.173        0.124      347.234       26.056      860.969
06/24/2014  11:54:00     -130.674      -18.914       -6.704       49.458       57.370       32.011     2446.124     3291.268     1024.702        1.212        0.338      132.036       33.006        0.062      346.878       25.443      860.957
06/24/2014  11:55:00      -98.241       22.685       -9.735       35.853       44.795       36.373     1285.446     2006.586     1322.989        0.744        0.231      100.826       21.046        0.044      347.050       25.738      860.961
06/24/2014  11:56:00      -28.916       38.264        7.629       76.396       43.515       33.705     5836.309     1893.527     1136.048        0.561        0.443       47.961       31.350        0.427      347.527       26.561      860.957
06/24/2014  11:57:00       53.298      -30.502       42.429       82.322      107.896       73.166     6776.886    11641.557     5353.220        1.467        1.189       61.409       69.317        1.274      347.770       26.979      860.923
06/24/2014  11:58:00       80.512      127.597      170.847      116.413      114.724       96.827    13552.045    13161.636     9375.399        4.401        1.804      150.875       79.405        0.277      347.584       26.656      860.884
06/24/2014  11:59:00      163.608      113.557      169.404      138.156      173.105      115.943    19087.167    29965.490    13442.743        6.542        3.125      199.156      111.383        0.313      347.379       26.303      860.893
06/24/2014  12:00:00      270.742      116.117      125.952      116.107      106.548       95.387    13480.900    11352.465     9098.609        6.828        1.697      294.591       76.502        0.067      347.271       26.116      860.889
06/24/2014  12:01:00      246.604      271.112      156.421      116.339      127.895      106.817    13534.829    16357.096    11409.865       10.003        2.065      366.490       91.037        0.062      346.815       25.331      860.847
06/24/2014  12:02:00      137.359      114.019      104.586      105.510       65.102       57.618    11132.308     4238.229     3319.891        3.074        0.935      178.516       44.668        0.063      346.978       25.611      860.860
06/24/2014  12:03:00      154.602       45.072       66.332       81.568       84.726       79.023     6653.274     7178.498     6244.600        2.520        1.004      161.038       37.069        0.053      347.302       26.170      860.843
06/24/2014  12:04:00       78.299       45.926       92.752       97.425       57.644       55.178     9491.632     3322.803     3044.558        1.635        0.793       90.775       56.996        0.394      347.398       26.339      860.812
06/24/2014  12:05:00       93.512       78.801       69.647       68.904       61.251       55.001     4747.737     3751.664     3025.127        1.566        0.576      122.287       36.137        0.087      347.585       26.660      860.794
06/24/2014  12:06:00       78.365       26.521       96.140       97.139      132.493       74.034     9436.054    17554.423     5481.077        2.427        1.624       82.732       73.396        0.787      347.871       27.152      860.773
06/24/2014  12:07:00       92.401       -8.605       30.717       85.413      102.828       66.632     7295.445    10573.685     4439.839        1.593        1.115       92.801       57.832        0.388      347.902       27.205      860.793
06/24/2014  12:08:00      137.484       22.022       52.019       94.340      125.229       58.665     8900.052    15682.375     3441.639        2.505        1.401      139.236       49.678        0.127      347.788       27.008      860.766
06/24/2014  12:09:00       96.137      106.679      107.215       89.141       83.745       58.977     7946.121     7013.246     3478.326        2.527        0.922      143.606       44.776        0.097      347.969       27.322      860.778
06/24/2014  12:10:00      128.678       81.576       91.325       97.847       93.391       79.068     9574.029     8721.913     6251.703        2.805        1.227      152.357       65.307        0.184      347.723       26.896      860.764
06/24/2014  12:11:00       56.758       43.916       77.222       70.620       94.647       44.464     4987.140     8958.072     1977.061        1.351        0.796       71.764       46.918        0.427      347.893       27.193      860.745
06/24/2014  12:12:00      180.625     -275.655      -21.101      124.574      108.568       69.635    15518.742    11787.097     4849.035        7.060        1.608      329.562       60.846        0.034      347.544       26.585      860.693
06/24/2014  12:13:00       82.453     -166.691       28.792      104.510       96.727       62.103    10922.378     9356.196     3856.773        2.977        1.207      185.969       49.505        0.071      347.671       26.807      860.685
06/24/2014  12:14:00      213.804     -220.690       26.275      142.087      179.215       95.524    20188.726    32118.151     9124.912        7.826        3.072      307.272      109.793        0.128      347.636       26.746      860.667
06/24/2014  12:15:00       89.802      -73.790       40.365       83.482      149.655       87.737     6969.253    22396.674     7697.713        2.609        1.853      116.229       92.883        0.639      347.792       27.016      860.686
06/24/2014  12:16:00      155.251     -228.291       28.114      139.225      199.662      120.824    19383.466    39864.998    14598.547        7.541        3.692      276.079      134.518        0.237      347.564       26.621      860.691
06/24/2014  12:17:00       68.448       12.931      119.786      116.542      140.468       93.719    13581.975    19731.145     8783.316        3.064        2.105       69.659       96.036        1.901      347.644       26.761      860.720
06/24/2014  12:18:00       96.882      -48.802       32.223       68.558       88.266       65.523     4700.253     7790.881     4293.251        1.479        0.839      108.480       65.570        0.365      347.762       26.965      860.710
06/24/2014  12:19:00      159.982     -171.921        9.988      149.223      218.322       92.001    22267.526    47664.463     8464.121        6.681        3.920      234.842      140.729        0.359      347.742       26.930      860.709
06/24/2014  12:20:00      228.831     -204.888      -27.165      112.861      130.162       90.742    12737.645    16942.217     8234.043        6.649        1.896      307.152      103.199        0.113      347.484       26.484      860.694
06/24/2014  12:21:00       92.207      -48.637       20.974      106.979       80.402       46.971    11444.504     6464.411     2206.249        1.571        1.006      104.248       37.905        0.132      347.648       26.768      860.677
06/24/2014  12:22:00        2.917     -115.132      -16.141       47.567       58.420       39.966     2262.572     3412.934     1597.283        1.040        0.364      115.169       30.463        0.070      347.889       27.184      860.646
06/24/2014  12:23:00      116.474     -101.172       53.128      154.254      211.632      135.674    23794.380    44787.912    18407.430        5.679        4.349      154.279      144.663        0.879      347.842       27.102      860.607
06/24/2014  12:24:00       78.680       66.404      158.592      107.814      199.039      125.335    11623.830    39616.497    15708.985        5.134        3.347      102.956      152.367        2.190      347.717       26.886      860.627
06/24/2014  12:25:00      -13.277       14.577       34.086       62.715       82.799       55.659     3933.139     6855.658     3097.943        0.772        0.694       19.717       44.794        5.161      347.415       26.367      860.658
06/24/2014  12:26:00       16.137      -25.286       31.393       37.603       62.874       30.400     1413.982     3953.163      924.146        0.409        0.315       29.997       35.989        1.439      347.830       27.084      860.625
06/24/2014  12:27:00       98.782      -73.581       32.765       88.992       89.100       64.598     7919.638     7938.890     4172.931        1.813        1.002      123.175       61.273        0.247      347.931       27.257      860.619
06/24/2014  12:28:00      -20.659       12.161       15.541       39.114       37.758       37.033     1529.918     1425.641     1371.471        0.257        0.216       23.973       28.962        1.460      348.469       28.188      860.605
06/24/2014  12:29:00        8.916      -69.280       34.319       82.523      113.940       56.254     6809.986    12982.256     3164.506        1.450        1.148       69.851       49.340        0.499      348.302       27.898      860.588
06/24/2014  12:30:00       13.425     -154.179      -31.038       72.211       59.642       40.973     5214.362     3557.133     1678.789        1.768        0.523      154.762       28.101        0.033      348.158       27.648      860.578
06/24/2014  12:31:00        4.386       15.078       67.152       45.758       47.827       31.041     2093.827     2287.426      963.547        0.505        0.267       15.703       29.142        3.444      348.558       28.342      860.599
06/24/2014  12:32:00       91.484       71.425       50.538       81.240       50.369       68.458     6599.882     2537.011     4686.434        1.492        0.691      116.064       31.809        0.075      347.808       27.044      860.598
06/24/2014  12:33:00       21.413      141.495       -0.628       71.816       98.064       49.874     5157.568     9616.588     2487.430        1.887        0.863      143.106       53.787        0.141      347.725       26.901      860.557
06/24/2014  12:34:00        0.982      -47.246        3.457       70.454       72.094       41.626     4963.725     5197.539     1732.732        0.707        0.595       47.256       20.644        0.191      348.036       27.439      860.552
06/24/2014  12:35:00        4.515      -36.744       24.884       85.905       96.683       43.438     7379.651     9347.543     1886.823        1.030        0.931       37.020       48.527        1.718      348.536       28.304      860.500
06/24/2014  12:36:00      125.480       61.918       92.446       83.742      121.917       68.908     7012.736    14863.799     4748.320        2.737        1.331      139.925       68.856        0.242      348.248       27.802      860.467
06/24/2014  12:37:00       51.423       12.422       30.112       63.969       77.471       57.939     4092.070     6001.706     3356.973        0.858        0.673       52.902       23.735        0.201      348.414       28.093      860.489
06/24/2014  12:38:00       47.530      -91.550       20.218       92.367      112.575       64.897     8531.626    12673.153     4211.642        1.823        1.271      103.153       74.534        0.522      348.382       28.035      860.505
06/24/2014  12:39:00      -17.373      -78.317       18.504       81.930       80.207       37.707     6712.508     6433.173     1421.849        1.067        0.728       80.221       33.585        0.175      348.275       27.851      860.502
06/24/2014  12:40:00      109.982     -232.353      -23.877      111.223      134.469       79.775    12370.469    18081.861     6364.064        5.173        1.841      257.068       75.758        0.087      347.777       26.990      860.497
06/24/2014  12:41:00       56.496     -140.632       -8.711       93.749       98.888       63.159     8788.821     9778.923     3989.050        2.280        1.128      151.556       63.287        0.174      347.660       26.788      860.531
06/24/2014  12:42:00      -30.228      -73.402       -8.340       73.575       74.654       45.618     5413.351     5573.231     2081.046        0.972        0.653       79.383       41.784        0.277      347.686       26.836      860.520
06/24/2014  12:43:00      103.615     -188.366      -13.062       95.362      128.518       69.794     9094.002    16516.872     4871.260        3.843        1.524      214.984       72.163        0.113      347.623       26.723      860.479
06/24/2014  12:44:00      175.969     -164.129       15.735      129.683      177.074       82.887    16817.762    31355.102     6870.192        5.659        2.752      240.632      117.608        0.239      347.437       26.403      860.484
06/24/2014  12:45:00       18.875       41.072       12.971       98.895       76.234       62.672     9780.204     5811.559     3927.743        1.086        0.976       45.202       64.390        2.029      347.648       26.769      860.441
06/24/2014  12:46:00     -120.392     -113.129       17.641       88.537       83.450       52.800     7838.745     6963.929     2787.801        2.259        0.880      165.204       58.722        0.126      347.676       26.816      860.404
06/24/2014  12:47:00      -87.154     -109.647       17.911      110.681       73.469       49.987    12250.174     5397.745     2498.694        2.004        1.007      140.065       63.447        0.205      347.560       26.616      860.418
06/24/2014  12:48:00      -59.447      -92.153       12.200       82.979       66.673       41.439     6885.559     4445.330     1717.222        1.261        0.652      109.663       24.384        0.049      347.995       27.369      860.466
06/24/2014  12:49:00      -48.577     -174.780        6.804      111.908       68.743       52.684    12523.331     4725.627     2775.586        2.649        1.001      181.405       37.531        0.043      347.935       27.260      860.480
06/24/2014  12:50:00       19.641     -212.591      -19.493       96.505      103.308       67.097     9313.166    10672.486     4501.941        3.522        1.224      213.496       48.459        0.052      347.817       27.058      860.511
06/24/2014  12:51:00       95.475     -135.690       18.112      114.799      140.432       84.652    13178.791    19721.119     7165.950        3.395        2.003      165.913       86.656        0.273      347.917       27.231      860.493
06/24/2014  12:52:00       67.053      -61.315       57.951       97.094      146.495       96.931     9427.184    21460.647     9395.654        2.594        2.014       90.860      106.553        1.375      347.769       26.977      860.471
06/24/2014  12:53:00      -17.680      -92.180       16.833       95.738       74.748       58.436     9165.810     5587.222     3414.752        1.363        0.908       93.860       44.694        0.227      348.165       27.661      860.488
06/24/2014  12:54:00       45.184       79.803      115.208       70.807       92.373       55.312     5013.689     8532.858     3059.378        1.914        0.830       91.707       57.274        0.390      348.306       27.904      860.450
06/24/2014  12:55:00       56.073      -62.030       39.062       71.152      100.219       72.627     5062.583    10043.869     5274.671        1.445        1.019       83.618       79.229        0.898      348.264       27.833      860.416
06/24/2014  12:56:00       50.542     -122.468        3.447       76.448       74.044       60.694     5844.322     5482.539     3683.794        1.628        0.751      132.487       41.066        0.096      348.057       27.474      860.399
06/24/2014  12:57:00       95.431     -158.101      -37.374       83.580       68.205       48.698     6985.600     4651.914     2371.505        2.475        0.700      184.670       44.823        0.059      347.737       26.922      860.407
06/24/2014  12:58:00       15.254      -59.230       -1.236       50.739       49.523       29.113     2574.406     2452.517      847.544        0.481        0.294       61.163       18.473        0.091      347.953       27.297      860.420
06/24/2014  12:59:00       13.200      -19.783       33.048       88.941       59.397       51.230     7910.471     3528.013     2624.534        0.786        0.703       23.783       49.538        4.339      348.396       28.062      860.388
06/24/2014  13:00:00      132.934     -100.973       31.579      111.304      130.396       78.150    12388.573    17003.086     6107.481        3.217        1.775      166.934       80.605        0.233      348.233       27.780      860.318
06/24/2014  13:01:00      143.238      -89.420       71.209      165.622      260.656      162.149    27430.549    67941.584    26292.456        7.760        6.083      168.858      188.513        1.246      348.186       27.696      860.209
06/24/2014  13:02:00      132.019        5.644      101.161      129.776      224.570      136.553    16841.813    50431.757    18646.607        5.679        4.296      132.139      161.554        1.495      348.019       27.406      860.240
06/24/2014  13:03:00      171.620     -142.843       23.612      116.185      177.289       85.751    13499.045    31431.485     7353.184        5.134        2.614      223.288      106.740        0.229      348.297       27.889      860.213
06/24/2014  13:04:00      107.039     -126.559       -8.995       62.550       56.028       44.716     3912.489     3139.176     1999.503        1.830        0.453      165.754       41.190        0.062      348.086       27.524      860.231
06/24/2014  13:05:00       42.127       -5.394       93.946       92.472      116.248       85.584     8551.055    13513.556     7324.635        2.000        1.469       42.471       74.835        3.105      348.437       28.132      860.196
06/24/2014  13:06:00       -5.077      -49.876       72.512       77.980       86.463       55.201     6080.823     7475.872     3047.165        1.218        0.830       50.134       41.566        0.687      348.894       28.922      860.201
06/24/2014  13:07:00      -38.908     -115.650       40.648       60.434       94.088       68.015     3652.276     8852.503     4626.071        1.683        0.857      122.019       51.054        0.175      348.802       28.763      860.190
06/24/2014  13:08:00       39.858     -155.297      -35.131       82.298      108.524       83.311     6772.980    11777.463     6940.741        2.621        1.275      160.331       61.471        0.147      348.391       28.052      860.192
06/24/2014  13:09:00      -15.825     -140.621       -4.708      103.717       97.012       77.061    10757.292     9411.279     5938.402        2.307        1.305      141.508       67.015        0.224      348.403       28.073      860.195
06/24/2014  13:10:00     -107.828     -122.366       -8.250       59.218       83.777       57.027     3506.792     7018.619     3252.042        2.022        0.689      163.096       24.162        0.022      348.254       27.815      860.198
06/24/2014  13:11:00     -229.635     -130.588        2.600      102.396      103.102       55.551    10485.021    10629.988     3085.948        4.699        1.210      264.169       46.886        0.032      348.124       27.587      860.217
06/24/2014  13:12:00     -277.626     -226.664        0.840      120.823      127.043       65.534    14598.124    16139.810     4294.670        8.174        1.752      358.404       57.835        0.026      347.966       27.313      860.211
06/24/2014  13:13:00     -189.823     -199.392       11.250      146.503      112.636       70.665    21463.268    12686.837     4993.596        5.752        1.957      275.300       71.877        0.068      348.117       27.577      860.212
06/24/2014  13:14:00     -183.295     -175.177       11.318      190.943      110.265       72.003    36459.134    12158.411     5184.408        5.910        2.690      253.543       90.758        0.128      348.143       27.621      860.223
06/24/2014  13:15:00        0.340     -150.189       13.781       63.363      117.664       44.319     4014.837    13844.760     1964.149        2.128        0.991      150.190       47.828        0.101      348.439       28.134      860.208
06/24/2014  13:16:00       89.721      -44.375       43.057      132.189      150.043       74.019    17474.047    22512.798     5478.740        2.866        2.273      100.095       95.980        0.919      348.554       28.334      860.174
06/24/2014  13:17:00     -162.655     -119.724       -1.625       93.150       58.078       43.050     8676.910     3373.054     1853.267        2.735        0.695      201.967       39.859        0.039      348.348       27.976      860.224
06/24/2014  13:18:00     -131.245     -108.034        4.459      133.420      169.981       58.100    17800.966    28893.630     3375.660        3.948        2.504      169.990       81.549        0.230      348.293       27.879      860.247
06/24/2014  13:19:00      -60.489     -255.911       -8.757      121.958      143.223       78.322    14873.668    20512.971     6134.354        5.537        2.076      262.963       70.283        0.071      348.551       28.324      860.129
06/24/2014  13:20:00       51.077     -197.830      -13.983       91.176       87.991       66.539     8313.113     7742.400     4427.396        3.121        1.024      204.318       59.233        0.084      348.494       28.228      860.103
06/24/2014  13:21:00     -225.495     -107.709       -0.648      125.539       76.358       56.057    15759.968     5830.509     3142.403        4.359        1.237      249.898       69.511        0.077      348.609       28.428      860.145
06/24/2014  13:22:00     -372.284     -182.774       -8.409      205.333      116.608       73.709    42161.569    13597.517     5433.076       11.662        3.060      414.731       91.111        0.048      348.653       28.503      860.167
06/24/2014  13:23:00     -389.792      -42.717       -6.287      160.582      122.119       87.155    25786.489    14913.014     7595.969       10.104        2.415      392.125       83.873        0.046      348.576       28.369      860.155
06/24/2014  13:24:00     -251.319     -146.499        0.033      195.202      152.951       86.720    38103.940    23394.025     7520.373        7.681        3.451      290.901       86.075        0.088      348.733       28.640      860.167
06/24/2014  13:25:00     -353.162     -209.738      -10.897      156.743      188.407       82.790    24568.354    35497.066     6854.118       11.786        3.346      410.747       83.122        0.041      348.249       27.805      860.172
06/24/2014  13:26:00     -269.659     -265.030      -19.695      171.461      180.623       92.190    29398.947    32624.544     8499.078       10.692        3.526      378.096       91.681        0.059      348.232       27.774      860.154
06/24/2014  13:27:00     -270.953     -121.467        0.464      177.085      121.371       76.406    31358.993    14730.891     5837.875        7.004        2.596      296.934       89.230        0.090      348.496       28.232      860.194
06/24/2014  13:28:00     -137.998     -148.443       17.483      123.455      134.114       60.657    15241.090    17986.474     3679.290        3.914        1.845      202.680       57.764        0.081      348.227       27.766      860.176
06/24/2014  13:29:00     -137.026     -118.962       -6.728       89.938       76.923       45.339     8088.905     5917.158     2055.584        2.451        0.803      181.461       46.189        0.065      348.272       27.846      860.151
06/24/2014  13:30:00      -82.316      -68.944       13.689       98.423       60.984       61.458     9687.007     3719.083     3777.088        1.445        0.859      107.374       67.919        0.400      348.509       28.255      860.108
06/24/2014  13:31:00     -195.684       58.697       -7.207       84.137       77.436       42.463     7079.014     5996.367     1803.075        2.833        0.744      204.298       41.449        0.041      348.437       28.131      860.103
06/24/2014  13:32:00     -314.389      -28.648        2.165      208.148      177.608       89.804    43325.703    31544.655     8064.684        9.128        4.147      315.691       87.373        0.077      348.747       28.666      860.118
06/24/2014  13:33:00     -460.691     -152.407      -26.013      198.227      176.096       88.531    39294.091    31009.638     7837.672       15.713        3.907      485.247       93.342        0.037      348.577       28.371      860.106
06/24/2014  13:34:00     -581.946      -30.993      -26.677      143.143      167.698       81.204    20489.824    28122.694     6594.084       19.776        2.760      582.771       69.320        0.014      348.368       28.011      860.141
06/24/2014  13:35:00     -337.955      -40.982      -37.220      169.701      160.459       69.745    28798.301    25747.221     4864.313        8.833        2.970      340.431       60.964        0.032      348.568       28.357      860.091
06/24/2014  13:36:00     -192.315      -14.487        8.867      146.460      222.161       88.011    21450.417    49355.582     7745.881        5.790        3.928      192.860       96.377        0.250      348.741       28.657      860.074
06/24/2014  13:37:00     -322.308      -84.909      -19.956      208.680      141.908       79.553    43547.445    20137.982     6328.600        9.074        3.501      333.304       96.654        0.084      348.775       28.713      860.063
06/24/2014  13:38:00     -384.920      -86.036      -34.811      160.908      125.554       60.692    25891.411    15763.878     3683.459       10.105        2.267      394.418       50.694        0.017      348.514       28.261      860.054
06/24/2014  13:39:00     -155.776        0.904       -2.171      119.629      106.588       53.926    14311.138    11360.913     2907.981        2.642        1.429      155.778       56.184        0.130      348.703       28.590      860.013
06/24/2014  13:40:00     -326.635     -157.419      -12.640      148.193       99.748       56.891    21961.171     9949.751     3236.565        8.338        1.757      362.589       27.831        0.006      348.704       28.591      860.019
06/24/2014  13:41:00     -387.295     -239.630      -11.976      228.004      178.541       84.593    51986.018    31877.028     7156.002       14.927        4.551      455.434       91.510        0.040      348.443       28.140      860.068
06/24/2014  13:42:00     -342.558     -232.006      -15.979      164.069      135.597       79.402    26918.729    18386.516     6304.676       11.151        2.580      413.731       79.946        0.037      348.118       27.578      860.075
06/24/2014  13:43:00     -384.108     -192.859      -23.955      198.884      152.108       94.883    39554.706    23136.723     9002.713       12.849        3.585      429.807      105.720        0.061      348.276       27.850      860.067
06/24/2014  13:44:00     -316.329     -157.100      -12.351      163.105      109.845       72.319    26603.267    12065.837     5229.975        8.439        2.195      353.191       63.532        0.032      348.274       27.846      860.083
06/24/2014  13:45:00     -428.021     -244.054       -5.865      274.729      178.348      104.027    75476.266    31807.903    10821.583       18.043        5.905      492.711      125.024        0.064      348.294       27.882      860.070
06/24/2014  13:46:00     -291.459     -294.861       -8.710      124.151      156.996       82.714    15413.518    24647.626     6841.601       10.943        2.345      414.597       60.904        0.022      347.963       27.309      860.119
06/24/2014  13:47:00     -250.594     -137.510       -9.697      102.809       96.705       56.753    10569.652     9351.891     3220.863        5.247        1.157      285.843       36.531        0.016      348.080       27.512      860.076
06/24/2014  13:48:00     -173.090     -121.216       -2.507       82.558       84.424       44.395     6815.754     7127.343     1970.921        3.028        0.796      211.314       45.930        0.047      348.170       27.666      860.046
06/24/2014  13:49:00     -274.330      -81.275      -32.774      133.318       76.979       40.032    17773.665     5925.730     1602.541        5.411        1.265      286.116       41.786        0.021      348.234       27.778      860.028
06/24/2014  13:50:00     -291.679      -54.286       10.603      277.795      127.151       83.175    77170.067    16167.297     6918.039        9.418        5.013      296.688      121.469        0.168      348.920       28.966      860.002
06/24/2014  13:51:00     -106.891     -194.078       10.257      174.189      105.543       64.810    30341.662    11139.282     4200.385        4.743        2.284      221.568       63.169        0.081      348.501       28.241      860.019
06/24/2014  13:52:00      -41.189     -152.220      -11.351       63.199       90.030       39.338     3994.134     8105.383     1547.449        1.932        0.682      157.694       35.537        0.051      348.256       27.817      859.943
06/24/2014  13:53:00     -281.219      -44.872       -6.322      184.499      125.126       69.130    34039.906    15656.613     4778.989        6.780        2.724      284.776       79.871        0.079      348.473       28.191      859.937
06/24/2014  13:54:00     -255.580      -64.082       12.200      179.897      120.244       78.476    32362.836    14458.528     6158.451        6.127        2.649      263.491       77.817        0.087      348.763       28.694      859.899
06/24/2014  13:55:00     -215.358     -409.952       -6.940      235.142      236.016      107.984    55291.552    55703.350    11660.637       16.855        6.133      463.076      117.041        0.064      348.580       28.375      859.929
06/24/2014  13:56:00     -244.125     -149.474       -8.000      137.040      100.211       59.577    18780.089    10042.299     3549.451        5.718        1.619      286.251       56.034        0.038      348.772       28.711      859.950
06/24/2014  13:57:00     -298.050     -167.609       -6.762      162.295       94.575       68.385    26339.675     8944.345     4676.530        7.846        1.998      341.946       75.056        0.048      348.603       28.414      859.935
06/24/2014  13:58:00     -201.009     -230.464       13.312      147.890      152.541       71.399    21871.385    23268.716     5097.809        7.196        2.512      305.807       73.021        0.057      348.643       28.486      859.982
06/24/2014  13:59:00     -318.517     -182.998       -5.365      191.498      123.260       80.246    36671.364    15192.960     6439.400        9.663        2.915      367.344       92.598        0.064      348.360       27.994      859.929
06/24/2014  14:00:00     -322.491     -182.243       -0.172      148.470      149.409       75.184    22043.300    22322.980     5652.566        9.361        2.501      370.423       66.163        0.032      348.559       28.340      859.942
06/24/2014  14:01:00     -405.110      -61.427       -4.831      240.423      171.140       77.235    57803.296    29288.876     5965.172       13.047        4.653      409.741       98.595        0.058      348.737       28.648      859.953
06/24/2014  14:02:00     -395.481      -99.652      -24.973      135.630      133.610       68.756    18395.446    17851.691     4727.411       10.396        2.049      407.843       57.530        0.020      348.004       27.379      859.929
06/24/2014  14:03:00     -374.208     -142.529       -1.026      193.958      135.168       80.127    37619.675    18270.288     6420.377       11.132        3.116      400.432       86.246        0.046      348.436       28.129      859.884
06/24/2014  14:04:00     -485.839      -24.285      -34.471      158.225      117.945       85.024    25035.179    13911.047     7229.092       14.199        2.309      486.445       89.286        0.034      348.571       28.360      859.871
06/24/2014  14:05:00     -344.408     -204.670       -3.826      175.121      134.684       83.201    30667.365    18139.788     6922.372       10.811        2.786      400.632       78.553        0.038      348.667       28.528      859.881
06/24/2014  14:06:00     -307.023      -99.301       12.458      182.821      165.128       93.534    33423.409    27267.265     8748.599        8.685        3.472      322.683       93.112        0.083      348.823       28.798      859.907
06/24/2014  14:07:00     -522.530     -222.991      -16.273      265.295      260.803      139.470    70381.471    68018.335    19451.822       24.041        7.893      568.122      143.555        0.064      348.609       28.427      859.894
06/24/2014  14:08:00     -220.420      -95.992       11.375      201.756      125.551       79.260    40705.396    15763.050     6282.218        6.033        3.138      240.415      101.037        0.177      348.618       28.444      859.997
06/24/2014  14:09:00     -147.892     -146.656        4.062      123.137      116.185       63.960    15162.754    13498.868     4090.912        3.807        1.638      208.279       68.331        0.108      348.401       28.067      859.921
06/24/2014  14:10:00     -103.408       21.923        8.929       83.966       75.375       62.253     7050.240     5681.407     3875.474        1.393        0.830      105.707       62.000        0.344      348.609       28.428      859.896
06/24/2014  14:11:00     -211.719      -35.190       -7.445      128.048      114.587       60.504    16396.387    13130.187     3660.686        3.965        1.659      214.623       52.630        0.060      348.636       28.473      859.904
06/24/2014  14:12:00     -330.991     -101.353      -15.299      144.136      140.102       70.446    20775.178    19628.638     4962.571        8.270        2.268      346.161       70.342        0.041      348.612       28.432      859.870
06/24/2014  14:13:00     -229.934     -144.093       18.203      208.738      132.398       90.485    43571.652    17529.290     8187.506        7.161        3.464      271.353      104.859        0.149      349.002       29.109      859.860
06/24/2014  14:14:00     -313.432     -371.325        5.651      217.279      213.646      109.102    47210.337    45644.651    11903.308       17.044        5.238      485.924      112.704        0.054      348.718       28.616      859.927
06/24/2014  14:15:00     -345.553     -256.712        9.142      236.936      167.483       97.879    56138.848    28050.422     9580.270       13.956        4.688      430.474      110.725        0.066      348.421       28.102      859.946
06/24/2014  14:16:00     -311.249      -30.287      -13.830      182.459      132.552       76.431    33291.134    17570.023     5841.640        7.733        2.835      312.719       85.372        0.075      348.497       28.234      859.932
06/24/2014  14:17:00     -306.965       11.016      -11.747      149.156      131.588       77.876    22247.546    17315.501     6064.685        7.005        2.281      307.162       73.864        0.058      348.708       28.598      859.928
06/24/2014  14:18:00     -295.241      -84.268        1.012      202.472      148.529       80.924    40994.889    22060.846     6548.768        8.192        3.480      307.031       94.430        0.095      348.716       28.612      859.904
06/24/2014  14:19:00     -266.394     -188.934       -8.286      222.798      173.600       83.414    49638.834    30137.076     6957.864        9.671        4.337      326.591      108.644        0.111      348.513       28.260      859.878
06/24/2014  14:20:00     -393.288     -210.893      -25.747      220.036      146.055       90.968    48415.696    21331.988     8275.172       13.890        3.901      446.263       91.471        0.042      348.395       28.056      859.883
06/24/2014  14:21:00     -268.598     -203.834        5.663      247.680      119.944       78.267    61345.486    14386.589     6125.755        9.778        4.093      337.184       87.818        0.068      348.486       28.214      859.867
06/24/2014  14:22:00      -59.319     -312.673      -10.161      133.232      109.476       70.631    17750.720    11984.936     4988.694        6.805        1.736      318.250       58.203        0.033      348.306       27.901      859.836
06/24/2014  14:23:00     -369.827     -278.622       -3.631      194.303      123.937       85.390    37753.828    15360.393     7291.509       13.740        3.020      463.036       90.810        0.038      348.562       28.344      859.833
06/24/2014  14:24:00     -344.007     -299.972        4.626      281.499      222.007      105.772    79241.835    49286.898    11187.795       17.400        6.986      456.426      137.740        0.091      348.675       28.542      859.831
06/24/2014  14:25:00     -281.004     -212.951        3.676      207.486      170.999       79.301    43050.463    29240.728     6288.665       10.144        3.929      352.578       93.337        0.070      348.690       28.568      859.870
06/24/2014  14:26:00     -399.923     -257.352       -5.326      204.511      166.743       87.130    41824.869    27803.247     7591.633       15.169        3.861      475.572      106.464        0.050      348.321       27.929      859.866
06/24/2014  14:27:00     -356.563     -117.570       14.418      186.247      166.053       82.758    34687.948    27573.580     6848.852       10.513        3.456      375.446       93.630        0.062      348.412       28.085      859.850
06/24/2014  14:28:00     -291.433      -95.006        8.343      201.650      106.876       61.417    40662.857    11422.492     3772.098        7.493        2.793      306.528       73.895        0.058      348.630       28.462      859.854
06/24/2014  14:29:00     -272.012     -185.051       -0.770      173.769      118.234       79.789    30195.672    13979.292     6366.206        7.938        2.527      328.990       88.087        0.072      348.598       28.408      859.848
06/24/2014  14:30:00     -320.287      -89.824        2.670      186.784      153.570       73.274    34888.166    23583.613     5369.079        8.724        3.192      332.644       86.067        0.067      348.880       28.896      859.829
06/24/2014  14:31:00     -359.996     -134.180       -7.623      181.347      209.618       94.087    32886.813    43939.809     8852.454       11.665        4.284      384.189       97.699        0.065      348.910       28.947      859.865
06/24/2014  14:32:00     -233.723       74.703      -12.376      134.575       95.946       61.538    18110.484     9205.701     3786.927        4.573        1.555      245.371       53.560        0.048      348.750       28.671      859.883
06/24/2014  14:33:00     -226.261     -139.976       -1.482      203.431      139.105       89.175    41384.036    19350.167     7952.247        6.972        3.434      266.059      105.191        0.156      348.843       28.833      859.854
06/24/2014  14:34:00     -257.040     -210.361        6.341      144.074      121.953       75.981    20757.440    14872.623     5773.087        7.587        2.070      332.146       80.631        0.059      348.239       27.785      859.849
06/24/2014  14:35:00     -335.454     -221.493      -31.533      178.581      140.447       74.236    31891.036    19725.407     5510.926       10.984        2.856      401.981       79.757        0.039      348.301       27.894      859.828
06/24/2014  14:36:00     -515.273     -346.878       -7.032      271.095      205.835      132.635    73492.296    42368.167    17591.916       25.964        6.673      621.153      150.370        0.059      348.343       27.966      859.770
06/24/2014  14:37:00     -483.350     -189.668      -22.093      178.325      192.227       83.734    31799.716    36951.164     7011.414       17.291        3.788      519.231       71.441        0.019      348.548       28.319      859.836
06/24/2014  14:38:00     -322.727     -231.699       -3.261      176.366      123.400       91.560    31104.813    15227.450     8383.322       10.627        2.736      397.287       96.122        0.059      348.659       28.514      859.874
06/24/2014  14:39:00     -361.933     -249.054       -4.726      176.694      173.246       96.668    31220.701    30014.221     9344.783       13.180        3.529      439.344      101.440        0.053      348.408       28.079      859.863
06/24/2014  14:40:00     -189.019     -245.845      -25.010      165.496      103.021       59.704    27388.826    10613.277     3564.514        6.917        2.078      310.110       70.016        0.051      348.133       27.603      859.854
06/24/2014  14:41:00     -211.511     -105.835      -14.571      142.151      122.834       62.002    20206.862    15088.263     3844.248        4.764        1.957      236.512       71.381        0.091      348.529       28.287      859.820
06/24/2014  14:42:00      -67.564        3.897        5.914       71.734       73.536       50.827     5145.788     5407.489     2583.382        0.887        0.657       67.676       40.886        0.365      348.994       29.096      859.804
06/24/2014  14:43:00     -250.399       27.595      -26.448      201.125      117.076       59.560    40451.265    13706.732     3547.402        6.092        2.885      251.914       80.863        0.103      348.898       28.929      859.773
06/24/2014  14:44:00     -215.046       41.259        3.529      170.400      138.778       74.704    29036.231    19259.383     5580.616        5.091        2.694      218.969       76.936        0.123      348.920       28.967      859.765
06/24/2014  14:45:00     -111.803      -24.341       -6.180      130.637       73.426       52.956    17065.900     5391.339     2804.324        1.919        1.263      114.422       66.116        0.334      348.694       28.577      859.781
06/24/2014  14:46:00      -52.601        7.846       -5.718      109.594      111.094       60.072    12010.764    12341.943     3608.657        1.541        1.398       53.183       55.478        1.088      348.723       28.625      859.759
06/24/2014  14:47:00     -124.500      -58.576       13.264      149.320       73.301       55.012    22296.382     5373.044     3026.314        2.490        1.535      137.591       61.447        0.199      349.109       29.295      859.745
06/24/2014  14:48:00     -373.182      -15.254      -15.318      209.637      155.674       79.512    43947.677    24234.248     6322.099       10.710        3.725      373.494       74.834        0.040      349.090       29.259      859.772
06/24/2014  14:49:00     -407.602       44.250      -36.330      184.350      174.679       69.725    33985.047    30512.716     4861.572       11.937        3.468      409.997       64.951        0.025      348.780       28.722      859.755
06/24/2014  14:50:00     -382.633     -123.168      -39.735      131.850      130.371       76.550    17384.466    16996.538     5859.889       10.169        2.012      401.968       56.726        0.020      348.820       28.791      859.703
06/24/2014  14:51:00     -410.421      -89.542      -34.027      187.372      129.359       65.337    35108.444    16733.716     4268.907       11.685        2.806      420.075       76.601        0.033      348.811       28.774      859.732
06/24/2014  14:52:00     -175.709      -37.683       11.672      148.777      111.744       69.129    22134.686    12486.745     4778.861        3.591        1.970      179.704       84.790        0.223      348.861       28.864      859.729
06/24/2014  14:53:00     -312.891       -9.263      -14.481      151.882      101.986       60.972    23068.000    10401.147     3717.571        6.768        1.859      313.028       75.850        0.059      348.740       28.653      859.723
06/24/2014  14:54:00     -217.039     -143.576        5.680      185.445      115.277       61.715    34389.666    13288.676     3808.697        5.961        2.574      260.231       69.670        0.072      348.944       29.007      859.729
06/24/2014  14:55:00     -269.741     -139.060       26.074      239.466      152.387       91.617    57343.777    23221.846     8393.763        9.085        4.448      303.476      118.369        0.152      348.764       28.695      859.721
06/24/2014  14:56:00     -416.404     -172.127       -3.722      232.475      141.724       92.145    54044.481    20085.625     8490.690       14.281        4.131      450.577      108.804        0.058      348.693       28.572      859.708
06/24/2014  14:57:00     -475.445     -166.617      -18.649      212.180      168.109       76.334    45020.372    28260.544     5826.903       16.662        3.955      503.795       85.690        0.029      348.548       28.322      859.701
06/24/2014  14:58:00     -278.450     -200.071       -5.225      198.372      158.979       95.605    39351.402    25274.271     9140.361        9.566        3.688      342.874       99.356        0.084      348.749       28.669      859.679
06/24/2014  14:59:00     -366.224       13.301      -25.420      170.837      139.306       75.754    29185.232    19406.119     5738.647        9.463        2.716      366.465       68.857        0.035      348.826       28.804      859.687
06/24/2014  15:00:00     -265.504       -1.531       -7.458      186.751      116.440       65.961    34876.039    13558.341     4350.837        6.166        2.639      265.508       66.841        0.063      349.092       29.263      859.669
06/24/2014  15:01:00     -678.014       14.066      -44.680      215.079      154.401       93.430    46258.864    23839.541     8729.149       27.035        3.941      678.160      103.821        0.023      348.487       28.216      859.669
06/24/2014  15:02:00     -445.820      -82.648      -17.771      174.538      141.711       76.397    30463.457    20081.936     5836.429       13.113        2.819      453.416       77.484        0.029      348.549       28.322      859.654
06/24/2014  15:03:00     -428.161     -194.058      -25.352      194.129      163.038       80.495    37685.883    26581.397     6479.501       14.617        3.537      470.085       69.913        0.022      348.815       28.785      859.669
06/24/2014  15:04:00     -348.079     -266.103       20.443      237.409      195.051      102.817    56363.099    38044.748    10571.245       14.866        5.249      438.143      121.948        0.077      348.460       28.169      859.668
06/24/2014  15:05:00     -380.877      -29.573      -23.493      166.828      190.582       71.478    27831.532    36321.476     5109.092       10.786        3.463      382.024       76.549        0.040      348.383       28.037      859.681
06/24/2014  15:06:00     -216.904     -183.845       13.210      185.131      137.926       86.519    34273.584    19023.570     7485.581        7.089        3.039      284.335       89.556        0.099      348.761       28.689      859.663
06/24/2014  15:07:00     -405.145     -191.307      -25.878      198.903      235.787       93.890    39562.490    55595.439     8815.257       15.267        5.199      448.041       84.371        0.035      348.584       28.382      859.676
06/24/2014  15:08:00     -549.906      -84.332       -4.175      261.533      180.334       92.224    68399.358    32520.397     8505.302       20.945        5.471      556.335      108.609        0.038      348.437       28.129      859.677
06/24/2014  15:09:00     -516.369     -125.816      -25.923      155.511      189.284       73.959    24183.783    35828.508     5469.961       17.430        3.274      531.476       83.813        0.025      348.545       28.315      859.673
06/24/2014  15:10:00     -446.863      -27.511      -32.308      162.579      126.653       70.849    26431.812    16040.988     5019.626       12.448        2.375      447.709       81.550        0.033      348.221       27.754      859.686
06/24/2014  15:11:00     -346.932      -48.020      -33.780      123.566      113.271       54.447    15268.459    12830.357     2964.440        7.743        1.553      350.240       40.612        0.013      348.527       28.285      859.644
06/24/2014  15:12:00     -212.997       29.577      -13.119      116.158       95.067       49.973    13492.596     9037.702     2497.348        3.572        1.251      215.041       50.004        0.054      348.744       28.660      859.634
06/24/2014  15:13:00     -231.211     -152.567       -9.217      165.796      145.046       68.526    27488.234    21038.451     4695.846        6.501        2.661      277.011       64.917        0.055      348.731       28.638      859.618
06/24/2014  15:14:00     -300.028     -160.847      -11.387      167.965      128.756       78.418    28212.365    16578.091     6149.304        8.347        2.547      340.424       87.089        0.065      348.754       28.677      859.610
06/24/2014  15:15:00     -373.976     -115.287        3.945      164.435      132.990       79.431    27038.819    17686.466     6309.257       10.209        2.552      391.342       75.021        0.037      348.873       28.883      859.629
06/24/2014  15:16:00     -226.887      -70.306       15.911      188.743      161.229       99.849    35623.869    25994.710     9969.873        6.412        3.579      237.530      106.328        0.200      348.949       29.016      859.616
06/24/2014  15:17:00      -84.996      -57.650       13.260      146.039      106.051       52.425    21327.298    11246.712     2748.407        2.302        1.766      102.703       67.045        0.426      349.071       29.228      859.611
06/24/2014  15:18:00     -329.028       25.009      -11.866      164.968      115.779       74.179    27214.477    13404.685     5502.506        7.756        2.306      329.977       72.602        0.048      349.257       29.548      859.621
06/24/2014  15:19:00     -226.246     -126.646       -2.801      176.359      146.107       69.162    31102.377    21347.273     4783.338        6.222        2.862      259.280       82.003        0.100      349.234       29.511      859.653
06/24/2014  15:20:00     -292.213     -283.913      -11.969      147.183      133.637       87.554    21662.763    17858.795     7665.712       10.665        2.359      407.425       84.399        0.043      348.678       28.546      859.624
06/24/2014  15:21:00     -196.392     -202.080        6.862      164.402      164.038       81.656    27027.893    26908.413     6667.743        7.002        3.030      281.791       88.429        0.098      348.681       28.553      859.613
06/24/2014  15:22:00     -451.041     -235.312       -3.116      216.920      164.774       98.871    47054.076    27150.632     9775.533       17.138        4.199      508.734       97.284        0.037      348.907       28.942      859.617
06/24/2014  15:23:00     -335.853      -87.848        0.187      244.800      197.447      103.540    59927.204    38985.365    10720.592       11.505        5.482      347.152      125.478        0.131      348.791       28.742      859.672
06/24/2014  15:24:00     -367.517     -201.399       -6.980      169.733      145.202       79.415    28809.137    21083.598     6306.763       11.593        2.810      419.082       81.003        0.037      348.585       28.385      859.657
06/24/2014  15:25:00     -375.455     -148.753        7.388      191.416      140.679       81.209    36640.275    19790.539     6594.949       11.307        3.151      403.849       97.955        0.059      348.529       28.289      859.660
06/24/2014  15:26:00     -142.575     -155.009        4.739      103.978      110.383       62.632    10811.357    12184.353     3922.781        3.564        1.346      210.607       61.019        0.084      348.580       28.376      859.617
06/24/2014  15:27:00     -196.550     -123.912       -5.887      118.588       77.007       53.970    14063.226     5930.125     2912.804        3.846        1.145      232.349       60.030        0.067      348.521       28.276      859.568
06/24/2014  15:28:00     -284.120     -217.895       -5.053      196.397      160.084       84.806    38571.662    25627.044     7192.038        9.980        3.570      358.054       91.056        0.065      348.652       28.502      859.547
06/24/2014  15:29:00     -442.157      -55.405      -29.550      227.801      143.913       89.926    51893.508    20711.072     8086.643       14.005        4.035      445.614      110.577        0.062      348.728       28.632      859.567
06/24/2014  15:30:00     -159.556      -24.786       29.686      194.753       94.549       74.812    37928.620     8939.493     5596.907        3.970        2.623      161.470       92.714        0.330      349.146       29.358      859.584
06/24/2014  15:31:00     -264.391     -123.753        7.564      172.850      138.034       82.210    29877.287    19053.409     6758.530        7.047        2.784      291.921       92.077        0.099      348.784       28.730      859.563
06/24/2014  15:32:00     -397.190     -262.061        1.086      236.903      201.441       92.642    56123.052    40578.410     8582.581       16.584        5.264      475.852      107.205        0.051      348.465       28.178      859.573
06/24/2014  15:33:00     -566.155     -340.031      -19.334      273.837      249.739      133.128    74986.612    62369.381    17723.096       29.577        7.754      660.419      152.859        0.054      348.305       27.901      859.594
06/24/2014  15:34:00     -505.800     -302.544        4.905      238.703      238.402      105.929    56979.252    56835.474    11221.035       23.619        6.252      589.378      109.578        0.035      348.155       27.641      859.606
06/24/2014  15:35:00     -378.381     -233.603        4.536      269.948      213.534      113.446    72872.092    45596.784    12869.882       16.452        6.567      444.682      131.616        0.088      348.353       27.983      859.593
06/24/2014  15:36:00     -399.648     -224.638      -11.164      224.198      178.091      103.538    50264.553    31716.305    10720.184       15.148        4.635      458.455       92.882        0.041      348.511       28.257      859.582
06/24/2014  15:37:00     -458.081     -208.765       -6.880      217.866      167.837       86.440    47465.594    28169.187     7471.952       16.827        4.155      503.409      101.058        0.040      348.462       28.172      859.601
06/24/2014  15:38:00     -330.563     -177.597        6.915      209.033      140.236       80.515    43694.831    19666.068     6482.674       10.534        3.492      375.250       83.759        0.050      348.447       28.146      859.590
06/24/2014  15:39:00     -260.227     -179.549      -16.351      180.966      136.920       69.576    32748.762    18746.979     4840.884        7.827        2.817      316.158       78.863        0.062      348.702       28.588      859.558
06/24/2014  15:40:00     -205.972     -113.051      -17.445      168.687      145.102       63.069    28455.355    21054.510     3977.696        5.449        2.674      234.957       54.291        0.053      348.781       28.725      859.550
06/24/2014  15:41:00     -300.209     -159.845       -6.337      217.360      183.302       86.330    47245.535    33599.777     7452.877       10.199        4.415      340.112       96.437        0.080      348.779       28.722      859.543
06/24/2014  15:42:00     -411.244     -238.832       -9.847      216.001      181.679       96.318    46656.520    33007.357     9277.072       15.758        4.447      475.565      110.949        0.054      348.657       28.509      859.571
06/24/2014  15:43:00     -341.995     -133.181       -2.021      187.519      122.067       71.274    35163.338    14900.451     5079.938        9.491        2.757      367.012       83.550        0.052      348.685       28.559      859.562
06/24/2014  15:44:00     -236.240      -85.665       -0.635      226.017      151.854       87.992    51083.796    23059.674     7742.546        7.250        4.094      251.292      105.601        0.177      348.760       28.691      859.566
06/24/2014  15:45:00     -313.912     -219.406        6.397      254.478      188.800       89.499    64759.122    35645.380     8010.010       12.755        5.421      382.988      105.539        0.076      348.576       28.371      859.564
06/24/2014  15:46:00     -325.159     -168.849        3.829      220.137      168.228      101.406    48460.505    28300.762    10283.257       11.063        4.352      366.386      100.885        0.076      348.511       28.256      859.532
06/24/2014  15:47:00     -431.153     -314.075       -0.174      212.141      191.701       88.324    45003.848    36749.452     7801.064       18.703        4.478      533.419       90.770        0.029      348.465       28.176      859.554
06/24/2014  15:48:00     -389.390     -278.579      -14.404      180.095      124.926       79.960    32434.158    15606.583     6393.530       14.193        2.722      478.780       80.192        0.028      348.414       28.087      859.513
06/24/2014  15:49:00     -439.062     -289.293      -20.951      162.267      133.554       79.141    26330.418    17836.596     6263.273       16.366        2.522      525.801       72.970        0.019      348.522       28.275      859.523
06/24/2014  15:50:00     -487.268     -332.318        1.050      236.558      175.099      109.157    55959.909    30659.829    11915.247       22.318        4.927      589.801      117.819        0.040      348.392       28.052      859.564
06/24/2014  15:51:00     -261.790       -9.389       -0.559      180.723      123.506       74.375    32660.797    15253.634     5531.687        6.102        2.672      261.958       88.308        0.114      348.647       28.494      859.545
06/24/2014  15:52:00     -385.814      -45.916       -8.744      280.778      216.257      129.712    78836.555    46767.023    16825.145       14.670        7.121      388.537      142.137        0.134      348.695       28.576      859.482
06/24/2014  15:53:00     -483.345      -63.523      -19.093      244.983      166.123       94.538    60016.494    27596.906     8937.491       16.727        4.828      487.502      112.813        0.054      348.622       28.449      859.516
06/24/2014  15:54:00     -208.768     -156.367       16.601      180.404      182.851       97.614    32545.644    33434.392     9528.408        7.190        3.775      260.834      108.462        0.173      348.701       28.586      859.543
06/24/2014  15:55:00     -409.462     -163.396       -5.751      214.477      160.787       91.166    46000.508    25852.585     8311.214       13.726        4.008      440.860       91.382        0.043      348.693       28.572      859.545
06/24/2014  15:56:00     -398.371     -266.518        4.492      239.924      219.700      103.393    57563.515    48268.252    10690.188       17.312        5.826      479.303      124.267        0.067      348.487       28.214      859.521
06/24/2014  15:57:00     -476.317     -319.605        5.018      289.709      180.276      119.211    83931.017    32499.570    14211.355       22.982        6.532      573.607      101.246        0.031      348.312       27.913      859.519
06/24/2014  15:58:00     -567.911     -320.325       -0.250      293.421      254.986      117.442    86095.607    65017.849    13792.542       29.499        8.245      652.021      114.390        0.031      348.203       27.724      859.481
06/24/2014  15:59:00     -444.179     -298.393      -11.627      214.205      173.111      109.303    45883.918    29967.355    11947.107       18.712        4.390      535.101       99.700        0.035      348.255       27.813      859.520
06/24/2014  16:00:00     -449.871     -363.806      -25.297      235.963      237.328      113.583    55678.449    56324.472    12901.145       23.012        6.245      578.566      112.436        0.038      348.221       27.756      859.505
06/24/2014  16:01:00     -427.446     -299.441        9.795      224.704      167.414      114.825    50491.920    28027.581    13184.894       18.207        4.585      521.895      122.953        0.056      348.137       27.611      859.481
06/24/2014  16:02:00     -340.755     -144.418      -11.340      191.887      170.942       80.607    36820.747    29221.234     6497.474       10.481        3.627      370.096       97.007        0.069      348.377       28.024      859.544
06/24/2014  16:03:00     -559.091        6.120      -54.111      319.210      188.760       99.294   101894.864    35630.423     9859.268       23.144        7.369      559.124      127.662        0.052      348.587       28.389      859.543
06/24/2014  16:04:00     -410.229      -73.515      -12.835      223.044      188.843       94.167    49748.625    35661.770     8867.364       13.405        4.714      416.764       93.359        0.050      348.639       28.480      859.573
06/24/2014  16:05:00     -374.257      -79.823      -19.704      188.108      187.135       88.057    35384.775    35019.410     7753.969       11.248        3.908      382.675       84.378        0.049      348.451       28.153      859.601
06/24/2014  16:06:00     -366.321       23.695      -29.966      181.187      101.431       69.647    32828.752    10288.337     4850.724        9.180        2.398      367.086       86.804        0.056      348.443       28.138      859.592
06/24/2014  16:07:00     -259.869       56.355       -9.050      181.108      122.359       78.227    32800.173    14971.754     6119.432        6.233        2.695      265.910       90.917        0.117      348.720       28.619      859.550
06/24/2014  16:08:00     -360.293       -8.235      -11.365      175.742      158.813       72.437    30885.215    25221.428     5247.061        9.567        3.068      360.387       71.836        0.040      348.665       28.523      859.543
06/24/2014  16:09:00     -333.262     -152.618      -19.835      151.900      152.455       86.805    23073.614    23242.411     7535.026        9.429        2.693      366.546       70.922        0.037      348.627       28.459      859.527
06/24/2014  16:10:00     -166.701      -68.872       16.582      122.485      139.206       62.243    15002.578    19378.178     3874.132        3.552        1.913      180.368       60.891        0.114      348.842       28.830      859.533
06/24/2014  16:11:00     -202.956      -99.936        8.317      125.925      132.277       68.970    15857.215    17497.104     4756.929        4.467        1.906      226.226       68.317        0.091      348.869       28.878      859.508
06/24/2014  16:12:00     -204.403     -146.528       -0.055      142.750       96.388       59.682    20377.549     9290.608     3561.985        4.823        1.662      251.497       59.458        0.056      348.835       28.818      859.502
06/24/2014  16:13:00     -124.948      -17.781       17.941      146.796      129.159       70.678    21549.203    16682.050     4995.443        2.973        2.161      126.207       77.413        0.376      349.078       29.239      859.467
06/24/2014  16:14:00     -366.108     -138.333       -9.366      258.348      213.137       84.817    66743.821    45427.506     7193.852       13.629        5.968      391.371       91.520        0.055      348.821       28.794      859.475
06/24/2014  16:15:00     -192.885      -70.030        7.091      171.114      110.073       62.427    29280.031    12115.987     3897.165        4.372        2.265      205.204       60.551        0.087      349.130       29.330      859.483
06/24/2014  16:16:00     -444.767     -192.284      -18.209      229.416      137.390       86.304    52631.667    18875.875     7448.365       15.703        3.948      484.552       93.978        0.038      348.753       28.677      859.480
06/24/2014  16:17:00     -525.031     -230.042      -35.420      208.938      180.728       86.727    43655.255    32662.678     7521.528       20.682        4.192      573.217       93.291        0.026      348.436       28.126      859.470
06/24/2014  16:18:00     -309.923     -216.092        0.472      225.544      173.652       90.292    50869.925    30154.910     8152.578       11.595        4.459      377.820       91.642        0.059      348.502       28.242      859.427
06/24/2014  16:19:00     -363.845     -167.910      -11.981      159.769      166.952       82.408    25526.028    27872.824     6791.074       11.045        3.009      400.720       76.137        0.036      348.617       28.440      859.432
06/24/2014  16:20:00     -383.781     -265.486       -0.095      271.856      207.108      101.404    73905.954    42893.921    10282.717       17.241        6.354      466.659      122.715        0.069      348.494       28.227      859.424
06/24/2014  16:21:00     -527.745     -210.162      -16.778      227.985      197.151       83.987    51976.953    38868.378     7053.788       21.042        4.895      568.051      103.607        0.033      348.209       27.736      859.401
06/24/2014  16:22:00     -450.638     -173.898      -23.481      238.058      138.416       79.008    56671.789    19159.109     6242.331       15.796        4.104      483.027       99.764        0.043      348.421       28.101      859.413
06/24/2014  16:23:00     -386.780     -239.525        0.741      230.742      155.666       94.044    53241.666    24231.948     8844.237       14.663        4.316      454.940      102.070        0.050      348.354       27.987      859.406
06/24/2014  16:24:00     -470.626     -237.853      -12.910      248.927      161.728      102.058    61964.572    26156.017    10415.770       18.837        4.927      527.316      120.238        0.052      348.499       28.235      859.391
06/24/2014  16:25:00     -557.488     -369.565      -19.569      235.239      180.527      103.540    55337.179    32589.905    10720.620       27.318        4.932      668.858      104.435        0.024      348.216       27.748      859.374
06/24/2014  16:26:00     -331.376     -290.670       12.274      172.170      174.450       94.413    29642.499    30432.849     8913.879       13.171        3.449      440.794       94.545        0.046      348.471       28.187      859.382
06/24/2014  16:27:00     -378.104     -176.609      -12.847      200.366      182.645       91.070    40146.574    33359.022     8293.766       12.805        4.090      417.316       99.124        0.056      348.504       28.246      859.381
06/24/2014  16:28:00     -364.429     -229.635        3.489      190.344      163.444       85.752    36230.892    26713.817     7353.361       12.791        3.515      430.744       95.581        0.049      348.511       28.257      859.365
06/24/2014  16:29:00     -440.214     -317.017      -18.134      237.839      180.236      100.798    56567.326    32484.983    10160.153       19.690        4.961      542.483      110.466        0.041      348.438       28.131      859.321
06/24/2014  16:30:00     -321.488     -218.776       -3.318      231.537      188.727       90.287    53609.410    35617.912     8151.807       12.429        4.869      388.867      112.063        0.083      348.599       28.409      859.360
06/24/2014  16:31:00     -372.675     -235.549        2.929      243.690      222.884      101.404    59384.580    49677.483    10282.851       15.684        5.967      440.874      119.468        0.073      348.339       27.960      859.340
06/24/2014  16:32:00     -407.225     -106.896       -9.919      200.611      153.908       78.131    40244.945    23687.644     6104.487       12.369        3.502      421.022       84.286        0.040      348.329       27.942      859.341
06/24/2014  16:33:00     -509.032     -217.482      -28.800      296.695      232.899      110.318    88027.664    54242.036    12169.962       23.081        7.722      553.545      122.230        0.049      348.420       28.100      859.304
06/24/2014  16:34:00     -457.727     -178.012      -10.251      238.345      175.033       94.731    56808.514    30636.421     8974.027       16.885        4.821      491.124       89.097        0.033      348.411       28.084      859.342
06/24/2014  16:35:00     -402.826     -194.465      -12.702      266.359      157.908       93.744    70947.271    24934.840     8787.853       15.244        5.233      447.309      104.519        0.055      348.400       28.063      859.335
06/24/2014  16:36:00     -575.449     -139.551      -43.543      281.821      173.269      108.390    79423.139    30022.278    11748.295       23.683        6.060      592.128      126.614        0.046      348.262       27.825      859.340
06/24/2014  16:37:00     -353.854     -229.473      -13.496      215.615      173.945       87.999    46489.705    30256.703     7743.860       13.126        4.225      421.747      108.899        0.067      348.380       28.030      859.304
06/24/2014  16:38:00     -269.911     -155.887       18.998      249.518      160.498      102.046    62259.159    25759.451    10413.322        9.796        4.922      311.694      134.639        0.187      348.406       28.076      859.292
06/24/2014  16:39:00     -299.532      -63.679       -9.623      140.060      131.771       75.005    19616.692    17363.588     5625.723        6.823        2.130      306.226       82.719        0.073      348.692       28.572      859.286
06/24/2014  16:40:00     -186.280     -118.028       45.925      223.275      186.205       97.936    49851.704    34672.191     9591.508        7.241        4.706      220.524      125.264        0.323      348.751       28.672      859.287
06/24/2014  16:41:00     -291.140      -83.133        4.648      165.115      155.692       77.223    27262.982    24239.979     5963.366        7.457        2.873      302.776       73.787        0.059      348.806       28.768      859.309
06/24/2014  16:42:00     -578.894     -128.364      -23.283      256.398      218.674      103.101    65740.136    47818.488    10629.826       23.814        6.209      592.955      121.451        0.042      348.359       27.994      859.291
06/24/2014  16:43:00     -227.535     -124.432       15.296      220.302      168.198      110.121    48532.920    28290.651    12126.531        7.820        4.448      259.337      116.616        0.202      348.435       28.125      859.276
06/24/2014  16:44:00     -190.204      -36.115        8.650      168.634      124.569       64.132    28437.327    15517.466     4112.856        4.280        2.403      193.603       75.363        0.152      348.845       28.836      859.290
06/24/2014  16:45:00     -186.606     -109.326       41.662      235.599      170.312      117.779    55506.968    29006.156    13871.794        7.343        4.919      216.273      140.212        0.420      348.701       28.586      859.275
06/24/2014  16:46:00     -268.412     -217.668        4.463      205.272      209.205       92.572    42136.424    43766.875     8569.542       10.694        4.724      345.578      108.315        0.098      348.354       27.986      859.276
06/24/2014  16:47:00     -526.470     -110.281      -18.490      259.380      191.141      106.328    67277.810    36534.838    11305.599       20.238        5.756      537.897      128.963        0.057      348.178       27.680      859.285
06/24/2014  16:48:00     -376.551     -131.353      -22.838      188.782      139.243       83.694    35638.575    19388.747     7004.704       11.079        3.102      398.804       82.500        0.043      348.261       27.823      859.274
06/24/2014  16:49:00     -273.205     -263.897       -0.522      185.821      134.156       83.473    34529.605    17997.757     6967.684       10.188        2.975      379.845       83.864        0.049      348.428       28.115      859.256
06/24/2014  16:50:00     -379.091     -243.188       15.479      200.502      192.223       90.586    40201.079    36949.820     8205.794       14.421        4.268      450.390       74.502        0.027      348.350       27.978      859.246
06/24/2014  16:51:00     -435.905     -232.204      -11.311      238.392      189.546       88.741    56830.769    35927.757     7875.005       17.233        5.032      493.894      115.446        0.055      348.421       28.102      859.271
06/24/2014  16:52:00     -256.952      -22.272       10.233      213.257      130.045       91.504    45478.644    16911.706     8372.907        6.868        3.538      257.915      101.167        0.154      348.514       28.265      859.255
06/24/2014  16:53:00     -384.760      -29.211      -25.062      142.018      119.752       56.904    20169.183    14340.556     3238.031        9.363        1.887      385.867       58.494        0.023      348.432       28.121      859.244
06/24/2014  16:54:00     -595.794     -201.683      -27.384      217.105      203.656       99.644    47134.699    41475.632     9928.899       24.745        4.927      629.004      109.083        0.030      348.441       28.135      859.227
06/24/2014  16:55:00     -457.982     -381.906      -16.926      240.717      226.211      103.355    57944.885    51171.634    10682.156       23.782        5.990      596.322       97.443        0.027      348.378       28.026      859.206
06/24/2014  16:56:00     -573.772     -285.909      -15.854      323.793      207.346      117.075   104841.662    42992.421    13706.563       28.635        8.077      641.060      142.800        0.050      348.217       27.749      859.218
06/24/2014  16:57:00     -391.188     -223.978       -5.562      173.446      184.531       95.212    30083.604    34051.539     9065.403       13.820        3.660      450.770       99.184        0.048      348.256       27.815      859.219
06/24/2014  16:58:00     -420.918     -136.560      -10.584      202.754      189.116       96.273    41109.226    35764.854     9268.397       14.102        4.307      442.516      105.343        0.057      348.423       28.105      859.227
06/24/2014  16:59:00     -313.064     -248.882       -9.273      246.119      160.573       81.342    60574.703    25783.841     6616.569       12.649        4.649      399.939      102.129        0.065      348.358       27.992      859.251
06/24/2014  17:00:00     -401.224      -88.152        1.827      300.781      183.395      100.991    90469.264    33633.767    10199.106       15.151        6.715      410.794      121.750        0.088      348.432       28.121      859.246
06/24/2014  17:01:00     -593.959      -42.051      -36.054      211.870      158.184       84.168    44888.931    25022.148     7084.336       21.641        3.850      595.446       81.506        0.019      348.049       27.457      859.252
06/24/2014  17:02:00     -496.154     -122.898      -51.746      165.584      170.558       84.512    27418.091    29089.915     7142.269       16.379        3.183      511.148       85.792        0.028      348.177       27.679      859.225
06/24/2014  17:03:00     -330.820     -140.761       23.336      223.595      140.050       82.063    49994.735    19614.119     6734.292       10.306        3.817      359.522       99.722        0.077      348.475       28.194      859.225
06/24/2014  17:04:00     -417.450     -272.089       -4.960      229.978      201.741       95.945    52889.800    40699.341     9205.471       17.554        5.140      498.294      123.909        0.062      348.436       28.128      859.245
06/24/2014  17:05:00     -449.248     -325.679      -14.083      280.191      202.169      124.872    78506.840    40872.273    15593.076       22.151        6.749      554.879      133.423        0.058      348.236       27.780      859.218
06/24/2014  17:06:00     -365.983     -291.161      -17.263      199.520      148.659       89.450    39808.108    22099.435     8001.302       14.445        3.495      467.673      102.948        0.048      348.259       27.821      859.246
06/24/2014  17:07:00     -487.135     -291.760      -18.216      215.431      196.925       95.071    46410.452    38779.471     9038.425       20.848        4.711      567.824      104.832        0.034      348.195       27.710      859.243
06/24/2014  17:08:00     -437.930     -226.539      -13.707      203.204      172.531       81.264    41291.825    29767.099     6603.761       16.046        3.883      493.054       73.649        0.022      348.094       27.535      859.258
06/24/2014  17:09:00     -447.790     -179.793       -8.862      220.298      169.490       92.057    48531.108    28726.884     8474.418       15.931        4.287      482.536       91.037        0.036      348.239       27.787      859.259
06/24/2014  17:10:00     -572.142     -354.246       -6.094      195.226      166.875       98.522    38113.273    27847.173     9706.600       26.426        3.783      672.932       87.911        0.017      348.091       27.531      859.238
06/24/2014  17:11:00     -483.701     -229.104      -28.346      312.438      261.805      126.802    97617.528    68541.941    16078.680       23.472        9.112      535.215      163.087        0.093      348.108       27.561      859.205
06/24/2014  17:12:00     -472.066     -313.550      -17.628      270.935      223.154      120.382    73405.533    49797.811    14491.854       22.956        6.885      566.709      146.573        0.067      348.162       27.652      859.193
06/24/2014  17:13:00     -442.013     -282.654       14.932      281.052      205.044      107.298    78990.369    42043.137    11512.870       20.400        6.627      524.661      137.514        0.069      348.178       27.681      859.203
06/24/2014  17:14:00     -190.079      -48.766       30.920      172.076      114.583       93.175    29609.988    13129.371     8681.607        4.543        2.571      196.235       78.387        0.160      348.387       28.042      859.214
06/24/2014  17:15:00     -354.564     -114.261       -3.509      219.411      185.085       87.144    48141.390    34256.584     7594.076       11.437        4.500      372.520      106.237        0.081      348.274       27.848      859.186
06/24/2014  17:16:00     -429.423      -70.351      -19.436      161.668      161.298       84.948    26136.382    26017.021     7216.111       12.454        2.968      435.147       82.691        0.036      348.280       27.856      859.175
06/24/2014  17:17:00     -306.103     -163.385       -2.812      199.374      194.820       90.011    39749.902    37954.691     8102.004       10.309        4.290      346.978       90.525        0.068      348.363       28.000      859.129
06/24/2014  17:18:00     -359.150     -215.441      -14.631      275.949      203.236       95.673    76148.126    41304.873     9153.358       15.109        6.330      418.812      109.722        0.069      348.317       27.922      859.125
06/24/2014  17:19:00     -508.867     -192.554      -15.113      254.782      233.428      103.418    64913.666    54488.800    10695.379       21.315        6.505      544.080      129.832        0.057      348.315       27.917      859.136
06/24/2014  17:20:00     -449.491     -251.943       -6.950      256.894      232.395      113.791    65994.523    54007.658    12948.294       19.924        6.648      515.284      116.530        0.051      348.196       27.711      859.150
06/24/2014  17:21:00     -456.754     -222.894        3.161      212.787      200.029      102.515    45278.250    40011.791    10509.286       17.704        4.790      508.238      118.212        0.054      348.146       27.626      859.197
06/24/2014  17:22:00     -308.637     -182.895       -7.868      141.058      145.830       74.459    19897.297    21266.532     5544.150        8.773        2.335      358.758       65.844        0.034      348.092       27.532      859.192
06/24/2014  17:23:00     -413.202     -258.990      -22.480      181.176      170.506       86.847    32824.910    29072.245     7542.385       15.387        3.472      487.660      100.479        0.042      348.138       27.612      859.157
06/24/2014  17:24:00     -552.529      -42.931      -22.753      277.362      205.338       99.067    76929.782    42163.655     9814.220       21.826        6.445      554.194      121.236        0.048      348.177       27.679      859.103
06/24/2014  17:25:00     -350.655     -255.517       -8.424      241.017      192.149       96.680    58089.224    36921.147     9347.037       14.632        5.218      433.875      105.969        0.060      348.309       27.908      859.134
06/24/2014  17:26:00     -617.247     -383.351       -9.045      295.251      228.508      135.055    87172.971    52215.959    18239.750       34.280        7.881      726.603      146.500        0.041      348.007       27.386      859.099
06/24/2014  17:27:00     -447.102     -285.523        2.059      272.507      232.201      103.712    74260.289    53917.376    10756.189       21.016        6.947      530.494      113.374        0.046      348.045       27.451      859.104
06/24/2014  17:28:00     -323.423     -196.293       -3.208      211.501      178.030       85.490    44732.493    31694.758     7308.528       11.343        4.187      378.330       84.852        0.050      348.170       27.667      859.147
06/24/2014  17:29:00     -377.868     -256.954      -15.036      275.826      149.242       92.985    76080.103    22273.177     8646.147       15.800        5.350      456.957      122.174        0.071      348.120       27.582      859.146
06/24/2014  17:30:00     -270.015      -63.006       -9.330      129.547      125.147       62.643    16782.472    15661.767     3924.159        5.666        1.818      277.268       62.200        0.050      348.379       28.028      859.112
06/24/2014  17:31:00     -146.734      -81.643       16.225      223.220      133.646       98.338    49827.288    17861.209     9670.407        5.290        3.868      167.918      113.423        0.456      348.464       28.177      859.108
06/24/2014  17:32:00     -314.602     -195.457        4.518      226.964      170.557       96.254    51512.458    29089.525     9264.786       11.352        4.493      370.375      111.744        0.091      348.368       28.009      859.112
06/24/2014  17:33:00     -260.208      -87.914        0.086      142.458      166.905       77.367    20294.262    27857.141     5985.613        6.478        2.707      274.658       72.986        0.071      348.426       28.111      859.130
06/24/2014  17:34:00     -504.625      -32.597        0.627      244.701      195.160       97.928    59878.417    38087.238     9589.854       18.161        5.378      505.677      112.185        0.049      348.411       28.085      859.113
06/24/2014  17:35:00     -500.306     -234.375       -1.365      310.668      171.492      108.348    96514.556    29409.677    11739.265       22.143        6.883      552.483      143.150        0.067      348.025       27.416      859.118
06/24/2014  17:36:00     -335.379     -173.163      -13.428      189.393      156.240       96.604    35869.835    24410.815     9332.395       10.612        3.481      377.445      100.412        0.071      348.163       27.654      859.122
06/24/2014  17:37:00     -371.624     -253.047      -14.660      205.903      144.905       83.856    42396.023    20997.386     7031.818       13.638        3.521      449.596      104.496        0.054      348.128       27.593      859.106
06/24/2014  17:38:00     -370.198     -263.690        7.118      228.367      198.319       99.079    52151.540    39330.304     9816.670       15.395        5.065      454.510      119.785        0.069      348.103       27.551      859.112
06/24/2014  17:39:00     -377.689     -313.039       -0.573      242.033      178.582      107.750    58580.030    31891.416    11610.040       17.134        5.104      490.553      116.385        0.056      348.042       27.445      859.112
06/24/2014  17:40:00     -529.360     -259.994       -9.547      233.598      180.543       90.871    54567.948    32595.943     8257.576       22.165        4.771      589.762       94.742        0.026      347.965       27.313      859.107
06/24/2014  17:41:00     -546.268     -200.285      -42.840      168.046      122.315       87.530    28239.577    14960.995     7661.499       19.560        2.543      581.827       68.451        0.014      347.852       27.118      859.115
06/24/2014  17:42:00     -366.970     -167.729        1.238      232.641      175.587       85.839    54121.817    30830.757     7368.274       12.755        4.616      403.485      100.956        0.063      347.964       27.312      859.095
06/24/2014  17:43:00     -248.728     -114.906        9.874      184.012      120.199       82.214    33860.295    14447.793     6759.098        6.511        2.753      273.987       92.221        0.113      348.233       27.776      859.100
06/24/2014  17:44:00     -281.047     -162.456        8.225      188.114      123.026       70.496    35387.001    15135.517     4969.645        8.046        2.775      324.622       85.124        0.069      348.258       27.821      859.126
06/24/2014  17:45:00     -406.951     -203.175       -4.152      197.046      168.201       93.426    38827.098    28291.504     8728.408       14.136        3.792      454.850       89.236        0.038      348.093       27.534      859.097
06/24/2014  17:46:00     -402.987     -282.710      -29.171      217.421      165.835       89.658    47271.852    27501.383     8038.626       16.298        4.141      492.264      103.773        0.044      348.146       27.627      859.094
06/24/2014  17:47:00     -301.934     -219.698        2.717      224.527      158.739      114.278    50412.473    25198.034    13059.407       11.404        4.433      373.405      129.452        0.120      348.209       27.736      859.102
06/24/2014  17:48:00     -476.883      -73.192       -8.525      301.083      230.546      110.625    90650.877    53151.350    12237.984       19.442        7.802      482.467      143.272        0.088      348.084       27.518      859.117
06/24/2014  17:49:00     -332.448      -73.510        1.456      232.180      173.608       95.919    53907.782    30139.824     9200.536       10.457        4.662      340.478      107.610        0.100      348.181       27.687      859.139
06/24/2014  17:50:00     -306.655     -193.443        2.620      173.890      128.463       79.775    30237.755    16502.852     6364.075        9.228        2.655      362.571       73.894        0.042      348.182       27.688      859.120
06/24/2014  17:51:00     -298.841     -140.764       -9.259      186.674      110.084       75.563    34847.300    12118.587     5709.736        8.093        2.634      330.334       68.433        0.043      348.064       27.484      859.114
06/24/2014  17:52:00     -289.125     -284.174       -3.788      192.564      168.303       79.420    37080.856    28325.962     6307.596       11.803        3.586      405.399       82.755        0.042      348.006       27.383      859.106
06/24/2014  17:53:00     -437.850     -241.265      -28.293      249.546      169.869       81.671    62273.116    28855.403     6670.194       17.424        4.890      499.922      122.857        0.060      347.889       27.182      859.060
06/24/2014  17:54:00     -475.978     -122.408      -24.724      257.827      178.060       90.602    66474.670    31705.480     8208.633       17.425        5.319      491.466      116.547        0.056      348.012       27.395      859.132
06/24/2014  17:55:00     -525.639     -103.868      -16.815      284.493      162.275       99.344    80936.299    26333.076     9869.300       20.223        5.857      535.803      113.823        0.045      347.937       27.264      859.155
06/24/2014  17:56:00     -471.144     -172.584      -19.574      272.004      195.866      106.809    73986.283    38363.535    11408.069       18.793        6.188      501.759      132.244        0.069      347.860       27.131      859.151
06/24/2014  17:57:00     -528.077     -339.121      -11.144      230.693      207.775      125.995    53219.162    43170.265    15874.780       25.311        5.613      627.589      131.093        0.044      347.672       26.807      859.142
06/24/2014  17:58:00     -240.165     -183.052       13.877      185.041      154.924       89.887    34240.098    24001.497     8079.656        7.884        3.316      301.973      102.075        0.114      347.798       27.025      859.154
06/24/2014  17:59:00     -491.939      -78.206      -22.594      271.231      186.051       88.343    73566.074    34614.833     7804.530       18.229        5.799      498.116      115.569        0.054      347.813       27.051      859.159
06/24/2014  18:00:00     -728.820      -60.210      -18.990      327.793      246.498      118.874   107448.299    60761.471    14130.981       35.872        9.117      731.303      148.505        0.041      347.639       26.751      859.118
06/24/2014  18:01:00     -374.790     -100.557      -10.136      273.306      213.104      101.199    74696.427    45413.229    10241.162       14.049        6.518      388.045      124.096        0.102      347.787       27.006      859.129
06/24/2014  18:02:00     -575.419     -128.341      -22.787      252.166      242.623      110.625    63587.935    58865.988    12237.989       24.137        6.735      589.558      119.691        0.041      347.683       26.825      859.108
06/24/2014  18:03:00     -380.471     -157.400      -32.961      173.474      136.910       79.140    30093.368    18744.227     6263.173       11.285        2.755      411.744       77.109        0.035      347.875       27.158      859.145
06/24/2014  18:04:00     -371.438      -61.518       -2.604      223.205      128.086       87.797    49820.503    16405.928     7708.367       10.783        3.697      376.498      101.102        0.072      347.835       27.089      859.130
06/24/2014  18:05:00     -356.709     -121.257        1.898      231.088      201.006       94.093    53401.479    40403.405     8853.486       12.229        5.133      376.755      109.442        0.084      347.928       27.251      859.114
06/24/2014  18:06:00     -508.679     -122.476      -35.189      227.809      225.186       86.847    51897.039    50708.555     7542.330       19.255        5.507      523.216       83.530        0.025      347.720       26.889      859.088
06/24/2014  18:07:00     -613.987     -137.557      -22.818      298.395      168.076       96.532    89039.584    28249.685     9318.401       26.149        6.330      629.207      135.356        0.046      347.617       26.713      859.093
06/24/2014  18:08:00     -265.627     -144.196        1.290      210.104      194.038      116.257    44143.547    37650.663    13515.644        9.331        4.765      302.242      122.437        0.164      347.913       27.225      859.129
06/24/2014  18:09:00     -314.662      -99.424       -7.060      249.876      147.363      102.035    62437.988    21715.782    10411.210       10.174        4.728      329.996      116.493        0.125      347.942       27.273      859.178
06/24/2014  18:10:00     -521.601     -125.675      -29.261      237.675      154.449       90.447    56489.207    23854.456     8180.692       18.861        4.426      536.528      117.998        0.048      347.752       26.945      859.165
06/24/2014  18:11:00     -393.667      -51.493        1.276      211.385      198.052       88.355    44683.478    39224.691     7806.634       12.466        4.586      397.020       92.799        0.055      347.844       27.104      859.143
06/24/2014  18:12:00     -289.580     -137.818       -3.827      167.426      137.491       81.797    28031.327    18903.650     6690.737        7.824        2.681      320.703       91.070        0.081      347.912       27.223      859.140
06/24/2014  18:13:00     -449.910     -144.762      -17.487      227.882      194.765       83.002    51930.201    37933.540     6889.327       16.020        4.838      472.625       90.703        0.037      347.785       27.002      859.153
06/24/2014  18:14:00     -465.653     -153.719      -19.040      308.089      203.034      117.058    94918.672    41222.702    13702.556       19.531        7.492      490.370      138.652        0.080      347.746       26.935      859.135
06/24/2014  18:15:00     -438.583     -122.660       -3.891      280.762      172.275       94.929    78827.278    29678.720     9011.600       16.245        5.876      455.413      119.333        0.069      347.714       26.880      859.134
06/24/2014  18:16:00     -654.183     -146.379      -65.005      232.052      210.236       93.092    53848.285    44199.113     8666.212       28.014        5.336      670.359      100.434        0.022      347.518       26.541      859.118
06/24/2014  18:17:00     -328.456     -118.127       -4.548      199.175      171.993       90.502    39670.773    29581.480     8190.537        9.964        3.872      349.052       97.292        0.078      347.737       26.920      859.137
06/24/2014  18:18:00     -443.856     -136.496       -2.650      213.428      195.747       97.722    45551.637    38316.938     9549.642       15.452        4.671      464.369      111.587        0.058      347.641       26.754      859.142
06/24/2014  18:19:00     -527.312     -362.965       -8.887      264.400      187.574      116.991    69907.579    35183.908    13686.831       26.431        5.939      640.157      134.227        0.044      347.515       26.538      859.124
06/24/2014  18:20:00     -527.367     -358.997      -31.800      288.053      212.282      118.938    82974.700    45063.596    14146.345       27.507        7.109      637.962      139.319        0.048      347.493       26.499      859.116
06/24/2014  18:21:00     -450.299     -238.177       -0.733      286.128      186.115      109.269    81869.034    34638.845    11939.686       19.395        6.422      509.409      132.717        0.068      347.473       26.463      859.097
06/24/2014  18:22:00     -428.675     -286.523        7.994      247.108      167.719      102.767    61062.164    28129.730    10561.014       18.282        4.988      515.614      111.770        0.047      347.580       26.648      859.112
06/24/2014  18:23:00     -329.989     -241.355       -2.072      210.495      184.915       89.314    44308.029    34193.525     7976.952       12.680        4.324      408.834       97.690        0.057      347.600       26.683      859.114
06/24/2014  18:24:00     -461.407     -247.274        1.513      250.200      205.105      103.149    62599.976    42067.858    10639.788       19.466        5.765      523.489      113.352        0.047      347.479       26.475      859.116
06/24/2014  18:25:00     -542.876     -271.410      -17.555      330.296      188.614      110.783   109095.126    35575.284    12272.884       26.279        7.847      606.942      155.178        0.065      347.459       26.439      859.121
06/24/2014  18:26:00     -304.062     -149.277       -2.152      209.537      183.252       95.215    43905.690    33581.458     9065.954       10.063        4.328      338.729      101.365        0.090      347.667       26.799      859.163
06/24/2014  18:27:00     -336.322     -184.462       10.176      207.480      183.610      106.957    43048.109    33712.550    11439.885       11.771        4.410      383.586      114.584        0.089      347.637       26.748      859.177
06/24/2014  18:28:00     -305.624      -87.825       11.948      250.707      133.449       84.756    62853.810    17808.713     7183.567        9.454        4.392      317.993      112.113        0.124      347.735       26.918      859.197
06/24/2014  18:29:00     -162.728      -90.152       21.664      139.025      117.169       67.613    19327.953    13728.619     4571.555        3.635        1.881      186.032       61.167        0.108      347.886       27.177      859.217
06/24/2014  18:30:00     -437.086      -90.707      -22.558      192.175      141.210       78.506    36931.082    19940.291     6163.268       13.140        3.152      446.399       86.964        0.038      347.647       26.764      859.192
06/24/2014  18:31:00     -400.402     -163.233      -14.417      272.726      231.203      122.526    74379.469    53454.977    15012.727       16.499        7.142      432.396      131.107        0.092      347.739       26.922      859.226
06/24/2014  18:32:00     -550.761     -158.764      -29.240      243.503      214.028      101.516    59293.495    45807.890    10305.460       22.238        5.770      573.188      112.228        0.038      347.502       26.514      859.211
06/24/2014  18:33:00     -500.444     -197.361      -16.252      278.534      283.813      116.575    77581.019    80549.824    13589.786       23.066        8.586      537.955      131.985        0.060      347.460       26.441      859.165
06/24/2014  18:34:00     -563.947     -105.624      -16.727      250.231      178.063      105.250    62615.796    31706.461    11077.569       21.742        5.270      573.753      127.809        0.050      347.480       26.476      859.163
06/24/2014  18:35:00     -378.513     -119.584       -7.373      234.881      178.337      109.562    55168.956    31804.073    12003.869       12.829        4.949      396.954      119.736        0.091      347.550       26.598      859.190
06/24/2014  18:36:00     -406.700     -178.461        0.127      255.347      213.877      103.195    65202.317    45743.193    10649.268       15.940        6.080      444.132      131.169        0.087      347.520       26.545      859.175
06/24/2014  18:37:00     -384.564     -174.573       -0.429      183.157      136.117       82.552    33546.325    18527.838     6814.776       11.862        2.944      422.333       87.671        0.043      347.531       26.565      859.205
06/24/2014  18:38:00     -571.387     -161.541      -41.678      282.806      177.655      106.560    79979.509    31561.404    11355.021       23.859        6.145      593.783      126.368        0.045      347.466       26.452      859.232
06/24/2014  18:39:00     -388.148      -56.759      -12.940      165.010      184.735       72.007    27228.206    34127.199     5184.976       11.028        3.327      392.276       58.577        0.022      347.532       26.565      859.225
06/24/2014  18:40:00     -561.219     -102.535      -15.165      273.175      235.184       94.986    74624.801    55311.463     9022.394       23.231        6.948      570.509      108.131        0.036      347.465       26.451      859.202
06/24/2014  18:41:00     -459.777     -314.558        0.131      280.165      199.454      123.541    78492.278    39781.883    15262.291       22.192        6.677      557.083      132.454        0.057      347.425       26.380      859.231
06/24/2014  18:42:00     -378.080     -234.683        5.415      259.484      178.994      120.684    67332.015    32038.825    14564.550       15.597        5.697      444.995      138.358        0.097      347.314       26.189      859.190
06/24/2014  18:43:00     -632.627     -215.228      -19.541      232.147      175.541      102.082    53892.358    30814.653    10420.657       27.101        4.756      668.236      113.259        0.029      347.283       26.137      859.240
06/24/2014  18:44:00     -295.164     -104.859      -11.041      148.669       95.045       63.012    22102.599     9033.559     3970.499        6.667        1.755      313.236       71.416        0.052      347.433       26.397      859.243
06/24/2014  18:45:00     -401.332     -226.562       -8.037      247.888      173.493       97.440    61448.469    30099.742     9494.611       15.674        5.052      460.866      107.666        0.055      347.434       26.398      859.260
06/24/2014  18:46:00     -514.329     -359.055       -0.110      267.637      221.763      118.308    71629.605    49179.041    13996.876       26.411        6.740      627.260      135.490        0.047      347.259       26.095      859.224
06/24/2014  18:47:00     -441.429      -32.531        4.353      323.679      177.685      109.208   104768.418    31572.020    11926.407       17.208        7.413      442.626      131.968        0.089      347.333       26.224      859.251
06/24/2014  18:48:00     -295.210      -58.075       20.665      209.780      198.133       90.854    44007.505    39256.594     8254.471        9.122        4.576      300.868       95.256        0.100      347.383       26.308      859.271
06/24/2014  18:49:00     -609.831     -144.921      -38.089      219.044      253.174      119.249    47980.228    64096.935    14220.413       26.030        6.315      626.814      108.118        0.030      347.230       26.045      859.265
06/24/2014  18:50:00     -532.122     -114.305      -36.248      260.418      214.056      113.746    67817.488    45820.091    12938.232       21.203        6.329      544.261      104.399        0.037      347.241       26.065      859.253
06/24/2014  18:51:00     -453.124     -233.919        1.940      235.956      207.266      108.413    55675.161    42959.347    11753.480       18.520        5.519      509.941      126.708        0.062      347.231       26.048      859.295
06/24/2014  18:52:00     -494.255     -352.847       -6.891      250.106      214.403      127.252    62552.808    45968.723    16193.093       24.675        6.236      607.280      123.670        0.041      347.194       25.982      859.239
06/24/2014  18:53:00     -562.917     -296.871        2.450      320.778      230.207      120.171   102898.438    52995.441    14440.978       28.765        8.517      636.402      142.455        0.050      347.227       26.039      859.231
06/24/2014  18:54:00     -390.697     -197.962       11.282      207.506      177.941       85.855    43058.586    31662.963     7371.059       13.701        4.105      437.987       99.826        0.052      347.341       26.237      859.284
06/24/2014  18:55:00     -583.020     -322.914      -31.402      250.228      285.446      116.785    62614.086    81479.536    13638.674       30.143        7.887      666.473      130.935        0.039      347.201       25.995      859.267
06/24/2014  18:56:00     -513.367     -212.475       -0.514      297.099      203.456      123.970    88267.785    41394.494    15368.477       22.684        7.252      555.600      151.943        0.075      347.166       25.935      859.285
06/24/2014  18:57:00     -469.317     -309.312      -13.291      278.076      246.447      135.065    77326.303    60735.907    18242.564       23.618        7.815      562.078      139.518        0.062      347.147       25.903      859.269
06/24/2014  18:58:00     -500.624     -218.065       -5.896      263.195      219.186      114.336    69271.761    48042.712    13072.673       21.428        6.519      546.055      134.242        0.060      347.128       25.868      859.284
06/24/2014  18:59:00     -441.859      -46.554      -11.030      248.524      181.098       98.881    61764.396    32796.513     9777.434       15.092        5.217      444.305      120.392        0.073      347.202       25.997      859.305
06/24/2014  19:00:00     -536.090     -219.926      -32.637      209.127      227.651      102.280    43733.900    51825.045    10461.136       22.140        5.301      579.448      103.462        0.032      347.165       25.933      859.320
06/24/2014  19:01:00     -496.241      -86.018      -24.576      283.368      187.124      102.164    80297.585    35015.351    10437.461       18.998        6.288      503.641      131.561        0.068      347.213       26.017      859.330
06/24/2014  19:02:00     -522.669     -199.695       -5.306      327.829      250.718      128.836   107472.005    62859.708    16598.783       24.998        9.347      559.519      155.758        0.077      347.128       25.869      859.297
06/24/2014  19:03:00     -516.096     -237.806        9.213      278.980      192.895      109.237    77829.622    37208.479    11932.620       22.496        6.349      568.249      133.387        0.055      347.102       25.825      859.323
06/24/2014  19:04:00     -257.706      -77.769       15.361      216.164      184.242       94.120    46727.089    33944.977     8858.656        8.110        4.477      269.185      107.728        0.160      347.240       26.062      859.344
06/24/2014  19:05:00     -426.742     -314.024       -7.524      275.653      221.230      125.484    75984.785    48942.675    15746.185       21.070        7.034      529.830      131.004        0.061      347.158       25.921      859.319
06/24/2014  19:06:00     -660.925     -336.848      -16.913      340.003      304.983      143.347   115602.047    93014.594    20548.251       38.983       11.458      741.815      157.215        0.045      346.992       25.636      859.288
06/24/2014  19:07:00     -526.436     -358.117      -27.625      275.391      192.516      134.475    75840.087    37062.560    18083.654       26.854        6.549      636.697      130.744        0.042      347.015       25.675      859.319
06/24/2014  19:08:00     -659.560     -318.065      -35.394      282.216      217.101      111.394    79645.980    47132.777    12408.591       33.829        6.959      732.247      125.526        0.029      346.986       25.626      859.321
06/24/2014  19:09:00     -582.047     -294.280      -15.877      319.069      249.553      129.511   101805.015    62276.578    16773.190       30.321        9.043      652.212      155.582        0.057      346.965       25.588      859.291
06/24/2014  19:10:00     -491.198     -258.995       -1.609      273.784      242.306      143.369    74957.430    58712.208    20554.579       23.126        7.711      555.297      160.568        0.084      346.989       25.629      859.292
06/24/2014  19:11:00     -372.767     -227.145       -3.316      244.319      171.813       98.878    59691.633    29519.842     9776.775       14.476        4.949      436.520      112.460        0.066      347.010       25.667      859.328
06/24/2014  19:12:00     -392.408     -256.526       -0.148      287.045      204.970      110.257    82394.622    42012.521    12156.574       17.815        6.828      468.817      140.117        0.089      346.994       25.638      859.358
06/24/2014  19:13:00     -471.570     -200.401      -16.105      273.448      198.183      103.805    74773.908    39276.659    10775.492       19.379        6.241      512.386      139.443        0.074      346.987       25.627      859.357
06/24/2014  19:14:00     -223.549     -134.963       19.149      181.676      178.631      104.933    33006.064    31909.049    11010.987        7.223        3.796      261.130      110.396        0.179      347.053       25.741      859.384
06/24/2014  19:15:00     -403.199     -232.553       -5.562      270.363      200.068      103.412    73096.286    40027.068    10693.946       17.023        6.191      465.457      121.060        0.068      347.002       25.652      859.368
06/24/2014  19:16:00     -441.926     -277.453       -9.943      249.109      196.995      114.646    62055.199    38807.153    13143.776       19.317        5.700      521.804      103.215        0.039      346.936       25.539      859.330
06/24/2014  19:17:00     -417.997     -280.150      -10.572      197.670      192.017       93.659    39073.276    36870.616     8771.956       16.900        4.236      503.195       85.936        0.029      346.958       25.577      859.347
06/24/2014  19:18:00     -562.437     -297.685      -30.028      312.173      187.388      136.880    97452.235    35114.377    18736.120       27.855        7.565      636.358      140.849        0.049      346.905       25.485      859.338
06/24/2014  19:19:00     -362.119     -180.359       -4.442      203.799      175.112       88.723    41534.207    30664.128     7871.716       12.186        4.004      404.548       85.604        0.045      346.933       25.533      859.374
06/24/2014  19:20:00     -197.982     -135.093       33.703      234.488      181.322      117.600    54984.450    32877.587    13829.676        8.012        5.085      239.681      126.804        0.280      346.998       25.646      859.359
06/24/2014  19:21:00     -401.062     -215.121      -10.696      226.810      192.413      101.473    51442.850    37022.944    10296.762       15.299        4.938      455.113      105.639        0.054      346.901       25.478      859.370
06/24/2014  19:22:00     -345.503     -149.880       -1.233      207.135      172.503       87.726    42905.037    29757.452     7695.873       11.108        4.018      376.612       99.697        0.070      346.951       25.565      859.387
06/24/2014  19:23:00     -321.576     -202.554       -3.698      268.790      175.986      116.860    72248.317    30970.999    13656.224       13.064        5.844      380.052      133.387        0.123      346.915       25.503      859.382
06/24/2014  19:24:00     -371.456     -222.402      -26.001      216.207      180.598      103.601    46745.589    32615.594    10733.260       13.909        4.505      432.946      125.480        0.084      346.903       25.481      859.373
06/24/2014  19:25:00     -516.201     -185.420      -13.011      235.936      180.509      109.940    55665.976    32583.466    12086.801       20.066        5.017      548.493      127.659        0.054      346.875       25.434      859.369
06/24/2014  19:26:00     -495.581     -180.521      -30.215      238.196      203.444       90.760    56737.205    41389.646     8237.310       19.271        5.318      527.435       91.625        0.030      346.823       25.345      859.354
06/24/2014  19:27:00     -521.972     -171.076      -28.990      307.241      212.442      101.325    94396.964    45131.503    10266.712       22.615        7.490      549.292      112.414        0.042      346.817       25.333      859.371
06/24/2014  19:28:00     -698.580      -93.913      -60.453      244.991      203.679      106.584    60020.663    41485.106    11360.200       30.666        5.643      704.865      107.680        0.023      346.733       25.188      859.374
06/24/2014  19:29:00     -242.880     -143.360       27.573      286.542      176.949      107.068    82106.305    31311.017    11463.617       10.257        6.244      282.033      134.721        0.228      346.846       25.383      859.360
06/24/2014  19:30:00     -478.656     -108.852      -30.218      277.499      130.914      108.313    77005.851    17138.600    11731.601       17.386        5.294      490.877      136.506        0.077      346.794       25.295      859.390
06/24/2014  19:31:00     -385.044      -72.685      -12.227      227.492      154.183      102.562    51752.531    23772.299    10518.999       11.985        4.302      391.844      118.683        0.092      346.794       25.294      859.430
06/24/2014  19:32:00     -265.246      -61.199        8.757      180.331      132.940       85.795    32519.358    17673.170     7360.735        6.586        2.878      272.215       86.701        0.101      346.858       25.405      859.447
06/24/2014  19:33:00     -271.364     -108.253       10.621      208.811      186.119       92.039    43601.864    34640.342     8471.217        8.608        4.336      292.159       84.516        0.084      346.843       25.377      859.454
06/24/2014  19:34:00     -541.350     -176.516      -30.394      246.777      215.361      108.918    60898.807    46380.269    11863.079       22.212        5.957      569.401      107.373        0.036      346.704       25.138      859.464
06/24/2014  19:35:00     -565.834     -210.729       -8.823      295.518      243.852      115.133    87331.175    59463.809    13255.520       26.232        8.003      603.801      119.626        0.039      346.694       25.121      859.474
06/24/2014  19:36:00     -490.630     -164.684       -6.631      228.896      214.660      112.969    52393.184    46078.898    12762.044       18.954        5.562      517.531      110.006        0.045      346.694       25.123      859.508
06/24/2014  19:37:00     -348.061     -166.850        1.581      207.537      196.663       86.605    43071.609    38676.148     7500.416       11.910        4.462      385.986       92.141        0.057      346.725       25.177      859.515
06/24/2014  19:38:00     -378.272     -225.202       -0.283      171.878      184.313       84.782    29542.104    33971.327     7188.025       13.224        3.535      440.234       75.379        0.029      346.693       25.121      859.521
06/24/2014  19:39:00     -414.512     -228.722      -14.481      182.827      190.663       98.725    33425.579    36352.387     9746.577       15.192        3.976      473.428       78.221        0.027      346.667       25.076      859.521
06/24/2014  19:40:00     -253.713      -65.598       24.869      205.103      151.038       95.119    42067.321    22812.498     9047.694        7.160        3.696      262.056       83.231        0.101      346.690       25.115      859.562
06/24/2014  19:41:00     -198.130     -115.678       24.171      230.374      195.422      110.305    53072.282    38189.880    12167.083        7.831        5.171      229.427      120.025        0.274      346.679       25.097      859.502
06/24/2014  19:42:00     -411.858     -162.022        0.542      238.804      203.393      102.427    57027.152    41368.656    10491.304       15.236        5.444      442.581       96.307        0.047      346.614       24.985      859.522
06/24/2014  19:43:00     -394.831      -92.534      -20.907      186.998      167.142       88.199    34968.100    27936.547     7779.118       11.778        3.534      405.530       90.934        0.050      346.622       24.998      859.501
06/24/2014  19:44:00     -472.991     -131.727        2.014      289.887      213.185      134.538    84034.457    45448.011    18100.585       19.431        7.379      490.992      145.542        0.088      346.586       24.937      859.469
06/24/2014  19:45:00     -368.370     -209.669       -0.661      329.408      192.689      126.023   108509.832    37129.091    15881.836       17.056        8.076      423.861      156.530        0.136      346.588       24.941      859.457
06/24/2014  19:46:00     -407.454     -119.567        6.874      238.016      184.396       97.932    56651.838    34001.804     9590.584       14.029        5.012      424.635      101.244        0.057      346.570       24.909      859.490
06/24/2014  19:47:00     -532.838     -156.575      -22.767      256.620      210.231       99.810    65853.694    44197.214     9962.066       21.446        6.001      555.366       97.736        0.031      346.574       24.915      859.510
06/24/2014  19:48:00     -485.910     -113.115      -10.504      228.802      197.612      104.757    52350.456    39050.664    10974.052       17.568        5.119      498.903      111.500        0.050      346.534       24.849      859.531
06/24/2014  19:49:00     -362.779      -32.745       -3.240      291.134      156.315       88.745    84759.126    24434.272     7875.678       12.486        5.853      364.254      115.133        0.100      346.551       24.878      859.550
06/24/2014  19:50:00     -342.420        5.603       -1.387      204.866      163.229       97.479    41969.921    26643.856     9502.178        9.769        3.906      342.466      102.298        0.089      346.538       24.854      859.548
06/24/2014  19:51:00     -287.515     -191.429       15.625      211.559      180.735      102.749    44757.147    32665.013    10557.350       10.375        4.399      345.413      121.356        0.123      346.541       24.859      859.551
06/24/2014  19:52:00     -446.223     -176.513      -16.788      242.205      184.747       96.794    58663.355    34131.406     9369.115       16.634        5.108      479.867       98.446        0.042      346.488       24.768      859.527
06/24/2014  19:53:00     -346.036     -204.313        2.249      173.316      132.402       82.791    30038.485    17530.364     6854.427       10.795        2.721      401.852       81.540        0.041      346.491       24.773      859.567
06/24/2014  19:54:00     -288.060     -113.477        6.039      214.388      147.775       95.264    45962.405    21837.403     9075.173        8.637        3.844      309.606      104.304        0.113      346.483       24.759      859.594
06/24/2014  19:55:00     -404.655     -212.682      -14.064      248.333      171.021      104.641    61669.431    29248.078    10949.815       15.551        5.093      457.143      111.066        0.059      346.465       24.728      859.577
06/24/2014  19:56:00     -421.634     -242.803       -6.559      266.661      214.152      122.424    71108.165    45860.877    14987.572       18.434        6.598      486.547      148.420        0.093      346.423       24.656      859.621
06/24/2014  19:57:00     -444.242      -66.472       -9.400      255.240      218.885       85.781    65147.446    47910.537     7358.297       16.112        6.021      449.187      100.331        0.050      346.402       24.620      859.621
06/24/2014  19:58:00     -478.177     -111.694      -26.902      222.384      141.510       86.559    49454.569    20024.986     7492.409       15.940        3.849      491.049       94.125        0.037      346.379       24.581      859.618
06/24/2014  19:59:00     -544.452     -144.279      -35.014      231.897      167.233       82.328    53776.419    27967.000     6777.888       20.348        4.426      563.245       59.437        0.011      346.347       24.526      859.601
06/24/2014  20:00:00     -455.609     -168.980        2.763      275.532      226.616      115.674    75918.115    51354.862    13380.561       18.837        7.033      485.936      123.015        0.064      346.333       24.502      859.587
06/24/2014  20:01:00     -533.704     -174.437      -28.087      249.543      200.484      107.043    62271.826    40193.829    11458.181       21.497        5.696      561.488      113.744        0.041      346.329       24.495      859.614
06/24/2014  20:02:00     -540.286     -234.936      -30.080      313.659      153.564       99.602    98381.690    23581.774     9920.647       23.992        6.594      589.155      118.984        0.041      346.345       24.523      859.651
06/24/2014  20:03:00     -579.151      -73.198      -30.381      254.151      192.591      105.388    64592.477    37091.460    11106.626       22.722        5.640      583.758      124.277        0.045      346.313       24.468      859.664
06/24/2014  20:04:00     -480.056      -31.631      -26.475      241.440      199.853      111.167    58293.185    39941.132    12358.008       17.136        5.530      481.097      118.099        0.060      346.302       24.448      859.676
06/24/2014  20:05:00     -353.272     -223.020      -13.746      243.374      184.454       98.860    59230.785    34023.225     9773.302       13.886        5.151      417.778      107.239        0.066      346.310       24.463      859.704
06/24/2014  20:06:00     -440.478     -191.093      -14.858      293.340      184.495       97.457    86048.288    34038.305     9497.900       18.015        6.479      480.143      120.183        0.063      346.285       24.418      859.701
06/24/2014  20:07:00     -397.311     -157.068       -1.359      291.433      183.163      117.399    84933.283    33548.585    13782.576       15.737        6.613      427.231      147.471        0.119      346.270       24.394      859.678
06/24/2014  20:08:00     -512.355     -205.789      -10.277      295.691      182.925      105.785    87432.919    33461.502    11190.436       21.850        6.604      552.138      132.714        0.058      346.254       24.367      859.697
06/24/2014  20:09:00     -515.400     -274.604      -16.834      303.739      208.414      124.586    92257.573    43436.336    15521.639       24.625        7.561      583.990      131.165        0.050      346.237       24.336      859.688
06/24/2014  20:10:00     -459.846     -101.939      -18.848      288.439      213.741      133.349    83197.264    45685.124    17782.005       18.441        7.333      471.010      141.319        0.090      346.242       24.344      859.686
06/24/2014  20:11:00     -458.044     -155.704       -8.114      245.849      243.279       96.787    60441.896    59184.495     9367.660       18.153        6.450      483.786       98.684        0.042      346.223       24.310      859.714
06/24/2014  20:12:00     -410.286     -279.914      -14.730      227.901      175.204      113.398    51938.937    30696.354    12859.079       17.118        4.775      496.675      109.467        0.049      346.200       24.272      859.730
06/24/2014  20:13:00     -327.283     -168.334        6.653      294.819      210.631      115.482    86918.213    44365.510    13336.099       14.003        7.231      368.036      132.200        0.129      346.192       24.260      859.738
06/24/2014  20:14:00     -409.252     -140.798      -24.433      287.215      193.765      115.555    82492.313    37544.695    13352.980       16.063        6.669      432.795      139.998        0.105      346.193       24.259      859.734
06/24/2014  20:15:00     -354.663     -174.736        2.999      255.715      203.132      105.987    65389.992    41262.558    11233.236       13.709        5.894      395.371      110.109        0.078      346.183       24.244      859.718
06/24/2014  20:16:00     -374.736     -176.744        6.339      227.383      191.304      102.724    51702.977    36597.177    10552.261       13.526        4.943      414.325      110.547        0.071      346.151       24.188      859.730
06/24/2014  20:17:00     -189.811     -140.636       11.229      161.704      141.807       93.095    26148.188    20109.222     8666.736        5.542        2.746      236.234       89.312        0.143      346.162       24.209      859.739
06/24/2014  20:18:00     -213.504     -136.581       25.375      236.942      218.669      130.128    56141.282    47816.248    16933.274        9.287        6.045      253.453      145.790        0.331      346.138       24.167      859.731
06/24/2014  20:19:00     -516.261       21.119      -39.183      233.357      175.866       85.224    54455.581    30928.809     7263.070       18.056        4.632      516.693       93.265        0.033      346.108       24.113      859.733
06/24/2014  20:20:00     -283.368     -156.120      -10.351      175.312      178.856       87.246    30734.341    31989.329     7611.788        8.754        3.517      323.528       95.903        0.088      346.108       24.113      859.739
06/24/2014  20:21:00     -393.633     -195.810      -10.429      239.165      236.474      113.634    57199.726    55920.104    12912.711       15.969        6.302      439.645      114.669        0.068      346.090       24.085      859.713
06/24/2014  20:22:00     -456.982     -223.024      -12.830      222.365      248.260      109.660    49446.382    61632.986    12025.253       19.090        6.155      508.500      113.075        0.049      346.071       24.051      859.725
06/24/2014  20:23:00     -423.552     -295.811       -1.083      259.638      187.078      112.771    67411.871    34998.020    12717.289       19.100        5.756      516.624      139.818        0.073      346.074       24.055      859.738
06/24/2014  20:24:00     -469.826     -257.653      -24.389      222.257      168.839      115.043    49397.996    28506.651    13234.973       18.941        4.557      535.837      103.854        0.038      346.058       24.028      859.727
06/24/2014  20:25:00     -424.733     -217.404       -3.953      220.124      208.338      105.673    48454.535    43404.596    11166.867       16.533        5.151      477.140      107.320        0.051      346.043       24.003      859.734
06/24/2014  20:26:00     -567.510     -189.854      -20.100      301.745      200.804      132.567    91049.975    40322.417    17573.990       25.371        7.447      598.425      166.258        0.077      346.037       23.993      859.727
06/24/2014  20:27:00     -363.448     -118.592       24.784      285.966      185.436      118.621    81776.341    34386.342    14070.936       13.848        6.512      382.307      146.937        0.148      346.028       23.977      859.749
06/24/2014  20:28:00     -549.001      -95.077       -8.967      255.472      187.046       99.112    65266.055    34986.132     9823.130       21.028        5.504      557.173      109.272        0.038      346.012       23.950      859.740
06/24/2014  20:29:00     -214.690      -61.047        6.589      155.068      126.168       76.983    24046.007    15918.474     5926.411        4.787        2.295      223.200       88.670        0.158      346.014       23.955      859.736
06/24/2014  20:30:00     -439.681     -218.999       -9.631      319.820      216.039      120.657   102284.627    46672.969    14558.230       20.242        8.176      491.203      149.249        0.092      345.983       23.902      859.712
06/24/2014  20:31:00     -523.049     -165.277      -18.577      218.348      234.064      111.682    47675.945    54785.896    12472.893       20.807        5.747      548.541      111.643        0.041      345.967       23.873      859.716
06/24/2014  20:32:00     -527.921     -209.924       -9.975      356.163      200.777      125.978   126852.126    40311.461    15870.521       25.292        9.152      568.127      163.578        0.083      345.969       23.877      859.704
06/24/2014  20:33:00     -490.610     -198.565      -21.758      198.810      182.759       83.684    39525.305    33400.857     7002.955       18.025        3.996      529.270       90.893        0.029      345.970       23.879      859.715
06/24/2014  20:34:00     -358.290     -174.352       -7.844      219.205      188.467       96.683    48050.836    35519.714     9347.658       12.586        4.646      398.460      105.158        0.070      345.964       23.868      859.716
06/24/2014  20:35:00     -386.460     -154.334       -4.155      275.427      170.356      105.653    75860.010    29021.047    11162.654       14.460        5.802      416.138      128.047        0.095      345.948       23.840      859.728
06/24/2014  20:36:00     -474.045     -218.799      -22.426      343.374      254.378      123.600   117905.653    64707.923    15276.902       23.546        9.895      522.103      138.283        0.070      345.927       23.804      859.701
06/24/2014  20:37:00     -451.904      -39.364        6.041      234.910      163.011      101.401    55182.750    26572.594    10282.086       14.890        4.602      453.615      114.070        0.063      345.903       23.763      859.720
06/24/2014  20:38:00     -383.589     -173.498       -9.647      179.812      145.079       92.358    32332.449    21048.022     8529.981       11.961        3.096      421.001      102.846        0.060      345.906       23.767      859.740
06/24/2014  20:39:00     -357.550     -207.973       -9.599      193.903      166.704       94.163    37598.517    27790.390     8866.695       12.271        3.713      413.636      100.944        0.060      345.900       23.756      859.711
06/24/2014  20:40:00     -375.219     -140.110      -15.529      245.467      203.144      106.273    60254.148    41267.445    11293.984       13.672        5.641      400.525      118.029        0.087      345.885       23.732      859.697
06/24/2014  20:41:00     -518.859     -243.099      -32.416      231.719      198.010       91.906    53693.895    39207.983     8446.643       21.534        5.067      572.985       85.850        0.022      345.867       23.700      859.710
06/24/2014  20:42:00     -517.415     -174.351      -20.794      274.963      215.290      105.621    75604.622    46349.993    11155.705       21.581        6.656      546.001      130.450        0.057      345.837       23.651      859.723
06/24/2014  20:43:00     -310.329      -88.853       -8.404      266.226      185.451      105.181    70876.398    34392.086    11062.948       11.028        5.817      322.799      111.198        0.119      345.841       23.659      859.709
06/24/2014  20:44:00     -505.847     -193.177      -20.061      286.337      248.679      114.974    81988.631    61841.264    13219.067       22.530        7.852      541.479      141.580        0.068      345.821       23.623      859.719
06/24/2014  20:45:00     -432.670     -281.660      -15.632      210.782      200.895      109.442    44429.056    40358.882    11977.447       18.176        4.838      516.271      109.807        0.045      345.808       23.600      859.699
06/24/2014  20:46:00     -517.442     -296.856      -35.520      249.941      234.002      127.108    62470.348    54756.790    16156.570       24.524        6.669      596.548      144.907        0.059      345.829       23.636      859.710
06/24/2014  20:47:00     -299.854     -154.450       11.555      238.498      162.439       99.560    56881.459    26386.296     9912.263       10.352        4.659      337.294      108.188        0.103      345.823       23.626      859.751
06/24/2014  20:48:00     -443.704     -121.971      -34.755      230.869      194.184       89.026    53300.693    37707.616     7925.677       15.593        4.947      460.163       81.719        0.032      345.803       23.590      859.791
06/24/2014  20:49:00     -303.425     -166.029        1.604      211.128      185.109       74.543    44574.883    34265.328     5556.644       10.200        4.220      345.879       83.745        0.059      345.800       23.587      859.801
06/24/2014  20:50:00     -268.966      -49.013        5.779      186.738      157.422       87.442    34871.262    24781.695     7646.040        7.103        3.365      273.395       92.681        0.115      345.773       23.540      859.822
06/24/2014  20:51:00     -400.687     -252.769      -18.489      233.868      183.162       96.217    54694.087    33548.362     9257.767       16.113        4.875      473.753       94.985        0.040      345.759       23.517      859.828
06/24/2014  20:52:00     -438.245     -138.507      -17.594      226.694      169.518      100.035    51390.310    28736.419    10007.033       15.083        4.507      459.611      110.509        0.058      345.741       23.487      859.845
06/24/2014  20:53:00     -451.825      -59.909      -16.871      316.578      130.583       94.866   100221.324    17051.792     8999.556       16.713        6.314      455.780      132.154        0.084      345.746       23.496      859.860
06/24/2014  20:54:00     -468.427     -127.122      -28.336      211.537      188.694       86.707    44747.776    35605.412     7518.086       16.211        4.394      485.370       85.035        0.031      345.720       23.450      859.879
06/24/2014  20:55:00     -177.529      -64.634        0.740      145.302      125.447       78.355    21112.581    15736.894     6139.466        3.933        2.149      188.929       80.961        0.184      345.716       23.444      859.862
06/24/2014  20:56:00     -379.234     -235.211       -9.339      232.089      157.010       92.881    53865.214    24652.057     8626.868       14.317        4.357      446.254      103.217        0.053      345.684       23.388      859.869
06/24/2014  20:57:00     -268.045     -187.146       -4.860      175.184      132.904       80.515    30689.470    17663.429     6482.686        8.086        2.742      326.913       84.946        0.068      345.685       23.388      859.878
06/24/2014  20:58:00     -341.653      -14.844       -3.984      227.186      143.043       74.092    51613.618    20461.351     5489.577        9.725        3.878      341.976       70.345        0.042      345.657       23.342      859.905
06/24/2014  20:59:00     -297.850      -38.369        3.439      247.316      146.763      102.949    61165.065    21539.282    10598.576        9.174        4.665      300.311      132.712        0.195      345.638       23.308      859.886
06/24/2014  21:00:00     -467.143     -234.325      -13.719      252.470      146.453      104.140    63741.303    21448.362    10845.234       18.466        4.802      522.619      128.461        0.060      345.643       23.316      859.884
06/24/2014  21:01:00     -446.885     -268.497      -24.386      296.983      238.051      117.399    88198.645    56668.162    13782.596       21.549        7.932      521.341      129.116        0.061      345.667       23.359      859.906
06/24/2014  21:02:00     -287.208     -195.451       18.484      278.116      204.558      126.741    77348.436    41843.879    16063.347       12.812        6.763      347.404      127.844        0.135      345.666       23.356      859.926
06/24/2014  21:03:00     -247.673     -132.105       -4.272      190.176      139.786       65.888    36167.062    19540.161     4341.285        6.942        3.002      280.702       80.683        0.083      345.670       23.362      859.976
06/24/2014  21:04:00     -429.473     -135.591      -14.004      230.369      158.792      103.886    53069.890    25214.800    10792.254       14.604        4.454      450.369      119.245        0.070      345.633       23.300      859.976
06/24/2014  21:05:00     -363.796     -166.499      -32.756      171.870      256.358       93.066    29539.409    65719.556     8661.248       13.251        5.196      400.086       93.511        0.055      345.640       23.310      859.982
06/24/2014  21:06:00     -355.019     -237.194      -22.447      172.555      172.562       87.983    29775.115    29777.551     7741.066       12.504        3.365      426.966       86.270        0.041      345.617       23.271      859.996
06/24/2014  21:07:00     -490.979     -141.908      -22.891      267.687      183.754       86.566    71656.110    33765.435     7493.722       18.730        5.646      511.075      105.443        0.043      345.602       23.247      859.992
06/24/2014  21:08:00     -373.439     -144.479       -8.646      310.027      210.233      127.090    96116.537    44197.859    16151.847       15.841        7.823      400.413      148.226        0.137      345.599       23.241      860.005
06/24/2014  21:09:00     -524.672     -115.978      -22.330      251.590      150.475       90.123    63297.688    22642.583     8122.186       19.163        4.703      537.337      102.661        0.037      345.594       23.231      860.020
06/24/2014  21:10:00     -422.015      -90.216      -34.050      153.901      146.594       75.200    23685.671    21489.736     5655.007       11.910        2.542      431.550       78.033        0.033      345.598       23.238      860.026
06/24/2014  21:11:00     -354.746      -89.071      -16.435      170.140      137.780       83.110    28947.467    18983.285     6907.215        9.443        2.742      365.757       88.906        0.059      345.579       23.206      860.034
06/24/2014  21:12:00     -270.765     -143.068        7.085      186.370      111.735       72.147    34733.612    12484.738     5205.121        7.312        2.621      306.239       87.932        0.082      345.541       23.143      860.053
06/24/2014  21:13:00     -438.481     -165.262       -9.758      194.766      160.015       81.989    37933.744    25604.702     6722.223       14.495        3.513      468.590       95.358        0.041      345.539       23.139      860.070
06/24/2014  21:14:00     -430.714      -39.041       -5.369      221.461      173.129       84.219    49045.118    29973.570     7092.824       13.658        4.306      432.480       86.024        0.040      345.517       23.101      860.076
06/24/2014  21:15:00     -407.408     -136.762       -9.259      246.576      163.506      102.881    60799.507    26734.107    10584.469       14.143        4.906      429.750      116.710        0.074      345.514       23.094      860.101
06/24/2014  21:16:00     -267.392      -55.860        8.778      174.772      129.806       87.533    30545.205    16849.611     7662.098        6.487        2.753      273.165       93.142        0.116      345.527       23.119      860.124
06/24/2014  21:17:00     -440.336      -60.115      -20.406      205.448      142.791       88.826    42208.739    20389.127     7890.031       13.420        3.524      444.421      100.026        0.051      345.486       23.045      860.172
06/24/2014  21:18:00     -429.302      -56.569      -19.383      172.945      133.488       81.129    29910.112    17819.163     6581.851       12.108        2.716      433.013       83.633        0.037      345.479       23.034      860.170
06/24/2014  21:19:00     -378.778      -56.267       -4.311      217.046      140.200       80.120    47108.816    19656.015     6419.289       10.991        3.659      382.934       98.182        0.066      345.452       22.988      860.208
06/24/2014  21:20:00     -326.139      -46.903       -5.804      199.615      133.716       75.318    39845.960    17880.078     5672.849        8.599        3.170      329.494       85.978        0.068      345.435       22.958      860.221
06/24/2014  21:21:00     -320.461      -47.110      -10.885      164.231      151.267       75.325    26971.672    22881.662     5673.902        8.027        2.776      323.905       72.159        0.050      345.452       22.986      860.235
06/24/2014  21:22:00     -289.763     -125.532      -22.997      105.211       76.679       53.579    11069.379     5879.637     2870.740        6.003        0.991      315.786       49.434        0.025      345.452       22.987      860.242
06/24/2014  21:23:00     -292.420      -89.660       -9.388      180.466      121.069       70.272    32568.071    14657.779     4938.101        7.289        2.608      305.857       71.695        0.055      345.450       22.984      860.245
06/24/2014  21:24:00     -131.587      -50.423       28.324      182.764      148.824       97.795    33402.684    22148.465     9563.808        4.288        3.256      140.917       89.151        0.400      345.451       22.988      860.240
06/24/2014  21:25:00     -261.344      -67.299        7.371      187.175      154.544       86.133    35034.528    23883.704     7418.922        6.960        3.317      269.870       86.543        0.103      345.429       22.949      860.274
06/24/2014  21:26:00     -231.164     -104.613       -0.722      148.625      115.744       62.941    22089.343    13396.732     3961.617        5.191        1.972      253.733       66.067        0.068      345.402       22.904      860.302
06/24/2014  21:27:00     -268.725      -51.292      -20.616      170.689       90.010       48.606    29134.888     8101.863     2362.512        5.743        1.980      273.577       60.798        0.049      345.388       22.880      860.324
06/24/2014  21:28:00     -326.674      -65.878       -7.746      163.761      111.318       70.448    26817.684    12391.652     4962.917        7.764        2.209      333.250       72.928        0.048      345.347       22.810      860.331
06/24/2014  21:29:00     -222.441      -63.965       -4.750      132.344      106.710       57.967    17514.963    11387.119     3360.200        4.292        1.613      231.456       61.489        0.071      345.340       22.799      860.367
06/24/2014  21:30:00     -138.616      -61.294        5.902      114.003       97.569       62.110    12996.639     9519.740     3857.688        2.469        1.319      151.563       64.684        0.182      345.324       22.771      860.376
06/24/2014  21:31:00     -208.792     -106.354        1.532      110.721       93.194       63.806    12259.189     8685.116     4071.193        3.996        1.251      234.319       69.290        0.087      345.297       22.722      860.387
06/24/2014  21:32:00     -292.852     -141.573       -6.027      144.771      129.971       67.234    20958.755    16892.589     4520.440        7.410        2.119      325.277       74.818        0.053      345.304       22.735      860.399
06/24/2014  21:33:00     -207.344      -52.404        4.058      116.198       89.762       60.566    13502.034     8057.175     3668.263        3.549        1.261      213.864       64.740        0.092      345.282       22.696      860.405
06/24/2014  21:34:00     -368.221     -142.807      -10.329      196.485      125.639       84.456    38606.256    15785.189     7132.775       10.880        3.076      394.944      100.389        0.065      345.305       22.736      860.408
06/24/2014  21:35:00     -394.748     -100.427      -25.309      201.132      174.372       83.971    40454.083    30405.514     7051.115       12.222        3.896      407.322       96.557        0.056      345.296       22.722      860.390
06/24/2014  21:36:00     -319.453      -80.997       -4.980      142.106      129.301       81.634    20193.982    16718.659     6664.136        7.610        2.179      329.561       80.252        0.059      345.268       22.672      860.398
06/24/2014  21:37:00     -471.662     -267.932      -13.254      228.180      159.057       84.954    52066.105    25299.269     7217.141       18.949        4.229      542.451       89.484        0.027      345.271       22.680      860.423
06/24/2014  21:38:00     -329.872      -85.782       -9.942      156.556      139.766       74.379    24509.651    19534.512     5532.302        8.292        2.479      340.843       79.956        0.055      345.229       22.606      860.437
06/24/2014  21:39:00     -242.849      -87.322       -0.061      184.212      131.132       65.297    33934.107    17195.499     4263.691        6.099        2.770      258.071       72.745        0.079      345.215       22.584      860.421
06/24/2014  21:40:00     -402.165     -134.687       -7.523      207.268      199.843       93.094    42959.941    39937.151     8666.468       13.573        4.578      424.120       91.331        0.046      345.216       22.583      860.412
06/24/2014  21:41:00     -414.467       -2.865      -26.691      178.486      135.010       75.625    31857.174    18227.726     5719.186       11.414        2.790      414.477       89.404        0.047      345.204       22.561      860.436
06/24/2014  21:42:00     -445.440     -104.236      -16.442      237.934      181.991       89.566    56612.395    33120.689     8021.993       15.364        4.888      457.473      108.277        0.056      345.192       22.544      860.454
06/24/2014  21:43:00     -325.476     -173.450       -1.504      219.371      183.671       86.761    48123.717    33734.889     7527.542       11.269        4.469      368.808      100.888        0.075      345.212       22.578      860.436
06/24/2014  21:44:00     -374.387     -216.263      -13.806      208.113      171.228      100.470    43310.850    29319.113    10094.268       13.491        4.136      432.360      105.015        0.059      345.207       22.569      860.461
06/24/2014  21:45:00     -295.115      -84.408       15.573      241.271      166.497       99.688    58211.926    27721.388     9937.758        9.515        4.794      306.948      126.292        0.169      345.201       22.560      860.467
06/24/2014  21:46:00     -315.170     -119.985      -21.449      214.878      122.661       74.588    46172.402    15045.757     5563.341        9.047        3.339      337.236       99.245        0.087      345.197       22.552      860.491
06/24/2014  21:47:00     -326.278     -188.955      -14.282      132.837      145.079       64.904    17645.541    21048.042     4212.580        9.263        2.145      377.044       62.335        0.027      345.175       22.513      860.492
06/24/2014  21:48:00     -315.272     -153.906        1.897      199.888      190.688       98.509    39955.022    36362.021     9704.045       10.454        4.301      350.833       90.739        0.067      345.151       22.473      860.493
06/24/2014  21:49:00     -332.748     -135.722        5.404      221.438      154.177       81.662    49034.940    23770.415     6668.700       10.431        3.974      359.363       98.583        0.075      345.146       22.465      860.475
06/24/2014  21:50:00     -434.916     -191.323      -30.573      199.906      180.928      100.952    39962.441    32734.855    10191.328       15.478        4.144      475.138       96.778        0.041      345.163       22.493      860.479
06/24/2014  21:51:00     -409.858     -200.054      -16.529      200.403      156.168       91.536    40161.380    24388.313     8378.797       14.059        3.646      456.076       92.893        0.041      345.143       22.459      860.476
06/24/2014  21:52:00     -228.875      -96.905       18.786      197.841      140.285       84.596    39140.900    19679.824     7156.420        6.404        3.299      248.544      106.689        0.184      345.112       22.408      860.492
06/24/2014  21:53:00     -256.056     -144.235        7.853      164.905      150.034       68.000    27193.769    22510.178     4623.950        7.037        2.716      293.884       77.975        0.070      345.115       22.413      860.525
06/24/2014  21:54:00     -307.353     -206.156       -7.249      189.076      167.550       91.191    35749.614    28072.995     8315.722       10.457        3.607      370.090      101.700        0.076      345.117       22.417      860.509
06/24/2014  21:55:00     -329.555     -192.088       -0.633      250.112      164.747       92.945    62556.145    27141.436     8638.774       12.190        4.917      381.450      125.888        0.109      345.111       22.407      860.494
06/24/2014  21:56:00     -359.082     -181.892       -7.908      197.508      143.986       82.114    39009.409    20732.044     6742.641       11.427        3.324      402.523       82.052        0.042      345.106       22.396      860.504
06/24/2014  21:57:00     -347.594     -198.860        3.050      197.483      147.935       85.922    38999.450    21884.688     7382.545       11.431        3.413      400.459       84.832        0.045      345.083       22.358      860.526
06/24/2014  21:58:00     -284.701     -162.692      -17.353      174.961      168.295       80.576    30611.400    28323.322     6492.438        8.661        3.271      327.907       77.880        0.056      345.076       22.345      860.529
06/24/2014  21:59:00     -404.939     -205.458        1.121      289.689      164.491      101.834    83919.781    27057.285    10370.081       16.375        6.067      454.080      128.720        0.080      345.057       22.314      860.500
06/24/2014  22:00:00     -258.304      -77.409       13.747      220.952      179.429       82.532    48819.763    32194.721     6811.599        8.035        4.391      269.654       98.605        0.134      345.032       22.272      860.496
06/24/2014  22:01:00     -413.477     -252.175      -33.017      187.745      180.865       84.492    35248.225    32712.115     7138.921       15.536        3.755      484.309       79.594        0.027      345.029       22.266      860.510
06/24/2014  22:02:00     -318.218     -144.123      -20.823      155.346      138.626       70.998    24132.246    19217.185     5040.781        8.542        2.420      349.334       53.901        0.024      345.024       22.257      860.539
06/24/2014  22:03:00     -294.333     -142.235       11.018      232.576      141.705       94.976    54091.571    20080.295     9020.513        9.507        4.160      326.899      124.661        0.145      344.998       22.212      860.554
06/24/2014  22:04:00     -276.302     -141.371       -9.371      155.123      129.913       69.877    24063.166    16877.500     4882.804        7.111        2.291      310.368       71.399        0.053      345.000       22.216      860.580
06/24/2014  22:05:00     -427.739     -171.344      -16.924      260.846      186.396       81.147    68040.409    34743.450     6584.917       16.097        5.468      460.781      101.967        0.049      344.994       22.204      860.564
06/24/2014  22:06:00     -474.120      -49.531      -44.906      212.641      139.669       61.362    45216.321    19507.356     3765.255       14.886        3.424      476.700       83.886        0.031      344.967       22.158      860.552
06/24/2014  22:07:00     -563.807     -157.013      -15.612      204.766      185.762       96.239    41929.109    34507.425     9262.015       21.422        4.285      585.261       98.476        0.028      344.932       22.098      860.523
06/24/2014  22:08:00     -335.024      -82.391        2.822      276.728      139.579       87.864    76578.172    19482.360     7720.146       11.139        5.189      345.007      115.759        0.113      344.923       22.084      860.574
06/24/2014  22:09:00     -249.798      -31.858       10.221      181.506      124.666       70.393    32944.328    15541.523     4955.210        5.847        2.672      251.821       84.551        0.113      344.900       22.045      860.618
06/24/2014  22:10:00     -339.638     -131.502      -20.194      166.052      118.630       67.785    27573.347    14073.090     4594.844        8.964        2.312      364.207       67.731        0.035      344.914       22.068      860.633
06/24/2014  22:11:00     -362.275     -141.581       -2.853      202.898      151.799       76.469    41167.779    23042.877     5847.574       11.067        3.503      388.958       88.891        0.052      344.904       22.051      860.662
06/24/2014  22:12:00     -330.286     -128.274      -20.656      202.638      157.047       84.713    41062.178    24663.749     7176.337        9.942        3.645      354.320      102.897        0.084      344.929       22.093      860.651
06/24/2014  22:13:00     -208.837     -122.694       -6.289      101.613      104.228       57.588    10325.225    10863.548     3316.375        4.160        1.225      242.212       55.141        0.052      344.904       22.051      860.683
06/24/2014  22:14:00     -331.343      -28.364      -17.923      145.714      111.273       59.449    21232.564    12381.758     3534.140        7.403        1.857      332.555       61.524        0.034      344.881       22.011      860.693
06/24/2014  22:15:00     -315.053      -31.429      -12.381      187.914      108.758       62.431    35311.540    11828.202     3897.607        7.571        2.552      316.617       78.808        0.062      344.885       22.019      860.686
06/24/2014  22:16:00     -341.045      -19.164       -2.250      184.686      109.452       80.113    34108.867    11979.732     6418.036        8.459        2.625      341.583       97.689        0.082      344.865       21.984      860.666
06/24/2014  22:17:00     -463.625     -138.974      -34.654      161.628      116.915       80.330    26123.587    13669.122     6452.931       14.085        2.312      484.006       84.643        0.031      344.860       21.976      860.678
06/24/2014  22:18:00     -423.775      -96.996      -12.429      236.632      130.600       83.530    55994.616    17056.444     6977.201       13.457        4.001      434.734       98.152        0.051      344.835       21.932      860.689
06/24/2014  22:19:00     -449.660     -180.338      -17.292      228.101      164.870       99.637    52030.110    27182.180     9927.505       16.206        4.457      484.475      105.538        0.047      344.843       21.945      860.667
06/24/2014  22:20:00     -414.252     -138.392       -9.466      210.160      157.716       86.555    44167.282    24874.190     7491.843       13.368        3.827      436.757       86.670        0.039      344.817       21.900      860.674
06/24/2014  22:21:00     -435.691      -52.777      -16.295      198.922      128.358       87.816    39570.004    16475.746     7711.710       12.831        3.188      438.876      104.866        0.057      344.814       21.895      860.714
06/24/2014  22:22:00     -485.397     -122.143      -26.935      147.542      183.878       82.487    21768.758    33811.077     6804.128       15.681        3.119      500.529       67.117        0.018      344.839       21.938      860.730
06/24/2014  22:23:00     -345.129     -135.373      -10.237      182.276      147.900       67.817    33224.574    21874.546     4599.207        9.861        2.985      370.728       80.986        0.048      344.817       21.902      860.747
06/24/2014  22:24:00     -449.731      -47.292      -19.499      247.066      203.077       86.971    61041.431    41240.332     7563.911       15.734        5.492      452.211       92.775        0.042      344.814       21.896      860.757
06/24/2014  22:25:00     -514.721      -56.278      -36.147      242.259      157.941       98.685    58689.436    24945.291     9738.670       18.138        4.669      517.788      103.311        0.040      344.810       21.890      860.755
06/24/2014  22:26:00     -400.537     -111.447      -14.729      206.401      190.375       85.710    42601.346    36242.454     7346.210       12.961        4.310      415.752       97.990        0.056      344.797       21.867      860.758
06/24/2014  22:27:00     -485.988      -66.559      -13.229      218.142      124.121       84.096    47585.920    15406.058     7072.059       15.542        3.503      490.525       98.508        0.040      344.798       21.868      860.771
06/24/2014  22:28:00     -350.774      -98.224       -4.715      189.281      185.330       86.562    35827.413    34347.268     7493.051       10.518        3.883      364.267       87.097        0.057      344.775       21.830      860.783
06/24/2014  22:29:00     -229.486      -57.706        7.320      184.672      139.781       91.266    34103.632    19538.835     8329.462        5.900        3.099      236.630       89.318        0.142      344.775       21.831      860.781
06/24/2014  22:30:00     -389.254     -144.580      -15.522      205.694      203.169       84.682    42309.831    41277.587     7171.061       13.170        4.538      415.238       94.071        0.051      344.768       21.817      860.777
06/24/2014  22:31:00     -397.987      -49.803        5.404      224.549      193.683       91.097    50422.373    37513.204     8298.715       12.855        4.812      401.091      102.365        0.065      344.775       21.830      860.765
06/24/2014  22:32:00     -350.242      -50.273       -3.994      172.563      135.218       81.308    29777.983    18283.972     6611.070        8.993        2.734      353.832       83.198        0.055      344.770       21.821      860.757
06/24/2014  22:33:00     -479.308     -118.831      -37.316      315.832      175.426       92.106    99749.561    30774.217     8483.425       19.211        6.950      493.819      123.947        0.063      344.791       21.858      860.768
06/24/2014  22:34:00     -326.411      -54.768       -3.440      156.160      167.674       78.093    24385.895    28114.512     6098.572        8.407        2.930      330.974       79.730        0.058      344.762       21.808      860.780
06/24/2014  22:35:00     -435.222     -114.835       -5.509      191.364      144.621       95.574    36620.102    20915.171     9134.303       13.464        3.333      450.117       99.349        0.049      344.772       21.823      860.778
06/24/2014  22:36:00     -270.956     -133.675        6.192      200.754      167.622      104.770    40302.234    28097.137    10976.712        8.534        3.969      302.136      121.169        0.161      344.782       21.842      860.783
06/24/2014  22:37:00     -345.190     -105.590       -2.262      184.303      139.690       78.976    33967.778    19513.182     6237.259        9.500        2.986      360.979       84.108        0.054      344.758       21.801      860.783
06/24/2014  22:38:00     -179.305      -67.106        6.370      150.525      101.027       65.078    22657.825    10206.526     4235.126        3.689        1.855      191.451       82.402        0.185      344.734       21.759      860.771
06/24/2014  22:39:00     -391.290     -224.008      -20.060      282.369      182.085      103.631    79732.047    33155.032    10739.383       16.364        6.181      450.874      105.523        0.055      344.732       21.756      860.763
06/24/2014  22:40:00     -495.295     -215.568      -39.887      208.811      185.643      102.260    43601.986    34463.238    10457.183       19.094        4.426      540.172      105.633        0.038      344.749       21.785      860.774
06/24/2014  22:41:00     -268.478     -116.414        4.768      172.688      163.869       98.597    29821.109    26852.918     9721.352        7.601        3.320      292.631      102.108        0.122      344.728       21.749      860.761
06/24/2014  22:42:00     -325.939      -97.839      -14.188      183.904      152.578       81.365    33820.506    23280.028     6620.248        8.985        3.186      340.307       82.908        0.059      344.750       21.787      860.758
06/24/2014  22:43:00     -253.242     -103.502       -5.639      199.670      117.584       73.785    39867.993    13826.064     5444.219        6.700        2.957      273.577       95.620        0.122      344.745       21.778      860.757
06/24/2014  22:44:00     -333.440      -85.646       -0.505      164.103      145.349       71.385    26929.931    21126.310     5095.763        8.583        2.658      344.263       72.999        0.045      344.711       21.720      860.762
06/24/2014  22:45:00     -193.613      -17.555       12.136      116.035      110.075       75.111    13464.016    12116.416     5641.643        3.458        1.561      194.407       56.649        0.085      344.692       21.689      860.751
06/24/2014  22:46:00     -294.609      -72.397      -11.772      129.918      134.883       76.797    16878.593    18193.500     5897.790        6.657        2.048      303.374       74.480        0.060      344.687       21.678      860.770
06/24/2014  22:47:00     -198.077     -109.360       11.290      165.160      143.958       82.209    27277.677    20723.951     6758.248        5.303        2.738      226.261       79.941        0.125      344.663       21.637      860.765
06/24/2014  22:48:00     -490.207      -97.442      -20.256      160.703      152.470       67.148    25825.547    23247.124     4508.869       15.189        2.679      499.798       60.485        0.015      344.670       21.649      860.759
06/24/2014  22:49:00     -434.775      -41.235      -17.375      163.816      142.299       86.578    26835.745    20249.063     7495.808       12.280        2.729      436.726       89.499        0.042      344.659       21.630      860.766
06/24/2014  22:50:00     -336.658      -42.887       -7.159      220.099      203.931      101.725    48443.507    41587.868    10348.018       10.779        5.019      339.378      114.991        0.115      344.679       21.665      860.749
06/24/2014  22:51:00     -277.363     -117.864       -5.274      206.325      135.784       84.117    42569.937    18437.258     7075.640        7.945        3.404      301.367       86.323        0.082      344.642       21.602      860.764
06/24/2014  22:52:00     -435.954     -123.596      -17.981      187.116      156.511       83.301    35012.565    24495.541     6939.123       13.604        3.322      453.136       90.397        0.040      344.638       21.595      860.767
06/24/2014  22:53:00     -410.824     -174.076      -13.822      195.982      164.721       84.086    38408.848    27133.091     7070.458       13.593        3.631      446.183       76.829        0.030      344.631       21.582      860.750
06/24/2014  22:54:00     -309.853      -34.430        7.901      172.315      128.606       77.944    29692.344    16539.564     6075.301        7.477        2.615      311.760       75.669        0.059      344.615       21.555      860.754
06/24/2014  22:55:00     -301.699     -183.389       14.504      242.885      158.793       96.052    58993.162    25215.326     9225.918       10.913        4.672      353.063      126.343        0.128      344.616       21.558      860.745
06/24/2014  22:56:00     -380.755     -136.950      -24.888      264.951      149.593       73.499    70198.790    22378.070     5402.064       13.115        4.899      404.635       68.210        0.028      344.648       21.611      860.741
06/24/2014  22:57:00     -295.713      -92.454       -5.820      211.445      201.423       90.245    44709.001    40571.326     8144.237        9.471        4.671      309.829       98.213        0.100      344.619       21.563      860.743
06/24/2014  22:58:00     -293.939      -81.306      -15.207      158.545      132.418       72.893    25136.668    17534.549     5313.433        7.061        2.399      304.977       79.837        0.069      344.582       21.500      860.736
06/24/2014  22:59:00     -360.572      -80.318      -22.551      226.413      167.367       80.852    51262.857    28011.634     6537.080       11.138        4.291      369.409       92.885        0.063      344.582       21.499      860.741
06/24/2014  23:00:00     -394.291      -38.099      -17.987      230.745      155.119       93.381    53243.190    24061.992     8719.987       12.162        4.301      396.127      110.643        0.078      344.585       21.505      860.734
06/24/2014  23:01:00     -467.257      -63.878      -13.809      150.652      133.675       87.679    22696.085    17868.919     7687.522       13.542        2.413      471.603       90.067        0.036      344.553       21.451      860.735
06/24/2014  23:02:00     -374.059      -18.172       -8.108      162.680      169.910       76.191    26464.757    28869.511     5805.093       10.072        3.057      374.500       77.223        0.043      344.531       21.413      860.725
06/24/2014  23:03:00     -347.385      -95.571      -25.155      163.725      153.445       71.085    26805.798    23545.473     5053.138        9.291        2.770      360.292       74.187        0.042      344.545       21.437      860.733
06/24/2014  23:04:00     -391.382     -132.031       -4.293      193.184      136.092       94.786    37320.032    18520.986     8984.299       11.772        3.241      413.053      106.664        0.067      344.516       21.388      860.725
06/24/2014  23:05:00     -321.842      -69.456      -17.285      162.488      124.964       72.672    26402.460    15616.104     5281.278        7.799        2.365      329.251       74.763        0.052      344.518       21.390      860.748
06/24/2014  23:06:00     -298.104     -129.559       -1.702      162.153      140.773       72.447    26293.683    19816.927     5248.621        7.850        2.568      325.041       90.216        0.077      344.481       21.327      860.751
06/24/2014  23:07:00     -260.831     -152.114      -25.130      181.596      168.418       82.776    32977.041    28364.647     6851.881        7.999        3.410      301.946       90.053        0.089      344.508       21.374      860.736
06/24/2014  23:08:00     -264.564      -73.876       -9.081      112.036      118.788       67.865    12552.042    14110.566     4605.641        5.340        1.563      274.685       47.364        0.030      344.479       21.325      860.772
06/24/2014  23:09:00     -318.409      -84.152       -8.877      142.037       97.551       65.588    20174.605     9516.219     4301.741        7.126        1.700      329.341       68.767        0.044      344.465       21.300      860.783
06/24/2014  23:10:00     -348.312     -129.209       -5.106      146.670      177.098       89.492    21512.143    31363.782     8008.842        9.945        3.044      371.505       86.201        0.054      344.476       21.318      860.790
06/24/2014  23:11:00     -342.766     -190.489       -1.418      188.411      142.171       84.399    35498.738    20212.730     7123.155       10.830        3.142      392.141       75.400        0.037      344.508       21.374      860.767
06/24/2014  23:12:00     -320.781      -30.381       -4.823      170.707      169.419       73.132    29140.844    28702.940     5348.274        8.351        3.160      322.216       69.458        0.046      344.478       21.321      860.792
06/24/2014  23:13:00     -253.867     -141.501       -1.010      133.556      108.748       65.909    17837.156    11826.122     4343.945        5.923        1.700      290.639       67.892        0.055      344.495       21.351      860.796
06/24/2014  23:14:00     -173.655      -78.254       10.539      177.376      114.790       74.468    31462.358    13176.760     5545.464        4.328        2.509      190.472       79.372        0.174      344.458       21.289      860.794
06/24/2014  23:15:00     -376.437     -124.164      -14.717      138.559      101.396       67.146    19198.573    10281.207     4508.598        9.566        1.699      396.386       51.908        0.017      344.466       21.302      860.788
06/24/2014  23:16:00     -370.476     -130.892      -15.669      245.690      131.924       78.299    60363.792    17403.986     6130.784       11.925        4.195      392.919       95.251        0.059      344.478       21.322      860.809
06/24/2014  23:17:00     -359.345     -114.064      -18.509      196.016      139.390       77.646    38422.232    19429.605     6028.886       10.317        3.194      377.013       97.861        0.067      344.463       21.297      860.819
06/24/2014  23:18:00     -238.410      -42.768        5.208      154.931      112.398       69.045    24003.745    12633.247     4767.149        5.004        2.070      242.216       68.354        0.080      344.450       21.274      860.813
06/24/2014  23:19:00     -320.883     -133.897      -14.668      123.843      124.094       64.055    15337.060    15399.366     4103.084        7.797        1.742      347.698       60.109        0.030      344.447       21.269      860.811
06/24/2014  23:20:00     -411.411     -111.692      -28.200      161.824      115.300       66.330    26187.157    13294.158     4399.652       11.320        2.194      426.303       69.691        0.027      344.444       21.263      860.805
06/24/2014  23:21:00     -363.856      -42.262       -6.733      153.530      113.024       75.137    23571.493    12774.507     5645.542        8.810        2.100      366.302       83.134        0.052      344.404       21.194      860.828
06/24/2014  23:22:00     -429.754      -28.737      -22.325      172.482      150.553       68.308    29750.202    22666.066     4665.930       12.154        2.854      430.713       61.814        0.021      344.399       21.186      860.830
06/24/2014  23:23:00     -348.738     -194.808      -26.183      219.075      157.015       90.716    47994.070    24653.765     8229.416       12.055        4.044      399.460      102.439        0.066      344.420       21.223      860.820
06/24/2014  23:24:00     -208.804     -119.206       -4.323      164.433      134.675       52.817    27038.224    18137.398     2789.616        5.289        2.398      240.435       53.874        0.050      344.393       21.177      860.840
06/24/2014  23:25:00     -249.810     -107.519       -6.904      220.425      139.507       85.294    48586.968    19462.184     7275.072        7.466        3.766      271.966      100.261        0.136      344.379       21.155      860.829
06/24/2014  23:26:00      -85.202      -40.506       24.819      145.140      107.899       70.800    21065.732    11642.263     5012.597        2.361        1.886       94.340       75.644        0.643      344.362       21.127      860.843
06/24/2014  23:27:00     -255.773     -126.252      -21.807      121.142      100.295       66.593    14675.384    10059.124     4434.650        5.550        1.458      285.235       69.850        0.060      344.374       21.144      860.866
06/24/2014  23:28:00     -259.568        2.037       -6.388      170.920      131.702       58.458    29213.591    17345.285     3417.345        5.869        2.499      259.576       74.181        0.082      344.338       21.082      860.870
06/24/2014  23:29:00     -306.995       -9.546       -9.528      200.822      112.156       81.082    40329.397    12578.981     6574.211        7.695        2.974      307.144       96.717        0.099      344.370       21.139      860.866
06/24/2014  23:30:00     -273.673      -36.995      -17.965      111.643      143.721       70.884    12464.073    20655.614     5024.564        5.736        1.907      276.163       59.687        0.047      344.328       21.066      860.853
06/24/2014  23:31:00     -270.964      -73.832      -14.295      128.769       78.498       51.897    16581.439     6161.965     2693.282        5.225        1.272      280.842       58.986        0.044      344.341       21.087      860.881
06/24/2014  23:32:00     -205.039     -103.835        6.931      137.288       97.723       63.346    18848.083     9549.833     4012.751        4.264        1.621      229.832       73.079        0.101      344.333       21.075      860.882
06/24/2014  23:33:00     -291.674       21.599      -30.112      115.306      109.175       45.973    13295.539    11919.265     2113.518        5.688        1.366      292.473       42.091        0.021      344.348       21.101      860.869
06/24/2014  23:34:00     -246.066      -50.386      -10.715      141.666      133.207       54.957    20069.211    17744.095     3020.240        5.201        2.042      251.171       53.238        0.045      344.330       21.069      860.866
06/24/2014  23:35:00     -188.411      -46.543       -2.120      108.199       85.618       52.561    11706.928     7330.423     2762.627        2.973        1.090      194.075       56.150        0.084      344.274       20.975      860.874
06/24/2014  23:36:00     -333.238      -82.840      -16.730      104.492      121.235       52.346    10918.582    14697.942     2740.086        7.327        1.418      343.381       51.915        0.023      344.284       20.989      860.883
06/24/2014  23:37:00     -232.374      -25.998        4.425      152.551      104.035       56.548    23271.737    10823.343     3197.723        4.599        1.865      233.824       71.398        0.093      344.257       20.945      860.880
06/24/2014  23:38:00     -298.939       -1.863      -27.631       94.860       88.035       55.323     8998.401     7750.140     3060.632        5.497        0.990      298.945       56.278        0.035      344.261       20.950      860.866
06/24/2014  23:39:00     -270.124       -5.480        1.361      111.129       95.083       64.109    12349.650     9040.772     4110.010        4.925        1.275      270.180       62.985        0.054      344.228       20.893      860.886
06/24/2014  23:40:00     -338.371      -89.516      -13.890      159.819      143.843       64.303    25542.142    20690.789     4134.831        8.653        2.518      350.011       58.745        0.028      344.232       20.900      860.888
06/24/2014  23:41:00     -260.176      -89.714       -9.374      113.660      130.746       61.145    12918.614    17094.449     3738.772        5.478        1.688      275.210       54.261        0.039      344.208       20.861      860.887
06/24/2014  23:42:00     -260.990      -67.540       -0.292      128.254      100.696       62.710    16449.066    10139.615     3932.557        5.159        1.526      269.588       59.786        0.049      344.192       20.832      860.872
06/24/2014  23:43:00     -297.710       38.913      -31.580      122.195       82.343       54.970    14931.530     6780.383     3021.746        5.793        1.237      300.242       49.960        0.028      344.154       20.769      860.876
06/24/2014  23:44:00     -197.262      -17.323       -9.192      110.059       82.283       59.402    12112.987     6770.419     3528.603        3.085        1.121      198.021       59.041        0.089      344.146       20.756      860.887
06/24/2014  23:45:00     -515.036      -47.774      -55.633      161.206       99.139       57.832    25987.438     9828.556     3344.558       15.489        1.958      517.247       67.109        0.017      344.219       20.879      860.883
06/24/2014  23:46:00     -347.749      -68.899      -18.015      136.594       91.484       59.028    18657.877     8369.333     3484.262        7.825        1.526      354.509       58.608        0.027      344.186       20.822      860.897
06/24/2014  23:47:00     -241.512      -19.356      -17.928      131.077       76.295       52.215    17181.246     5820.859     2726.389        4.237        1.286      242.286       58.308        0.058      344.153       20.765      860.905
06/24/2014  23:48:00     -304.568       -9.838      -30.053       80.133      107.442       49.991     6421.286    11543.800     2499.136        5.711        1.023      304.727       43.938        0.021      344.125       20.720      860.911
06/24/2014  23:49:00     -298.016       59.971      -30.629      128.021       84.671       47.756    16389.418     7169.148     2280.660        5.959        1.292      303.990       38.412        0.016      344.118       20.707      860.925
06/24/2014  23:50:00     -268.020      -53.223      -13.677       80.257      117.780       42.562     6441.255    13872.047     1811.559        4.849        1.106      273.253       28.590        0.011      344.119       20.707      860.914
06/24/2014  23:51:00     -198.333      -18.853      -21.125       89.856       58.041       42.067     8074.024     3368.737     1769.655        2.667        0.661      199.227       43.603        0.048      344.092       20.664      860.899
06/24/2014  23:52:00     -189.654      -31.092       -0.580      110.884       99.286       49.669    12295.277     9857.658     2467.037        3.077        1.231      192.186       55.305        0.083      344.051       20.591      860.890
06/24/2014  23:53:00     -239.171      -96.843       -6.243       83.195       80.403       50.369     6921.386     6464.603     2536.986        4.127        0.796      258.034       43.330        0.028      344.044       20.581      860.878
06/24/2014  23:54:00     -185.916      -21.718      -13.465       90.328       57.599       39.114     8159.221     3317.695     1529.890        2.411        0.650      187.181       43.674        0.054      344.022       20.545      860.892
06/24/2014  23:55:00     -214.844      -61.024      -14.406      101.851       73.192       51.503    10373.581     5357.011     2652.558        3.423        0.919      223.342       54.328        0.059      343.991       20.489      860.894
06/24/2014  23:56:00     -209.320      -77.884       -9.102      105.698       61.342       38.541    11172.001     3762.844     1485.439        3.319        0.821      223.340       40.191        0.032      344.009       20.521      860.878
06/24/2014  23:57:00     -238.117      -52.221      -28.826       47.343       39.484       22.770     2241.323     1559.002      518.456        3.229        0.216      243.776       11.879        0.002      344.028       20.551      860.882
06/24/2014  23:58:00     -164.560      -35.449       -8.111       66.030       74.495       39.983     4359.990     5549.502     1598.634        1.995        0.575      168.335       37.147        0.049      343.994       20.495      860.869
06/24/2014  23:59:00     -243.861        8.226      -25.683       51.009       51.110       27.952     2601.904     2612.282      781.336        3.309        0.300      244.000       29.090        0.014      344.012       20.524      860.861
